[[{"header":{"parameterUnit":"m.s-1","parameterCategory":1,"la1":30.6,"la2":29.2853,"lo1":-89.7004,"lo2":-87.6739,"dy":0.0162,"dx":0.0183,"nx":112,"ny":82,"refTime":"2026-02-18T12:00:00:Z","depth":0,"parameterNumber":2,"parameterNumberName":"U-component_of_WINDS"},"data":[0.0,0.0,0.0,0.0,0.0,0.0,0.0,0.0,0.0,0.0,0.0,0.0,0.0,0.0,0.0,0.0,0.0,0.0,0.0,0.0,0.0,0.0,0.0,0.0,0.0,0.0,0.0,0.0,0.0,0.0,0.0,0.0,0.0,0.0,0.0,0.0,0.0,0.0,0.0,0.0,0.0,0.0,0.0,0.0,0.0,0.0,0.0,0.0,0.0,0.0,0.0,0.0,0.0,0.0,0.0,0.0,0.0,0.0,0.0,0.0,0.0,0.0,0.0,0.0,0.0,0.0,0.0,0.0,0.0,0.0,0.0,0.0,0.0,0.0,0.0,0.0,0.0,0.0,0.0,0.0,0.0,0.0,0.0,0.0,0.0,0.0,0.0,0.0,0.0,0.0,-3.7991,-3.8703,-4.1449,-4.3541,-4.435,-4.3563,-4.2078,-3.9837,0.0,0.0,0.0,0.0,0.0,0.0,0.0,0.0,0.0,0.0,0.0,0.0,0.0,0.0,0.0,0.0,0.0,0.0,0.0,0.0,0.0,0.0,0.0,0.0,0.0,0.0,0.0,0.0,0.0,0.0,0.0,0.0,0.0,0.0,0.0,0.0,0.0,0.0,0.0,0.0,0.0,0.0,0.0,0.0,0.0,0.0,0.0,0.0,0.0,0.0,0.0,0.0,0.0,0.0,0.0,0.0,0.0,0.0,0.0,0.0,0.0,0.0,0.0,0.0,0.0,0.0,0.0,0.0,0.0,0.0,0.0,0.0,0.0,0.0,0.0,0.0,0.0,0.0,0.0,0.0,0.0,0.0,0.0,0.0,0.0,0.0,0.0,0.0,0.0,0.0,0.0,0.0,0.0,0.0,0.0,0.0,0.0,0.0,0.0,0.0,0.0,0.0,0.0,0.0,-3.686,-4.0227,-4.2162,-4.3294,-4.3561,-4.2868,-4.1647,-3.983,0.0,0.0,0.0,0.0,0.0,0.0,0.0,0.0,0.0,0.0,0.0,0.0,0.0,0.0,0.0,0.0,0.0,0.0,0.0,0.0,0.0,0.0,0.0,0.0,0.0,0.0,0.0,0.0,0.0,0.0,0.0,0.0,0.0,0.0,0.0,0.0,0.0,0.0,0.0,0.0,0.0,0.0,0.0,0.0,0.0,0.0,0.0,0.0,0.0,0.0,0.0,0.0,0.0,0.0,0.0,0.0,0.0,0.0,0.0,0.0,0.0,0.0,0.0,0.0,0.0,0.0,0.0,0.0,0.0,0.0,0.0,0.0,0.0,0.0,0.0,0.0,0.0,0.0,0.0,0.0,0.0,0.0,0.0,0.0,0.0,0.0,0.0,0.0,0.0,0.0,0.0,0.0,0.0,0.0,0.0,0.0,0.0,0.0,0.0,0.0,0.0,0.0,0.0,-3.588,-3.723,-4.0624,-4.168,-4.2476,-4.3325,-4.2301,-4.1038,-3.977,-3.7891,0.0,0.0,0.0,0.0,0.0,0.0,0.0,0.0,0.0,0.0,0.0,0.0,0.0,0.0,0.0,0.0,0.0,0.0,0.0,0.0,0.0,0.0,0.0,0.0,0.0,0.0,0.0,0.0,0.0,0.0,0.0,0.0,0.0,0.0,0.0,0.0,0.0,0.0,0.0,0.0,0.0,0.0,0.0,0.0,0.0,0.0,0.0,0.0,0.0,0.0,0.0,0.0,0.0,0.0,0.0,0.0,0.0,0.0,0.0,0.0,0.0,0.0,0.0,0.0,0.0,0.0,0.0,0.0,0.0,0.0,0.0,0.0,0.0,0.0,0.0,0.0,0.0,0.0,0.0,0.0,0.0,0.0,0.0,0.0,0.0,0.0,0.0,0.0,0.0,0.0,0.0,0.0,0.0,0.0,0.0,0.0,0.0,0.0,0.0,0.0,0.0,0.0,-3.7224,-3.817,-4.0778,-4.1152,-4.1745,-4.3047,-4.1673,-4.049,-3.9737,-3.6753,0.0,0.0,0.0,0.0,0.0,0.0,0.0,0.0,0.0,0.0,0.0,0.0,0.0,0.0,0.0,0.0,0.0,0.0,0.0,0.0,0.0,0.0,0.0,0.0,0.0,0.0,0.0,0.0,0.0,0.0,0.0,0.0,0.0,0.0,0.0,0.0,0.0,0.0,0.0,0.0,0.0,0.0,0.0,0.0,0.0,0.0,0.0,0.0,0.0,0.0,0.0,0.0,0.0,0.0,0.0,0.0,0.0,0.0,0.0,0.0,0.0,0.0,0.0,0.0,0.0,0.0,0.0,0.0,0.0,0.0,0.0,0.0,0.0,0.0,0.0,0.0,0.0,0.0,0.0,0.0,0.0,0.0,0.0,0.0,0.0,0.0,0.0,0.0,0.0,0.0,0.0,0.0,0.0,0.0,0.0,0.0,0.0,0.0,0.0,0.0,0.0,0.0,-3.7918,-3.9428,-4.1024,-4.1204,-4.1525,-4.2303,-4.1009,-4.0045,-3.9703,-3.5893,0.0,0.0,0.0,0.0,0.0,0.0,0.0,0.0,0.0,0.0,0.0,0.0,0.0,0.0,0.0,0.0,0.0,0.0,0.0,0.0,0.0,0.0,0.0,0.0,0.0,0.0,0.0,0.0,0.0,0.0,0.0,0.0,0.0,0.0,0.0,0.0,0.0,0.0,0.0,0.0,0.0,0.0,0.0,0.0,0.0,0.0,0.0,0.0,0.0,0.0,0.0,0.0,0.0,0.0,0.0,0.0,0.0,0.0,0.0,0.0,0.0,0.0,0.0,0.0,0.0,0.0,0.0,0.0,0.0,0.0,0.0,0.0,0.0,0.0,0.0,0.0,0.0,0.0,0.0,0.0,0.0,0.0,0.0,0.0,0.0,0.0,0.0,0.0,0.0,0.0,0.0,0.0,0.0,0.0,0.0,0.0,0.0,0.0,0.0,0.0,0.0,0.0,-3.7648,-3.9068,0.0,-4.0781,-4.0798,-4.1542,-4.0679,-3.9784,-3.9059,0.0,0.0,0.0,0.0,0.0,0.0,0.0,0.0,0.0,0.0,0.0,0.0,0.0,0.0,0.0,0.0,0.0,0.0,0.0,0.0,0.0,0.0,0.0,0.0,0.0,0.0,0.0,0.0,0.0,0.0,0.0,0.0,0.0,0.0,0.0,0.0,0.0,0.0,0.0,0.0,0.0,0.0,0.0,0.0,0.0,0.0,0.0,0.0,0.0,0.0,0.0,0.0,0.0,0.0,0.0,0.0,0.0,0.0,0.0,0.0,0.0,0.0,0.0,0.0,0.0,0.0,0.0,0.0,0.0,0.0,0.0,0.0,0.0,0.0,0.0,0.0,0.0,0.0,0.0,0.0,0.0,0.0,0.0,0.0,0.0,0.0,0.0,0.0,0.0,0.0,0.0,0.0,0.0,0.0,0.0,0.0,0.0,0.0,0.0,0.0,0.0,0.0,-3.6817,-3.7829,-3.9228,0.0,-4.0815,-4.0502,-4.1474,-4.0426,-3.9336,-3.8304,0.0,0.0,0.0,0.0,0.0,0.0,0.0,0.0,0.0,0.0,0.0,0.0,0.0,0.0,0.0,0.0,0.0,0.0,0.0,0.0,0.0,0.0,0.0,0.0,0.0,0.0,0.0,0.0,0.0,0.0,0.0,0.0,0.0,0.0,0.0,0.0,0.0,0.0,0.0,0.0,0.0,0.0,0.0,0.0,0.0,0.0,0.0,0.0,0.0,0.0,0.0,0.0,0.0,0.0,0.0,0.0,0.0,0.0,0.0,0.0,0.0,0.0,0.0,0.0,0.0,0.0,0.0,0.0,0.0,0.0,0.0,0.0,0.0,0.0,0.0,0.0,0.0,0.0,0.0,0.0,0.0,0.0,0.0,0.0,0.0,0.0,0.0,0.0,0.0,0.0,0.0,0.0,0.0,0.0,0.0,0.0,0.0,0.0,0.0,0.0,0.0,0.0,-3.7506,-3.868,-4.0294,-4.3084,-4.1407,-4.0705,-4.2134,-4.0257,-3.8552,0.0,0.0,0.0,0.0,0.0,0.0,0.0,0.0,0.0,0.0,0.0,0.0,0.0,0.0,0.0,0.0,0.0,0.0,0.0,0.0,0.0,0.0,0.0,0.0,0.0,0.0,0.0,0.0,0.0,0.0,0.0,0.0,0.0,0.0,0.0,0.0,0.0,0.0,0.0,0.0,0.0,0.0,0.0,0.0,0.0,0.0,0.0,0.0,0.0,0.0,0.0,0.0,0.0,0.0,0.0,0.0,0.0,0.0,0.0,0.0,0.0,0.0,0.0,0.0,0.0,0.0,0.0,0.0,0.0,0.0,0.0,0.0,0.0,0.0,0.0,0.0,0.0,0.0,0.0,0.0,0.0,0.0,0.0,0.0,0.0,0.0,0.0,0.0,0.0,0.0,0.0,0.0,0.0,0.0,0.0,0.0,0.0,0.0,0.0,0.0,0.0,0.0,0.0,-3.7594,-3.948,-4.1122,-4.2462,-4.1576,-4.0832,-4.0773,-3.9589,-3.8259,-3.6812,0.0,0.0,0.0,0.0,0.0,0.0,0.0,0.0,0.0,0.0,0.0,0.0,0.0,0.0,0.0,0.0,0.0,0.0,0.0,0.0,0.0,0.0,0.0,0.0,0.0,0.0,0.0,0.0,0.0,0.0,0.0,0.0,0.0,0.0,0.0,0.0,0.0,0.0,0.0,0.0,0.0,0.0,0.0,0.0,0.0,0.0,0.0,0.0,0.0,0.0,0.0,0.0,0.0,0.0,0.0,0.0,0.0,0.0,0.0,0.0,0.0,0.0,0.0,0.0,0.0,0.0,0.0,0.0,0.0,0.0,0.0,0.0,0.0,0.0,0.0,0.0,0.0,0.0,0.0,0.0,0.0,0.0,0.0,0.0,0.0,0.0,0.0,0.0,0.0,0.0,0.0,0.0,0.0,0.0,0.0,0.0,0.0,0.0,0.0,0.0,0.0,0.0,-3.7161,-3.9648,-4.1474,-4.2219,-4.1644,-4.1018,-4.0561,-3.9496,-3.7936,-3.5813,0.0,0.0,0.0,0.0,0.0,0.0,0.0,0.0,0.0,0.0,0.0,0.0,0.0,0.0,0.0,0.0,0.0,0.0,0.0,0.0,0.0,0.0,0.0,0.0,0.0,0.0,0.0,0.0,0.0,0.0,0.0,0.0,0.0,0.0,0.0,0.0,0.0,0.0,0.0,0.0,0.0,0.0,0.0,0.0,0.0,0.0,0.0,0.0,0.0,0.0,0.0,0.0,0.0,0.0,0.0,0.0,0.0,0.0,0.0,0.0,0.0,0.0,0.0,0.0,0.0,0.0,0.0,0.0,0.0,0.0,0.0,0.0,0.0,0.0,0.0,0.0,0.0,0.0,0.0,0.0,0.0,0.0,0.0,0.0,0.0,0.0,0.0,0.0,0.0,0.0,0.0,0.0,0.0,0.0,0.0,0.0,0.0,0.0,0.0,0.0,0.0,0.0,-3.6609,-3.9411,-4.1474,-4.2219,-4.1644,-4.117,-4.1102,-3.9674,-3.7613,-3.4881,0.0,0.0,0.0,0.0,0.0,0.0,0.0,0.0,0.0,0.0,0.0,0.0,0.0,0.0,0.0,0.0,0.0,0.0,0.0,0.0,0.0,0.0,0.0,0.0,0.0,0.0,0.0,0.0,0.0,0.0,0.0,0.0,0.0,0.0,0.0,0.0,0.0,0.0,0.0,0.0,0.0,0.0,0.0,0.0,0.0,0.0,0.0,0.0,0.0,0.0,0.0,0.0,0.0,0.0,0.0,0.0,0.0,0.0,0.0,0.0,-3.6118,-3.6104,0.0,0.0,0.0,0.0,0.0,0.0,0.0,0.0,0.0,0.0,0.0,0.0,0.0,0.0,0.0,0.0,0.0,0.0,0.0,0.0,0.0,0.0,0.0,0.0,0.0,0.0,0.0,0.0,0.0,0.0,0.0,0.0,0.0,0.0,0.0,0.0,0.0,0.0,0.0,0.0,-3.7297,-3.9732,-4.1474,-4.2219,-4.1644,-4.0967,-4.0383,-3.8985,-3.7324,-3.5489,-3.2565,0.0,0.0,0.0,0.0,0.0,0.0,0.0,0.0,0.0,0.0,0.0,0.0,0.0,0.0,0.0,0.0,0.0,0.0,0.0,0.0,0.0,0.0,0.0,0.0,0.0,0.0,0.0,0.0,0.0,0.0,0.0,0.0,0.0,0.0,0.0,0.0,0.0,0.0,0.0,0.0,0.0,0.0,0.0,0.0,0.0,0.0,0.0,0.0,0.0,0.0,0.0,0.0,0.0,0.0,0.0,0.0,0.0,0.0,0.0,-3.7371,-3.7069,0.0,0.0,0.0,0.0,0.0,0.0,0.0,0.0,0.0,0.0,0.0,0.0,0.0,0.0,0.0,0.0,0.0,0.0,0.0,0.0,0.0,0.0,0.0,0.0,0.0,0.0,0.0,0.0,0.0,0.0,0.0,0.0,0.0,0.0,0.0,0.0,0.0,0.0,0.0,0.0,-3.6546,-3.9377,-4.1204,-4.1221,-4.1221,-4.0899,-4.0163,-3.8973,-3.7533,-3.5792,-3.3103,0.0,0.0,0.0,0.0,0.0,0.0,0.0,0.0,0.0,0.0,0.0,0.0,0.0,0.0,0.0,0.0,0.0,0.0,0.0,0.0,0.0,0.0,0.0,0.0,0.0,0.0,0.0,0.0,0.0,0.0,0.0,0.0,0.0,0.0,0.0,0.0,0.0,0.0,0.0,0.0,0.0,0.0,0.0,0.0,0.0,0.0,0.0,0.0,0.0,0.0,0.0,0.0,0.0,-3.9229,-3.9576,-3.9619,-4.0932,-4.0971,-3.9966,-3.9202,-3.8674,-3.8404,-3.8614,0.0,0.0,0.0,0.0,0.0,0.0,0.0,0.0,0.0,0.0,0.0,0.0,0.0,0.0,0.0,0.0,0.0,0.0,0.0,0.0,0.0,0.0,-3.6075,-3.6064,-3.6626,-3.6619,-3.4566,0.0,0.0,0.0,0.0,0.0,0.0,0.0,0.0,0.0,0.0,0.0,-3.587,-3.8937,-4.0815,-4.035,-4.0688,-4.0738,-4.0113,-3.9252,-3.797,-3.6195,-3.4065,-3.1805,0.0,0.0,0.0,0.0,0.0,0.0,0.0,0.0,0.0,0.0,0.0,0.0,0.0,0.0,0.0,0.0,0.0,0.0,0.0,0.0,0.0,0.0,0.0,0.0,0.0,0.0,0.0,0.0,0.0,0.0,0.0,0.0,-3.8684,-3.8212,0.0,0.0,0.0,0.0,0.0,0.0,0.0,0.0,0.0,0.0,0.0,0.0,0.0,-3.9424,-4.0095,-4.0615,-4.0915,-4.095,-4.1565,-4.186,-4.1877,-4.2081,-4.2089,-4.1959,-4.2465,0.0,-4.0285,-3.9709,0.0,0.0,0.0,0.0,0.0,0.0,0.0,0.0,0.0,0.0,0.0,0.0,0.0,0.0,0.0,0.0,0.0,0.0,0.0,0.0,0.0,0.0,-3.8992,-3.8487,-3.8933,-3.9236,-3.8415,-3.5729,-3.3415,-3.3148,-3.1965,-3.0765,0.0,0.0,0.0,0.0,0.0,0.0,-3.733,-3.914,-4.0468,-4.1001,-4.0458,-4.0027,-3.9926,-3.9239,-3.8357,-3.7346,-3.5423,-3.3617,-3.2052,-2.9612,0.0,0.0,0.0,0.0,0.0,0.0,0.0,0.0,0.0,0.0,0.0,0.0,0.0,0.0,0.0,0.0,0.0,0.0,0.0,0.0,0.0,0.0,0.0,0.0,0.0,0.0,0.0,0.0,0.0,-3.7615,-3.9097,-3.8299,-3.9206,-3.9115,0.0,0.0,0.0,0.0,0.0,0.0,0.0,0.0,0.0,-4.1433,-4.1397,-4.2064,-4.347,-4.3412,-4.3453,-4.3666,-4.3619,-4.3599,-4.3599,-4.3599,-4.3599,-4.3616,-4.3927,-4.3613,-4.2833,-4.1898,-4.1367,-4.1024,0.0,0.0,0.0,0.0,-3.9015,-3.8884,-3.9188,-3.9014,-3.861,-3.8104,0.0,0.0,0.0,0.0,0.0,0.0,0.0,-3.7434,-3.8385,-3.9556,-4.0575,-4.0737,-4.1008,-4.1041,-4.0392,-3.8633,-3.6648,-3.4957,-3.4095,-3.3051,-3.1055,-3.1055,0.0,0.0,0.0,-3.6299,-3.7719,-3.9174,-4.0231,-4.057,-4.024,-3.9986,-3.9901,-3.953,-3.8939,-3.8117,-3.6842,-3.5184,-3.3166,-3.1535,-2.9735,0.0,0.0,0.0,0.0,0.0,0.0,0.0,0.0,0.0,0.0,0.0,0.0,0.0,0.0,0.0,0.0,0.0,0.0,0.0,0.0,0.0,0.0,0.0,0.0,0.0,0.0,0.0,0.0,-3.8391,-3.9785,-3.8372,-3.9622,-3.9821,0.0,0.0,0.0,0.0,0.0,0.0,-4.0703,-4.094,-4.2068,-4.427,-4.4247,-4.4973,-4.6625,-4.6074,-4.5802,-4.5825,-4.5302,-4.5042,-4.5042,-4.4988,-4.4988,-4.4988,-4.4841,-4.4786,-4.4667,-4.3347,-4.2653,-4.2263,-4.1088,-4.0642,-4.0625,-4.0502,-4.0275,-4.0144,-4.1154,-4.1373,-4.1085,-4.0358,-3.9868,-3.9208,-3.733,0.0,0.0,0.0,0.0,-3.9123,-4.0781,-4.1491,-4.1914,-4.2455,-4.2574,-4.2439,-4.1897,-4.1052,-3.9606,-3.6969,-3.6309,-3.5436,-3.3034,-3.3089,0.0,-3.3461,-3.5526,-3.7347,-3.8091,-3.9292,-4.0096,-4.0096,-4.0037,-3.9961,-3.9875,-3.9677,-3.9345,-3.8728,-3.7976,-3.6554,-3.4325,-3.3239,-3.1413,-2.8648,0.0,0.0,0.0,0.0,0.0,0.0,0.0,0.0,0.0,0.0,0.0,0.0,0.0,0.0,0.0,0.0,0.0,0.0,0.0,0.0,0.0,0.0,0.0,0.0,0.0,0.0,0.0,0.0,0.0,-3.8571,-4.156,0.0,0.0,0.0,0.0,-4.1596,-4.2414,-4.3251,-4.4108,-4.4874,-4.6059,-4.77,-4.7688,-4.8063,-4.8935,-4.8407,-4.7742,-4.7017,-4.6454,-4.6213,-4.6213,-4.6074,-4.6024,-4.5992,-4.5485,-4.525,-4.512,-4.3146,-4.2986,-4.3855,-4.2388,-4.2506,-4.3442,-4.2995,-4.2814,-4.2755,-4.237,-4.1779,-4.1424,-4.276,-4.2236,-4.0933,-4.013,-3.9377,0.0,0.0,-3.9952,-4.1068,-4.117,-4.2252,-4.3291,-4.3325,-4.3325,-4.3325,-4.3291,-4.2168,-4.0696,-3.9123,-3.8261,-3.7516,-3.666,0.0,-3.6575,-3.6575,-3.7297,-3.8108,-3.8853,-3.9622,-4.0096,-4.0096,-3.9884,-3.9729,-3.9703,-3.9468,-3.9299,-3.9272,-3.8566,-3.7584,-3.6318,-3.4343,-3.2644,-3.133,-2.8861,0.0,0.0,0.0,0.0,0.0,0.0,0.0,0.0,0.0,0.0,0.0,0.0,0.0,0.0,0.0,0.0,0.0,0.0,0.0,0.0,0.0,0.0,0.0,0.0,0.0,0.0,0.0,0.0,-4.06,-4.2611,0.0,-4.1942,-4.2486,-4.3104,-4.3488,-4.482,-4.5953,-4.6813,-4.7598,-4.8311,-4.8877,-4.8794,-4.8878,-4.9151,-4.859,-4.8165,-4.7918,-4.7394,-4.6841,-4.631,-4.6262,-4.6189,-4.6074,-4.59,-4.58,-4.5765,-4.5049,-4.463,-4.433,-4.3274,-4.3141,-4.3494,-4.3327,-4.3265,-4.3306,-4.3671,-4.3616,-4.3386,-4.3403,-4.2726,-4.1847,-4.1593,-4.1322,-4.1221,-4.1711,-4.2219,-4.2743,-4.325,-4.3775,-4.4164,-4.4164,-4.4164,-4.4028,-4.3494,-4.2625,-4.161,-4.0612,-3.9445,-3.821,-3.7015,-3.7178,-3.7499,-3.7499,-3.8142,-3.887,-3.9622,-3.9943,-4.0096,-4.0096,-3.9935,-3.9781,-3.9703,-3.9537,-3.9379,-3.9299,-3.8668,-3.7517,-3.5823,-3.4629,-3.3,-3.0896,-2.9939,-2.8738,0.0,0.0,0.0,0.0,0.0,0.0,0.0,0.0,0.0,0.0,0.0,0.0,0.0,0.0,0.0,0.0,0.0,0.0,0.0,0.0,0.0,0.0,0.0,0.0,0.0,0.0,-4.2809,-4.2537,-4.4168,-4.5169,-4.4759,-4.5195,-4.5799,-4.6445,-4.7308,-4.819,-4.9034,-4.9583,-4.9856,-4.9856,-4.9736,-4.9549,-4.9255,-4.8868,-4.8555,-4.8345,-4.7958,-4.7509,-4.6941,-4.6868,-4.6776,-4.6683,-4.6478,-4.6382,-4.6358,-4.6172,-4.5708,-4.5054,-4.4514,-4.4202,-4.4031,-4.4031,-4.3939,-4.3876,-4.4429,-4.4615,-4.4513,-4.3978,-4.347,-4.3091,-4.3091,-4.3091,-4.3166,-4.3673,-4.3809,-4.3927,-4.4479,-4.4615,-4.4615,-4.4615,-4.4615,-4.4462,-4.3927,-4.3014,-4.2151,-4.166,-4.0375,-3.9063,-3.8082,-3.8311,-3.8633,-3.8633,-3.9276,-3.9918,-4.0417,-4.046,-4.046,-4.046,-4.0087,-3.9798,-3.9703,-3.932,-3.903,-3.8934,-3.828,-3.7215,-3.5692,-3.4991,-3.3721,-3.1784,-3.0907,-2.9629,-2.7944,0.0,0.0,0.0,0.0,0.0,0.0,0.0,0.0,0.0,0.0,0.0,0.0,0.0,0.0,0.0,0.0,0.0,0.0,0.0,0.0,0.0,0.0,0.0,-4.0601,-4.3335,-4.5055,-4.4314,-4.6323,-4.7814,-4.7977,-4.7979,-4.8717,-5.0474,-4.9909,-4.9858,-5.0765,-5.082,-5.082,-5.0765,-5.0645,-5.0181,-4.9376,-4.9376,-4.8974,-4.8207,-4.8207,-4.8207,-4.8187,-4.8004,-4.792,-4.7861,-4.7214,-4.6931,-4.6886,-4.6358,-4.6165,-4.6165,-4.6098,-4.5775,-4.5303,-4.5303,-4.5008,-4.4615,-4.4615,-4.4615,-4.4615,-4.4615,-4.4615,-4.4615,-4.4615,-4.4615,-4.4615,-4.4615,-4.4615,-4.4615,-4.4615,-4.4615,-4.4615,-4.4615,-4.4615,-4.4615,-4.4615,-4.3369,-4.2286,-4.2286,-4.1128,-4.0096,-4.0096,-4.013,-4.013,-4.013,-4.0747,0.0,-4.1238,-4.1238,-4.1238,-4.1204,-4.0312,-3.9737,-3.9703,-3.8766,-3.8186,-3.8186,-3.7491,-3.6772,-3.6088,-3.5425,-3.4792,-3.4187,-3.17,-2.9852,-2.8648,0.0,0.0,0.0,0.0,0.0,0.0,0.0,0.0,0.0,0.0,0.0,0.0,0.0,0.0,0.0,0.0,0.0,0.0,0.0,0.0,0.0,-4.1687,-4.3118,-4.3118,-4.4874,-4.6345,-4.6789,-4.846,-4.9671,-4.9823,-4.9862,-5.0106,-5.0686,-5.1073,-5.1149,-5.082,-5.1353,-5.1132,-4.9978,-4.9883,-4.946,-4.8596,-4.8596,-4.8486,-4.8286,-4.8286,-4.8247,-4.8187,-4.8128,-4.8068,-4.7949,-4.7741,-4.7636,-4.7615,-4.7363,-4.7258,-4.7173,-4.6406,-4.5775,-4.5303,-4.5303,-4.5008,-4.4615,-4.4615,-4.4615,-4.4615,-4.4615,-4.4615,-4.4615,-4.4615,-4.4615,-4.4615,-4.4615,-4.4615,-4.4615,-4.4615,-4.4615,-4.4615,-4.4615,-4.4615,-4.4615,-4.4615,-4.3369,-4.2286,-4.2286,-4.1128,-4.0096,-4.0096,-4.0527,-4.0899,-4.0899,-4.1525,-4.1999,-4.1999,-4.1999,-4.1779,-4.1271,-4.0783,-4.029,-3.9754,-3.8766,-3.8186,-3.8186,-3.7052,-3.6068,-3.5402,-3.4771,-3.4127,-3.3498,-3.1933,-3.0725,0.0,0.0,0.0,0.0,0.0,0.0,0.0,0.0,0.0,0.0,0.0,0.0,0.0,0.0,0.0,0.0,0.0,0.0,0.0,0.0,0.0,0.0,-4.4041,-4.5725,-4.6069,-4.692,-4.7977,-4.9265,-5.0228,-5.1005,-5.1551,-5.1608,-5.1504,-5.1334,-5.1738,-5.1646,-5.0839,-5.1242,-5.0912,-4.9647,-4.961,-4.9169,-4.8324,-4.8306,-4.8306,-4.8306,-4.8306,-4.8267,-4.8228,-4.8207,-4.8168,-4.807,-4.7945,-4.7881,-4.7881,-4.7759,-4.7717,-4.7636,0.0,0.0,0.0,0.0,-4.5008,-4.4615,-4.4615,-4.4615,-4.4615,-4.4615,-4.4615,-4.4615,-4.4615,-4.4615,-4.4615,-4.4615,-4.4615,-4.4615,-4.4615,-4.4615,-4.4615,-4.4615,-4.4615,-4.4615,-4.4615,-4.3623,-4.2675,-4.2354,-4.1339,0.0,-4.0544,-4.0916,-4.1204,-4.1204,-4.2047,-4.2696,-4.276,-4.2652,-4.2446,-4.2078,-4.1248,-4.0552,-4.0117,-3.8923,0.0,0.0,0.0,-3.5738,-3.5044,-3.4683,0.0,0.0,0.0,0.0,0.0,0.0,0.0,0.0,-3.0492,-3.0612,0.0,0.0,0.0,0.0,0.0,0.0,0.0,0.0,0.0,0.0,0.0,0.0,0.0,0.0,0.0,0.0,-4.6323,-4.8152,-4.9057,-4.9184,-4.9775,-5.1318,-5.1595,-5.2032,-5.2926,-5.302,-5.277,-5.2179,-5.205,-5.1646,-5.0839,-5.071,0.0,0.0,0.0,-4.9077,-4.8324,-4.8306,-4.8306,-4.8306,-4.8306,-4.8306,-4.8287,-4.8246,-4.8207,-4.8187,-4.8004,-4.7902,-4.7881,-4.7759,-4.7717,-4.7678,-4.7572,-4.7236,-4.6683,-4.5614,-4.4971,-4.4615,-4.4615,0.0,0.0,-4.4615,-4.4615,-4.4615,-4.4615,-4.4615,-4.4615,-4.4615,-4.4615,-4.4615,-4.4615,-4.4615,-4.4615,-4.4615,-4.4615,-4.4615,-4.4615,-4.3961,-4.3189,-4.254,-4.183,-4.1322,-4.1296,-4.1296,-4.1356,-4.1441,-4.2523,-4.3362,-4.35,-4.3278,-4.3132,-4.3177,-4.1782,0.0,-4.0617,-3.9203,-3.8013,-3.7284,-3.6539,-3.5827,-3.5181,-3.5148,-3.5243,-3.5451,-3.5373,-3.5165,-3.4847,-3.5303,-3.5278,-3.4794,-3.2257,-3.2063,0.0,0.0,0.0,0.0,0.0,0.0,0.0,0.0,0.0,0.0,0.0,0.0,0.0,0.0,0.0,-4.5743,-4.7518,-4.9206,-5.0784,-5.1002,-5.1137,-5.1541,-5.2247,-5.2812,-5.3146,-5.3164,-5.3091,-5.2986,-5.2362,-5.1646,-5.0839,-5.0178,-4.9426,-4.8581,-4.8545,-4.8471,-4.8306,-4.8306,-4.8306,-4.8306,-4.8306,0.0,-4.8306,-4.8287,-4.8247,-4.8187,-4.805,-4.7947,-4.7881,-4.7759,-4.7717,-4.7615,-4.6753,-4.6358,-4.614,-4.5106,-4.4665,-4.4615,-4.4615,-4.4615,-4.4615,-4.4615,-4.4615,-4.4615,-4.4615,-4.4615,0.0,-4.4615,-4.4615,-4.4615,-4.4615,-4.4615,-4.4615,-4.4615,-4.4615,-4.4615,-4.4615,-4.3961,-4.3341,-4.3189,-4.2591,-4.2057,-4.194,-4.202,-4.2286,-4.2868,-4.3619,-4.4091,-4.4119,-4.3994,-4.3674,-4.3116,-4.2645,-4.1883,-4.07,-3.9651,-3.8758,-3.8046,-3.7301,-3.682,-3.6688,-3.6671,-3.6969,-3.7593,-3.7122,-3.7106,-3.7621,-3.6729,-3.6507,-3.6873,-3.5282,-3.5026,0.0,0.0,0.0,0.0,0.0,0.0,0.0,0.0,0.0,0.0,0.0,-4.08,-4.156,0.0,-4.5834,-4.7446,-4.9119,-5.0526,-5.1369,-5.1938,-5.2262,-5.2309,-5.2721,-5.3042,-5.3185,-5.3185,-5.3041,-5.2637,-5.1848,-5.1041,-5.0233,-4.9389,-4.8746,-4.8324,-4.8306,-4.8306,-4.8306,-4.8306,-4.8306,-4.8306,-4.8306,-4.8306,-4.8306,-4.8306,-4.8267,-4.8247,-4.8072,-4.799,-4.7927,-4.7762,-4.7717,-4.7575,-4.6525,-4.6098,-4.6042,-4.5546,-4.5042,-4.4615,-4.4615,-4.4615,-4.4615,-4.4615,-4.4615,-4.4615,-4.4615,-4.4615,-4.4615,-4.4615,-4.4615,-4.4615,-4.4615,-4.4615,-4.4615,-4.4615,-4.4615,-4.4615,-4.4615,-4.4265,-4.3876,-4.3477,-4.3115,-4.2807,-4.2688,-4.2715,-4.2861,-4.3149,-4.3782,-4.4196,-4.4196,-4.3993,-4.376,-4.348,-4.297,-4.2351,-4.1593,-4.0519,-3.9696,-3.9322,-3.8609,-3.8195,-3.8195,-3.8195,-3.8543,-3.9288,-3.8996,-3.9049,-3.9466,-3.914,-3.8999,-3.8972,-3.862,-3.8292,0.0,0.0,0.0,0.0,0.0,0.0,0.0,0.0,-3.8887,-3.908,-4.0999,-4.2827,-4.348,-4.5436,-4.7446,-4.8912,-5.0449,-5.1554,-5.1722,-5.2466,-5.302,-5.3042,-5.3042,-5.3082,-5.3185,-5.3185,-5.2931,-5.227,-5.1481,-5.0674,-4.9886,-4.9022,-4.8471,-4.8324,-4.8306,-4.8306,-4.8306,-4.8306,-4.8306,-4.8306,-4.8306,-4.8306,-4.8306,-4.8306,-4.8287,-4.8229,-4.8032,-4.7931,-4.7929,-4.7762,-4.7636,-4.7468,-4.6572,-4.6123,-4.5925,-4.5843,-4.5302,-4.4615,-4.4615,-4.4615,-4.4615,-4.4615,-4.4615,-4.4615,-4.4615,-4.4615,-4.4615,-4.4615,-4.4615,-4.4615,-4.4615,-4.4615,-4.4615,-4.4615,-4.4615,-4.4615,-4.4615,-4.4615,-4.4429,-4.3775,-4.3612,-4.3529,-4.3407,-4.3379,-4.3351,-4.3221,-4.3683,-4.4056,-4.4056,-4.3776,-4.3658,-4.3822,-4.3157,-4.2655,-4.2506,-4.1326,-4.058,-4.058,-4.0044,-3.9713,-3.9713,-3.9713,-4.0061,-4.0779,-4.0796,-4.0901,-4.1108,-4.1673,-4.163,-4.1124,-4.1744,-4.1209,-3.7841,-3.6589,-3.6288,-3.6872,-3.7698,-3.8652,0.0,0.0,-4.2186,-4.2356,-4.4295,-4.5997,-4.6087,-4.75,-4.8931,-4.9818,-5.0834,-5.1758,-5.2543,-5.2839,-5.3042,-5.3164,-5.3185,-5.3185,-5.3185,-5.3185,-5.317,-5.3057,-5.2325,-5.1499,-5.071,-4.9904,-4.9095,-4.8324,-4.8306,-4.8306,-4.8306,-4.8306,-4.8306,-4.8306,-4.8306,-4.8306,-4.8306,-4.8306,-4.8209,-4.8032,-4.7806,-4.772,-4.772,-4.7699,-4.7407,-4.6976,-4.6863,-4.6238,-4.5346,-4.4934,-4.4709,-4.4615,-4.4615,-4.4615,-4.4615,-4.4615,-4.4615,-4.4615,-4.4615,-4.4615,-4.4615,-4.4615,-4.4615,-4.4615,-4.4615,-4.4615,-4.4615,-4.4615,-4.4615,-4.4615,-4.4615,-4.4615,-4.4581,-4.4496,-4.4305,-4.4164,-4.4021,-4.4009,-4.398,-4.398,-4.3948,-4.3927,-4.3927,-4.3734,-4.3598,-4.3628,-4.3532,-4.3201,-4.2555,-4.1773,-4.1293,-4.1293,-4.1226,-4.1177,-4.1177,-4.1177,-4.1524,-4.227,-4.2286,-4.2576,-4.3244,-4.3402,-4.3428,-4.338,-4.4024,-4.32,-3.9367,-3.8571,-3.8459,0.0,-4.0182,-4.124,-4.2125,-4.3323,-4.4234,-4.4295,-4.5852,-4.721,-4.721,-4.8514,-4.9854,0.0,-5.156,-5.229,-5.2747,-5.2934,-5.2877,-5.2525,-5.2913,-5.3185,-5.3185,-5.3185,-5.3185,-5.3185,-5.2454,-5.1646,-5.0839,-5.0051,-4.9187,-4.8343,-4.8306,-4.8306,-4.8306,-4.8306,-4.8306,-4.8306,-4.8306,-4.8306,-4.8306,-4.8306,-4.819,-4.7992,-4.7866,-4.7759,-4.7717,-4.7717,-4.7385,-4.6863,-4.6566,-4.5975,-4.5276,-4.5072,-4.4824,-4.4615,-4.4615,-4.4615,-4.4615,-4.4615,-4.4615,-4.4615,-4.4615,-4.4615,-4.4615,-4.4615,-4.4615,-4.4615,-4.4615,-4.4615,-4.4615,-4.4615,-4.4615,-4.4615,-4.4615,-4.4615,-4.4615,-4.4615,-4.444,-4.4253,-4.4126,-4.4027,-4.3939,-4.3835,-4.3852,-4.3868,-4.3734,-4.3658,-4.3598,-4.3598,-4.3598,-4.3466,-4.3168,-4.2853,-4.2671,-4.2671,-4.2671,-4.2671,-4.2671,-4.2671,-4.282,-4.3118,-4.3135,-4.3482,-4.4241,-4.4264,-4.446,-4.4885,-4.513,-4.4559,-4.0218,-4.0118,0.0,-4.1385,-4.2667,-4.3772,-4.4133,-4.5118,-4.5906,-4.5689,-4.6739,-4.7717,-4.7717,-4.8822,-5.0017,-5.0832,-5.1728,-5.2444,-5.2765,-5.2773,-5.2535,-5.2068,-5.2325,-5.2546,-5.2546,-5.2949,-5.3185,-5.3185,-5.2656,-5.1977,-5.1169,-5.0362,-4.9536,-4.8691,-4.8434,-4.8306,-4.8306,-4.8306,-4.8306,-4.8306,-4.8306,-4.8306,-4.8287,-4.8248,-4.8131,-4.7992,-4.7904,-4.778,-4.7717,-4.7717,-4.7385,-4.6863,-4.631,-4.5775,-4.5276,-4.5135,-4.4906,-4.4615,-4.4615,-4.4615,-4.4615,-4.4615,-4.4615,-4.4615,-4.4615,-4.4615,-4.4615,-4.4615,-4.4615,-4.4615,-4.4615,-4.4615,-4.4615,-4.4615,-4.4615,-4.4615,-4.4615,-4.4615,-4.457,-4.4542,-4.4384,-4.4196,-4.4068,-4.391,-4.3763,-4.3628,-4.3717,-4.368,-4.3346,-4.33,-4.33,-4.33,-4.3466,-4.3598,-4.3598,-4.3598,-4.3598,-4.3598,-4.3598,-4.3598,-4.3598,-4.3598,-4.3698,-4.391,-4.388,-4.4274,-4.4986,-4.5202,-4.5563,-4.6026,-4.6238,-4.5897,-4.0095,0.0,-4.1651,-4.331,-4.5057,-4.6176,-4.5436,-4.6504,-4.7428,-4.6631,-4.712,-4.7717,-4.7717,-4.8366,-4.9202,-5.0021,-5.0977,-5.1912,-5.2674,-5.2361,-5.2013,-5.1995,-5.1334,-5.0875,0.0,-5.2289,-5.3185,-5.3185,-5.3167,-5.2821,-5.1995,-5.1206,-5.038,-4.9592,-4.8746,-4.8306,-4.8306,-4.8306,-4.8306,-4.8306,-4.8306,-4.8306,-4.8287,-4.8092,-4.8012,-4.7992,-4.7804,-4.7699,-4.7717,-4.7717,-4.7385,-4.6863,-4.631,-4.5775,-4.5241,-4.4786,-4.4598,-4.4615,-4.4615,-4.4615,-4.4615,-4.4615,-4.4615,-4.4615,-4.4615,-4.4615,-4.4615,-4.4615,-4.4615,-4.4615,-4.4615,-4.4615,-4.4615,-4.4615,-4.4615,-4.4615,-4.4615,-4.4615,-4.4542,-4.4338,-4.4196,-4.4068,-4.3927,-4.3734,-4.3598,-4.3598,-4.3598,-4.3333,-4.2622,-4.2522,-4.2522,-4.2522,-4.3168,-4.3598,-4.3598,-4.3598,-4.3598,-4.3598,-4.3598,-4.3598,-4.3598,-4.3598,-4.3943,-4.4638,-4.4655,-4.5019,-4.5765,-4.6477,-4.6841,-4.6876,-4.7604,-4.7505,-4.174,0.0,-4.4027,-4.5111,-4.6359,-4.7228,-4.6957,-4.7319,-4.7606,-4.7355,-4.7102,-4.7083,-4.7609,-4.7935,-4.855,-4.9894,-5.0849,-5.1536,-5.1945,-5.2306,-5.2011,-5.0582,-5.1096,0.0,0.0,0.0,0.0,-5.2362,-5.2399,-5.2289,-5.1995,-5.1242,-5.0435,-4.9629,-4.8746,-4.8306,-4.8306,-4.8306,-4.8306,-4.8306,-4.8306,-4.8306,-4.8287,-4.8092,-4.7992,-4.7992,-4.7783,-4.7717,-4.7717,-4.7717,-4.7385,-4.6863,-4.631,-4.5775,-4.5241,-4.4759,-4.4615,-4.4615,-4.4615,-4.4615,-4.4615,-4.4615,-4.4615,-4.4615,-4.4615,-4.4615,-4.4615,-4.4615,-4.4615,-4.4615,-4.4615,-4.4615,-4.4615,-4.4615,-4.4615,-4.4615,-4.4615,-4.4514,-4.4367,-4.4293,-4.4126,-4.3939,-4.3898,-4.3734,-4.3598,-4.3598,-4.3168,-4.2771,-4.2522,-4.2059,-4.1761,-4.1761,-4.1976,-4.2125,-4.2125,-4.2125,-4.2125,-4.2125,-4.2589,-4.287,-4.287,-4.381,-4.444,-4.4688,-4.5168,-4.5781,-4.6527,-4.6775,-4.7156,-4.7636,-4.7885,-4.732,-4.3449,-4.4435,-4.5335,-4.6458,-4.7214,-4.7717,-4.7717,-4.7717,-4.7717,-4.7717,-4.683,-4.6323,-4.712,-4.6812,-4.7029,-4.8931,-4.9978,-5.0813,-5.1489,-5.1886,-5.1572,-5.0176,-5.0398,-5.027,0.0,0.0,0.0,-5.1885,-5.1995,-5.2123,-5.2417,-5.1389,-5.0563,-5.005,-4.8893,-4.8306,-4.8306,-4.8306,-4.8306,-4.8306,-4.8306,-4.8306,-4.8287,-4.8092,-4.7992,-4.7992,-4.7783,-4.7717,-4.7717,-4.7717,-4.7385,-4.6863,-4.631,-4.5775,-4.5241,-4.4759,-4.4615,-4.4615,-4.4615,-4.4615,-4.4615,-4.4615,-4.4615,-4.4615,-4.4615,-4.4615,-4.4615,-4.4615,-4.4615,-4.4615,-4.4615,-4.4615,-4.4615,-4.4615,-4.4615,-4.457,-4.4514,-4.4395,-4.4281,-4.4184,-4.4027,-4.3951,-4.4171,-4.4069,-4.388,-4.3631,-4.2969,-4.2489,-4.2489,-4.2075,-4.1778,-4.1778,-4.2026,-4.2175,-4.2175,-4.2435,-4.2585,-4.2585,-4.328,-4.3694,-4.3694,-4.4589,-4.5202,-4.5467,-4.5947,-4.656,-4.7289,-4.7289,-4.7537,-4.8001,-4.8001,-4.7303,-4.5038,-4.5574,-4.575,-4.7316,-4.7735,-4.7753,-4.7717,-4.7717,-4.7678,-4.7663,-4.6395,-4.5508,0.0,0.0,-4.491,-4.721,-4.8504,-4.9799,-5.131,-5.119,-5.0894,0.0,0.0,0.0,0.0,0.0,0.0,-5.1811,0.0,-5.2307,-5.3148,-5.172,-5.0839,-5.0802,-4.9224,-4.8361,-4.8306,-4.8306,-4.8306,-4.8306,-4.8306,-4.8287,-4.8287,-4.8092,-4.7992,-4.7972,-4.7783,-4.7717,-4.7717,-4.7657,-4.7363,-4.6822,-4.6286,-4.5749,-4.5241,-4.4759,-4.4615,-4.4615,-4.4615,-4.4615,-4.4615,-4.4615,-4.4615,-4.4615,-4.4615,-4.4615,-4.4615,-4.4649,-4.4632,-4.4615,-4.4649,-4.4604,-4.457,-4.457,-4.457,-4.4514,-4.4338,-4.4265,-4.4196,-4.3956,-4.3898,-4.4055,-4.4553,-4.4622,-4.4423,-4.3747,-4.3052,-4.2572,-4.2506,-4.2456,-4.2456,-4.2489,-4.3118,-4.3549,-4.3598,-4.4241,-4.4622,-4.4622,-4.5334,-4.5732,-4.5732,-4.5814,-4.6179,-4.6891,-4.6941,-4.7305,-4.8001,-4.8001,-4.8001,-4.8001,-4.8001,-4.7555,-4.5631,-4.6964,-4.7785,-4.7711,-4.8149,-4.8438,-4.7823,-4.7717,-4.7536,-4.6939,-4.5997,-4.5001,0.0,0.0,0.0,-4.5816,-4.8224,0.0,-5.0651,-5.1712,0.0,-5.0929,0.0,-5.082,-5.0215,-5.016,0.0,0.0,-5.1444,-5.172,-5.3133,-5.2234,-5.1426,-5.082,-4.9793,-4.8948,-4.8324,-4.8306,-4.8306,-4.8306,-4.8306,-4.8267,-4.8226,-4.807,-4.797,-4.7904,-4.7759,-4.7717,-4.7657,-4.7258,-4.7022,-4.6817,-4.5875,-4.5433,-4.5241,-4.4759,-4.4615,-4.4615,-4.4615,-4.4615,-4.4615,-4.4615,-4.4615,-4.4615,-4.4615,-4.4615,-4.4716,-4.5263,-4.501,-4.4733,-4.528,-4.489,-4.4367,-4.4367,-4.4298,-4.4212,-4.4155,-4.4068,-4.3969,-4.3927,-4.3763,-4.3724,-4.386,-4.3893,-4.4009,-4.4373,-4.4257,-4.3744,-4.2622,-4.2009,-4.1877,-4.2423,-4.2655,-4.2986,-4.3549,-4.3764,-4.3893,-4.3893,-4.4572,-4.497,-4.497,-4.603,-4.6709,-4.6891,-4.7438,-4.7819,-4.8001,-4.8001,-4.8001,-4.8001,-4.8001,-4.727,-4.7084,-4.8352,-4.9133,-4.842,-4.8565,-4.8493,-4.6993,-4.6649,-4.6323,-4.5164,-4.4277,0.0,-4.2538,-4.3389,0.0,0.0,0.0,0.0,-5.0286,-5.135,-5.1859,0.0,-5.1408,0.0,-5.0839,-5.0802,-5.1132,0.0,-5.1573,-5.1867,-5.3133,-5.2435,-5.1775,-5.1334,-5.0545,-4.9719,-4.8875,-4.8875,-4.8673,-4.8306,-4.8267,-4.8246,-4.8187,-4.8028,-4.7945,-4.7881,-4.7759,-4.7572,-4.7341,-4.7022,-4.6619,-4.6158,-4.5936,-4.5488,-4.5005,-4.5066,-4.5077,-4.5077,-4.5077,-4.528,-4.5478,-4.4818,-4.4615,-4.4615,-4.4615,-4.4835,-4.5162,-4.5585,-4.5635,-4.5568,-4.5566,-4.5175,-4.4685,-4.4308,-4.4155,-4.4068,-4.4027,-4.3939,-4.3868,-4.3793,-4.3953,-4.3992,-4.3648,-4.3863,-4.4125,-4.4208,-4.4224,-4.3926,-4.3085,-4.3197,-4.3495,-4.391,-4.3959,-4.4125,-4.4539,-4.487,-4.5069,-4.5069,-4.5732,-4.6146,-4.6146,-4.6941,-4.7388,-4.7388,-4.7785,-4.8001,-4.8001,-4.8001,-4.8001,-4.8001,-4.8001,-4.7168,-4.8757,-4.9655,-5.0035,-4.9148,-4.8981,-4.8405,-4.587,-4.5291,-4.4802,-4.3081,0.0,-4.1669,-4.156,-4.2285,-4.3173,-4.3969,0.0,-4.8577,-5.0183,-5.0714,-5.1261,-5.205,-5.1536,-5.1132,-5.1132,-5.1132,-5.1408,-5.2105,-5.216,-5.2454,-5.317,-5.2546,-5.2105,-5.1995,-5.1224,-5.0453,-4.9776,-4.9647,-4.9225,-4.8471,-4.8411,-4.8297,-4.8168,-4.8184,-4.8136,-4.8024,-4.7901,-4.7547,-4.7051,-4.6875,-4.6266,-4.55,-4.604,-4.5627,-4.4835,-4.5466,-4.5703,-4.572,-4.5821,-4.6261,-4.6566,-4.5179,-4.4818,-4.4886,-4.4784,-4.5179,-4.572,-4.5821,-4.616,-4.6333,-4.5597,-4.5307,-4.503,-4.4265,-4.4039,-4.3981,-4.3898,-4.3868,-4.3793,-4.3628,-4.4125,-4.4357,-4.3698,-4.4141,-4.4373,-4.3843,-4.3731,-4.3764,-4.3863,-4.4837,-4.5582,-4.5765,-4.5798,-4.5864,-4.6079,-4.6676,-4.7007,-4.6908,-4.7504,-4.7819,-4.7719,-4.7802,-4.7852,-4.7852,-4.7951,-4.8001,-4.8001,-4.8001,-4.8001,-4.8001,-4.7886,-4.7066,-4.9492,-5.047,-5.0741,-4.9253,-4.9401,-4.9075,-4.5997,-4.5291,0.0,0.0,-4.1795,-4.1506,-4.0836,-4.1904,-4.3173,-4.3969,-4.6306,-4.8577,-5.0183,-5.1211,-5.2087,0.0,-5.2876,-5.2784,-5.2784,-5.2784,0.0,0.0,-5.3004,-5.3059,-5.3185,-5.3078,-5.2692,-5.2013,-5.1224,-5.0729,-5.0582,-4.9941,-4.9519,-4.9372,-4.9253,-4.8788,-4.8087,-4.9273,-4.9401,-4.8735,-4.8713,-4.8397,-4.7813,-4.6695,-4.6252,-4.6188,-4.5305,-4.5173,-4.5517,-4.5652,-4.5703,-4.5788,-4.6397,-4.6684,-4.665,-4.5788,-4.5923,-4.6295,-4.5686,-4.5602,-4.5838,-4.643,-4.5805,-4.5049,-4.5332,-4.4867,-4.4265,-4.4019,-4.3822,-4.3687,-4.3658,-4.3658,-4.3628,-4.3598,-4.3698,-4.3731,-4.3615,-4.3698,-4.3959,-4.444,-4.4506,-4.4721,-4.5334,-4.4589,-4.4456,-4.5665,-4.5798,-4.6278,-4.7504,-4.7736,-4.7554,-4.6941,-4.7023,-4.6825,-4.6195,-4.6775,-4.709,-4.709,-4.7686,-4.8001,-4.8001,-4.8001,-4.8001,-4.7968,-4.7337,-4.655,-5.0379,-5.1303,-5.1538,-4.9927,-4.98,-4.9043,-4.4965,0.0,0.0,0.0,-4.022,-4.0256,-3.9441,-4.0998,0.0,-4.2341,-4.4143,-4.6263,-4.8346,-4.9455,0.0,-5.238,-5.2949,-5.3185,-5.3185,-5.3185,-5.3185,-5.3185,-5.3185,-5.3185,-5.3185,-5.3185,-5.3023,-5.2637,-5.2252,-5.1848,-5.1426,-5.1022,-5.0657,-5.0215,-5.0015,-4.9674,-4.9266,-4.9861,-4.9938,-4.9528,-4.9528,-4.9208,-4.8657,-4.7692,-4.7204,-4.7007,-4.651,-4.6295,-4.6261,-4.6261,-4.6532,-4.6853,-4.6802,-4.7293,-4.7817,-4.709,-4.6819,-4.6718,-4.638,-4.6549,-4.6938,-4.7276,-4.7081,-4.6739,-4.6508,-4.6089,-4.5587,-4.5023,-4.4832,-4.4754,-4.4754,-4.4754,-4.4754,-4.4754,-4.444,-4.4291,-4.4688,-4.444,-4.4291,-4.4638,-4.4688,-4.4688,-4.4671,-4.4029,-4.4191,-4.5632,-4.5798,-4.6079,-4.6792,-4.6858,-4.6692,-4.6344,-4.6328,-4.6162,-4.5798,-4.6129,-4.6328,-4.6328,-4.6676,-4.704,-4.7438,-4.7819,-4.8199,-4.8547,-4.8097,-4.7485,-5.0982,-5.1841,-5.2095,-5.0488,-5.0112,-4.8843,-4.4006,-4.2901,0.0,0.0,-3.8716,-3.9006,-3.8553,0.0,-4.1287,0.0,-4.2302,-4.4181,-4.665,-4.7899,-4.9426,0.0,-5.2711,0.0,-5.3185,-5.3185,0.0,-5.3185,-5.3185,-5.3185,-5.3185,-5.3185,-5.3185,-5.3185,-5.3185,-5.2913,-5.2252,-5.2087,-5.1665,-5.1059,-5.0796,-5.056,-5.0396,-5.0544,-5.0506,-5.0365,-5.0365,-4.9973,-4.9315,-4.8673,-4.811,-4.7648,-4.764,-4.7411,-4.7022,-4.6853,-4.7175,-4.7597,-4.7005,-4.7665,-4.868,-4.8075,-4.7614,-4.7242,-4.7073,-4.7415,-4.7858,-4.7858,-4.804,-4.8071,-4.7312,-4.7022,-4.6747,-4.5993,-4.5798,-4.5798,-4.5798,-4.5798,-4.5798,-4.5798,-4.5317,-4.5102,-4.5698,-4.5301,-4.492,-4.492,-4.4818,-4.4539,-4.4111,-4.3913,-4.4291,-4.5433,-4.5549,-4.5616,-4.5781,-4.593,-4.5963,-4.5798,-4.5947,-4.5947,-4.5798,-4.5947,-4.6096,-4.6262,-4.6427,-4.6874,-4.7603,-4.8199,-4.8779,-4.9325,-4.8849,-4.8296,-5.0849,-5.1703,-5.1979,-5.0466,-5.0112,-4.8843,-4.4006,0.0,-4.2013,-3.8861,-3.8263,-3.8517,-3.9187,0.0,0.0,0.0,0.0,-4.4236,-4.6669,-4.8431,-5.0124,-5.1793,0.0,0.0,-5.3185,-5.3185,-5.3185,-5.3185,-5.3185,-5.3185,-5.3185,-5.3185,-5.3185,-5.3185,-5.3185,-5.3148,-5.3096,-5.2362,-5.1958,-5.1885,-5.1618,-5.111,-5.045,-5.1706,-5.1864,-5.1176,-5.1176,-5.0576,-4.9503,-4.8722,-4.8186,-4.7793,-4.717,-4.7276,-4.7733,-4.7056,-4.6836,-4.6887,-4.6802,-4.7327,-4.7973,-4.7906,-4.8325,-4.868,-4.799,-4.773,-4.7625,-4.7625,-4.7099,-4.6477,-4.6207,-4.6112,-4.6065,-4.5829,-4.5798,-4.5798,-4.5798,-4.5798,-4.5798,-4.5798,-4.5748,-4.5715,-4.5781,-4.5732,-4.5698,-4.5698,-4.5119,-4.4903,-4.5516,-4.5003,-4.4638,-4.4771,-4.4818,-4.5052,-4.5732,-4.6411,-4.651,-4.5831,-4.6427,-4.6493,-4.5814,-4.6444,-4.7106,-4.7785,-4.8465,-4.9177,-4.9906,-4.9972,-5.0038,-5.007,-4.8517,-4.7757,-5.1452,-5.1813,-5.1434,-5.0361,-4.9727,-4.8242,-4.3878,0.0,-4.2013,-3.8861,-3.8209,-3.8299,-3.8625,-3.8763,0.0,0.0,0.0,0.0,-4.3831,-4.5608,-4.7609,-5.0253,-5.1683,0.0,0.0,0.0,-5.3185,-5.3185,-5.3185,-5.3185,-5.3185,-5.3185,-5.3185,-5.3185,-5.3185,-5.3185,-5.3185,-5.2894,-5.2729,-5.2729,-5.2458,-5.2167,-5.1854,-5.2304,-5.2317,-5.2009,-5.2009,-5.1557,-5.0756,-5.0083,-4.9535,-4.9034,-4.8374,-4.8308,-4.8426,-4.7242,-4.7073,-4.7411,-4.6955,-4.7293,-4.7956,-4.8426,-4.872,-4.8813,-4.8526,-4.8284,-4.8142,-4.8142,-4.7816,-4.7441,-4.7345,-4.725,-4.717,-4.7155,-4.7123,-4.7123,-4.7123,-4.7123,-4.7123,-4.7123,-4.6758,-4.6593,-4.704,-4.6758,-4.646,-4.646,-4.6195,-4.5963,-4.5814,-4.5533,-4.5351,-4.5351,-4.5351,-4.5284,-4.5135,-4.5798,-4.6096,-4.5814,-4.6079,-4.6096,-4.5798,-4.651,-4.704,-4.7338,-4.8067,-4.8812,-4.9558,-4.9988,-5.0436,-5.0832,-5.0087,-4.9742,-5.0837,-5.1149,-5.0751,-5.0216,-4.913,-4.7319,0.0,-4.2701,-4.1415,-3.8752,-3.8209,-3.8209,-3.8209,-3.8305,-3.8399,0.0,0.0,-4.0102,-4.2029,-4.3901,-4.5993,0.0,0.0,-5.161,0.0,-5.291,-5.3185,-5.3185,-5.3185,-5.3185,-5.3185,-5.3185,-5.3185,-5.3185,-5.3185,-5.3185,-5.3185,-5.3185,-5.3185,-5.3143,-5.2912,-5.2783,-5.2739,-5.2572,-5.2498,-5.2498,-5.2498,-5.2048,-5.1304,-5.0885,-5.0276,-4.9585,-4.9168,-4.9001,-4.8849,-4.7597,-4.7327,-4.7513,-4.6972,-4.7141,-4.7716,-4.8443,-4.8678,-4.8707,-4.8707,-4.8564,-4.842,-4.842,-4.826,-4.8147,-4.8147,-4.8049,-4.8001,-4.8001,-4.8001,-4.8001,-4.8001,-4.8001,-4.8001,-4.8001,-4.7587,-4.7388,-4.7918,-4.757,-4.7222,-4.7222,-4.704,-4.6792,-4.6493,-4.6245,-4.6129,-4.6129,-4.6311,-4.6063,-4.5102,-4.5698,-4.6129,-4.6129,-4.6328,-4.6543,-4.6775,-4.7272,-4.7752,-4.8183,-4.8696,-4.9342,-5.0071,-5.0601,-5.1115,-5.1612,-5.1263,-5.1118,-4.8478,-4.9316,-4.9934,-5.0067,-4.8297,-4.6106,-4.4458,-4.2248,-4.0076,-3.8518,-3.8209,-3.8209,-3.8209,-3.8305,-3.8399,-3.8399,0.0,0.0,-4.2176,-4.4378,-4.6195,0.0,0.0,-4.9941,-5.0747,-5.227,-5.3185,-5.3185,-5.3185,0.0,-5.3185,-5.3185,-5.3185,-5.3185,-5.3185,-5.3185,-5.3185,-5.3185,-5.3124,-5.2999,-5.285,-5.2739,-5.259,-5.2531,-5.2498,-5.2498,-5.2498,-5.1817,-5.0724,-5.0697,-5.0022,-4.9001,-4.9001,-4.9001,-4.8917,-4.8173,-4.7445,-4.6802,-4.6786,-4.6802,-4.6921,-4.7682,-4.8195,-4.8515,-4.8515,-4.8356,-4.8195,-4.8195,-4.8115,-4.8001,-4.8001,-4.8001,-4.8001,-4.8001,-4.8001,-4.8001,-4.8001,-4.8001,-4.8001,-4.8001,-4.8001,-4.7984,-4.8001,-4.8001,-4.7984,-4.7984,-4.7371,-4.7156,-4.7885,-4.7338,-4.6891,-4.6891,-4.7537,-4.7388,-4.5897,-4.646,-4.6891,-4.6891,-4.757,-4.8299,-4.9044,-4.9077,-4.9756,-5.1249,-5.1265,-5.1647,-5.2393,-5.2393,-5.2393,-5.2373,-5.1508,-5.1118,-4.6985,-4.7383,-4.7582,-4.7645,-4.6232,-4.444,-4.2846,-4.1433,-4.0075,-3.8518,-3.8209,-3.8209,-3.8209,-3.8305,-3.8763,-3.9858,0.0,0.0,0.0,0.0,0.0,-4.7774,-5.038,-5.216,0.0,0.0,-5.3185,-5.3185,-5.3185,-5.3185,-5.3185,-5.3185,-5.3185,-5.3185,-5.3185,-5.3185,-5.3185,-5.3185,-5.3124,-5.2999,-5.285,-5.2739,-5.259,-5.2531,-5.2275,-5.1884,-5.1884,-5.1226,-5.017,-5.017,-4.9715,-4.9001,-4.9001,-4.9001,-4.8917,-4.8159,-4.7736,-4.7564,-4.7564,-4.7564,-4.7682,-4.8426,-4.8678,-4.8707,-4.8707,-4.8405,-4.8049,-4.8049,-4.8033,-4.8001,-4.8001,-4.8001,-4.8001,-4.8001,-4.8001,-4.8001,-4.8001,-4.8001,-4.8001,-4.8001,-4.8001,-4.8001,-4.8001,-4.8001,-4.8001,-4.8001,-4.7802,-4.7736,-4.7968,-4.7802,-4.7653,-4.7653,-4.7868,-4.7603,-4.6626,-4.7222,-4.7653,-4.7653,-4.7868,-4.8332,-4.9077,-4.9591,-5.0303,-5.1299,-5.1812,-5.2177,-5.2409,-5.2409,-5.2161,-5.1628,-5.1858,-5.1394,-4.4838,-4.5146,-4.52,-4.5526,-4.4168,-4.2556,-4.185,-4.0637,-3.9351,-3.8408,-3.8209,-3.8209,-3.8209,-3.8305,-3.8727,-3.973,-4.0575,0.0,0.0,0.0,0.0,-4.8563,0.0,0.0,0.0,-5.3023,-5.3185,-5.3185,-5.3185,-5.3185,-5.3185,-5.3185,-5.3185,-5.3143,-5.3185,-5.3185,-5.3143,-5.3124,-5.2934,-5.2545,-5.2454,-5.2232,-5.1886,-5.1848,-5.1626,-5.126,-5.126,-5.0733,0.0,-4.989,-4.9555,-4.9001,-4.9001,-4.9001,-4.8951,-4.8494,-4.8125,-4.7922,-4.824,-4.8125,-4.8007,-4.8765,-4.8846,-4.8658,-4.8612,-4.834,-4.8049,-4.8001,-4.8001,-4.8001,-4.8001,-4.8001,-4.8001,-4.8001,-4.8001,-4.8001,-4.8001,-4.8001,-4.8001,-4.8001,-4.8001,-4.8001,-4.8001,-4.8001,-4.8001,-4.8001,-4.8001,-4.8001,-4.8001,-4.8001,-4.8001,-4.8001,-4.8001,-4.7819,-4.7355,-4.7736,-4.8001,-4.8001,-4.8266,-4.8746,-4.9491,-5.022,-5.0949,-5.1713,-5.1912,-5.1995,-5.1995,-5.1694,-5.1462,-5.1315,-5.1779,-5.1595,0.0,-4.2666,-4.29,-4.3661,-4.2122,-4.0619,-4.1361,-3.9804,0.0,-3.8209,-3.8209,-3.8209,-3.8209,-3.8305,-3.8435,-3.8544,0.0,0.0,0.0,-4.4507,0.0,0.0,-5.0472,0.0,-5.1995,-5.2766,-5.3185,-5.3185,-5.3185,-5.3185,-5.3185,-5.3185,-5.3124,-5.2999,-5.3103,-5.3103,-5.2999,-5.2999,-5.259,-5.1799,-5.1799,-5.1396,-5.0697,-5.0697,-5.0697,-5.0643,-5.0643,-5.0331,-4.9832,-4.9832,-4.9496,-4.9001,-4.9001,-4.9001,-4.9001,-4.9001,-4.8578,-4.8075,-4.8765,-4.8562,-4.8075,-4.8781,-4.8767,-4.8483,-4.8292,-4.8195,-4.8163,-4.8033,-4.8001,-4.8001,-4.8001,-4.8001,-4.8001,-4.8001,-4.8001,-4.8001,-4.8001,-4.8001,-4.8001,-4.8001,-4.8001,-4.8001,-4.8001,-4.8001,-4.8001,-4.8001,-4.8001,-4.8001,-4.8001,-4.8001,-4.8001,-4.8001,-4.8001,-4.8001,-4.8001,-4.8001,-4.8001,-4.8001,-4.8647,-4.9359,-5.0104,-5.0767,-5.1498,-5.2208,-5.158,-5.1265,-5.1315,-5.0601,-5.0634,-5.1315,-5.1365,-5.1694,-3.9205,0.0,-4.1126,-4.1307,-4.051,-3.9713,0.0,-3.9025,-3.8209,-3.8209,-3.8209,-3.8209,-3.8209,-3.8305,-3.88,-4.004,0.0,0.0,-4.3185,0.0,0.0,-5.1153,-5.2142,-5.2711,-5.2913,-5.3096,-5.3185,-5.3185,-5.3185,-5.3185,-5.3185,-5.3103,-5.302,-5.2999,-5.2934,-5.289,-5.285,-5.285,-5.2499,-5.1799,-5.1799,-5.1396,-5.0697,-5.0697,-5.0497,-5.0085,-5.0085,-4.9756,-4.9199,-4.9199,-4.9138,-4.9001,-4.9001,-4.9001,-4.9001,-4.9001,-4.89,-4.8781,-4.8951,-4.89,-4.8781,-4.8951,-4.8894,-4.8707,-4.8483,-4.8244,-4.8033,-4.8001,-4.8001,-4.8001,-4.8001,-4.8001,-4.8001,-4.8001,-4.8001,-4.8001,-4.8001,-4.8001,-4.8001,-4.8001,-4.8001,-4.8001,-4.8001,-4.8001,-4.8001,-4.8001,-4.8001,-4.8001,-4.8001,-4.8001,-4.8001,-4.8001,-4.8001,-4.8001,-4.8001,-4.8001,-4.8001,-4.8001,-4.8166,-4.8597,-4.9342,-4.9525,-4.9972,-5.0701,-5.0551,-5.0734,-5.1315,-5.1149,-5.1149,-5.1315,-5.1895,-5.1556,-3.8209,-3.9079,-4.0003,-4.0003,-3.9695,-3.9387,-3.9387,-3.8788,-3.8209,0.0,0.0,0.0,0.0,0.0,0.0,0.0,-4.1437,0.0,0.0,0.0,-5.0215,-5.2307,-5.2931,-5.3185,0.0,-5.3185,-5.3185,-5.3185,-5.3185,-5.3185,-5.3185,-5.3063,-5.2977,-5.2893,-5.2783,-5.2698,-5.2698,-5.2698,-5.2366,-5.1701,-5.1439,-5.0955,-5.0304,-5.0039,-4.9756,-4.9483,-4.9483,-4.9303,-4.9001,-4.9001,-4.9001,-4.9001,-4.9001,-4.9001,-4.9001,-4.9001,-4.9001,-4.9001,-4.9001,-4.9001,-4.9001,-4.9001,-4.8925,-4.8786,-4.8658,-4.8373,-4.8082,-4.8001,-4.8001,-4.8001,-4.8001,-4.8001,-4.8001,-4.8001,-4.8001,-4.8001,-4.8001,-4.8001,-4.8001,-4.8001,-4.8001,-4.8001,-4.8001,-4.8001,-4.8001,-4.8001,-4.8001,-4.8001,-4.8001,-4.8001,-4.8001,-4.8001,-4.8001,-4.8001,-4.8001,-4.8001,-4.8001,-4.8001,-4.8315,-4.8696,-4.9094,-4.974,-5.0303,-5.0701,-5.0701,-5.0734,-5.0783,-5.0783,-5.0949,-5.1315,-5.173,-5.1597,-3.8354,-3.8952,-3.9514,-3.9278,-3.9297,-3.9369,-3.9242,0.0,0.0,0.0,0.0,0.0,0.0,-3.8548,0.0,0.0,0.0,0.0,-4.8213,-4.9976,-5.1408,-5.3002,-5.3185,0.0,-5.3185,-5.3185,-5.3185,-5.3185,-5.3185,-5.3185,-5.3164,-5.3042,-5.2912,-5.2783,-5.2654,-5.2586,-5.2586,-5.2586,-5.2203,-5.1475,-5.0938,-5.0359,-4.9762,-4.9212,-4.9001,-4.9001,-4.9001,-4.9001,-4.9001,-4.9001,-4.9001,-4.9001,-4.9001,-4.9001,-4.9001,-4.9001,-4.9001,-4.9001,-4.9001,-4.9001,-4.9001,-4.8987,-4.8863,-4.8738,-4.8707,-4.8468,-4.8147,-4.8033,-4.8001,-4.8001,-4.8001,-4.8001,-4.8001,-4.8001,-4.8001,-4.8001,-4.8001,-4.8001,-4.8001,-4.8001,-4.8001,-4.8001,-4.8001,-4.8001,-4.8001,-4.8001,-4.8001,-4.8001,-4.8001,-4.8001,-4.8001,-4.8001,-4.81,-4.8166,-4.8166,-4.8266,-4.8349,-4.8349,-4.8829,-4.916,-4.9276,-5.0469,-5.1149,-5.1149,-5.1149,-5.0866,-5.0369,-5.0369,-5.075,-5.1481,-5.1481,-5.1812,-3.9025,-3.9767,-4.0021,-3.8699,-3.8915,-3.9206,-3.8553,0.0,0.0,0.0,0.0,0.0,0.0,-3.9869,-4.0899,0.0,0.0,-4.7406,0.0,0.0,-5.1408,-5.3002,0.0,-5.3185,-5.3185,-5.3185,-5.3185,-5.3185,-5.3185,-5.3164,-5.3042,-5.2893,-5.2783,-5.2635,-5.2554,-5.2503,-5.2503,-5.2503,-5.1939,-5.0832,-5.0751,-5.0135,-4.9138,-4.9032,-4.9001,-4.9001,-4.9001,-4.9001,-4.9001,-4.9001,-4.9001,-4.9001,-4.9001,-4.9001,-4.9001,-4.9001,-4.9001,-4.9001,-4.9001,-4.9001,-4.897,-4.8863,-4.869,-4.8515,-4.8324,-4.8179,-4.8033,-4.8001,-4.8001,-4.8001,-4.8001,-4.8001,-4.8001,-4.8001,-4.8001,-4.8001,-4.8001,-4.8001,-4.8001,-4.8001,-4.8001,-4.8001,-4.8001,-4.8001,-4.8001,-4.8001,-4.8001,-4.8001,-4.8001,-4.8001,-4.8001,-4.8001,-4.8564,-4.8945,-4.8945,-4.9508,-4.9872,-4.9872,-4.9392,-4.9392,-5.0021,-5.0253,-5.0369,-5.0369,-5.0369,-5.0618,-5.1149,-5.1149,-5.1531,-5.2243,-5.2243,-5.231,-3.8662,-3.9315,-3.984,-3.9514,-4.0057,-4.0564,-4.0184,-3.9749,0.0,0.0,0.0,0.0,0.0,0.0,-4.2723,-4.4819,0.0,-4.9132,-5.1077,-5.1408,-5.1885,0.0,0.0,-5.3185,-5.3185,-5.3185,-5.3185,-5.3185,-5.3185,-5.3185,-5.3103,-5.2912,-5.2761,-5.2698,-5.2554,-5.2498,-5.2498,-5.2498,-5.2048,-5.1183,-5.0858,-5.0276,-4.9483,-4.9138,-4.9001,-4.9001,-4.9001,-4.9001,-4.9001,-4.9001,-4.9001,-4.9001,-4.9001,-4.9001,-4.9001,-4.9001,-4.9001,-4.9001,-4.9001,-4.9001,-4.897,-4.8832,-4.8738,-4.8627,-4.842,-4.8227,-4.8115,-4.8115,-4.8066,-4.8001,-4.8001,-4.8001,-4.8001,-4.8001,-4.8001,-4.8001,-4.8001,-4.8001,-4.8001,-4.8001,-4.8001,-4.8001,-4.8001,-4.8001,-4.815,-4.8531,-4.8597,-4.8746,-4.9144,-4.9193,-4.9193,-4.9193,-4.9508,-4.9707,-4.9707,-5.0021,-5.022,-5.022,-4.9889,-5.0038,-5.075,-5.0783,-5.0966,-5.138,-5.138,-5.1545,-5.1912,-5.1912,-5.2078,-5.2409,-5.2409,-5.2409,-3.839,-3.879,-3.9333,-4.0257,0.0,-4.1343,-4.2085,-4.1488,0.0,0.0,0.0,0.0,0.0,-4.2977,0.0,-4.7358,-4.9253,-5.0655,-5.1279,-5.1885,-5.2509,-5.3133,-5.3185,-5.3185,-5.3185,-5.3185,-5.3185,-5.3185,-5.3185,-5.3164,-5.3103,-5.2912,-5.2761,-5.2735,-5.2572,-5.2498,-5.2498,-5.2498,-5.2204,-5.1576,-5.1113,-5.0607,-5.0056,-4.9466,-4.9199,-4.9199,-4.9063,-4.9001,-4.9001,-4.9001,-4.9001,-4.9001,-4.9001,-4.9001,-4.9001,-4.9001,-4.9001,-4.9001,-4.9001,-4.9001,-4.897,-4.8832,-4.8769,-4.8707,-4.8483,-4.8292,-4.813,-4.813,-4.8082,-4.8001,-4.8001,-4.8001,-4.8001,-4.8001,-4.8001,-4.8001,-4.8001,-4.8001,-4.8001,-4.8001,-4.8001,-4.805,-4.8233,-4.8266,-4.8514,-4.926,-4.9375,-4.9574,-5.0137,-5.022,-5.022,-5.022,-5.0353,-5.0535,-5.0701,-5.0717,-5.0717,-5.0717,-5.0551,-5.0783,-5.1547,-5.1564,-5.1829,-5.2409,-5.2409,-5.2409,-5.2409,-5.2409,-5.2409,-5.2409,-5.2409,-5.2409,-3.8915,-3.8825,-3.8627,-4.013,-4.0039,0.0,-4.3262,-4.2737,0.0,-4.4649,0.0,0.0,0.0,-4.6154,-4.8427,-5.023,-5.1883,-5.2947,-5.3023,0.0,-5.3151,-5.3185,-5.3185,-5.3185,-5.3185,-5.3185,-5.3185,-5.3185,-5.3185,-5.3082,-5.2846,-5.2806,-5.2712,-5.2544,-5.2521,-5.2498,-5.2498,-5.2498,-5.2204,-5.1601,-5.1551,-5.1209,-5.0616,-5.0085,-4.9832,-4.9803,-4.9243,-4.9001,-4.9001,-4.9001,-4.9001,-4.9001,-4.9001,-4.9001,-4.9001,-4.9001,-4.9001,-4.9001,-4.9001,-4.9001,-4.897,-4.8832,-4.8658,-4.8483,-4.8292,-4.8115,-4.8001,-4.8001,-4.8001,-4.8001,-4.8001,-4.8001,-4.8001,-4.8001,-4.8001,-4.8001,-4.8001,-4.8001,-4.8001,-4.8001,-4.8001,-4.8216,-4.8912,-4.9028,-4.9276,-5.0021,-5.0137,-5.0154,-5.0204,-5.022,-5.022,-5.022,-5.08,-5.1514,-5.2158,-5.2224,-5.2224,-5.2224,-5.1614,-5.1564,-5.231,-5.2343,-5.2359,-5.2409,-5.2409,-5.2409,-5.2409,-5.2409,-5.2409,-5.2409,-5.2409,-5.2409,-3.7738,-3.8064,-3.8554,-4.0111,-4.0655,0.0,0.0,-4.4081,-4.463,-4.6595,-4.6488,0.0,0.0,0.0,-4.9488,-5.1138,-5.2409,-5.3185,-5.3185,-5.3185,-5.3185,-5.3185,-5.3185,-5.3185,-5.3185,-5.3185,-5.3185,-5.3185,-5.3124,-5.302,-5.2934,-5.2783,-5.2631,-5.2559,-5.2526,-5.2498,-5.2498,-5.2498,-5.2387,-5.2162,-5.1768,-5.1286,-5.068,-5.0497,-5.0209,-4.989,-4.9674,-4.9333,-4.9001,-4.9001,-4.9001,-4.9001,-4.9001,-4.9001,-4.9001,-4.9001,-4.9001,-4.9001,-4.9001,-4.9001,-4.897,-4.8832,-4.8738,-4.8627,-4.8452,-4.826,-4.8115,-4.8115,-4.8049,-4.8001,-4.8001,-4.8001,-4.8001,-4.8001,-4.8001,-4.8001,-4.8001,-4.8001,-4.8001,-4.8001,-4.8001,-4.8233,-4.8978,-4.911,-4.9508,-5.0684,-5.0866,-5.1048,-5.1496,-5.1562,-5.1562,-5.1562,-5.1829,-5.2111,-5.2393,-5.2409,-5.2409,-5.2409,-5.2161,-5.2127,-5.2409,-5.2409,-5.2409,-5.2409,-5.2409,-5.2409,-5.2409,-5.2409,-5.2409,-5.2409,-5.2409,-5.2409,-3.6995,-3.7393,-3.8209,-3.9767,0.0,0.0,-4.4385,-4.5571,-4.6797,-4.865,-4.8717,-4.8525,-4.8755,0.0,0.0,0.0,-5.2446,-5.3185,-5.3185,-5.3185,-5.3185,-5.3185,-5.3185,-5.3185,-5.3185,-5.3164,-5.3143,-5.3143,-5.3002,-5.2919,-5.2872,-5.2702,-5.259,-5.2581,-5.2327,-5.2228,-5.2228,-5.2024,-5.2024,-5.2209,-5.1601,-5.1286,-5.126,-5.0885,-5.0497,-5.0142,-4.9774,-4.9394,-4.9001,-4.9001,-4.8866,-4.8663,-4.8663,-4.8663,-4.8697,-4.8917,-4.9001,-4.9001,-4.9001,-4.9001,-4.897,-4.8894,-4.8832,-4.8769,-4.8627,-4.8452,-4.8292,-4.8227,-4.813,-4.8049,-4.8001,-4.8001,-4.8001,-4.8001,-4.8001,-4.8001,-4.8001,-4.8001,-4.8001,-4.8001,-4.8199,-4.858,-4.9326,-4.9641,-5.0204,-5.1481,-5.1663,-5.1846,-5.2359,-5.2409,-5.2409,-5.2409,-5.2409,-5.2409,-5.2409,-5.2409,-5.2409,-5.2409,-5.2409,-5.2409,-5.2409,-5.2409,-5.2409,-5.2409,-5.2409,-5.2409,-5.2409,-5.2409,-5.2409,-5.2409,-5.2409,-5.2409,-3.6995,-3.6995,-3.7393,0.0,0.0,0.0,-4.578,-4.7241,-4.8595,-5.1009,-5.0399,-4.9135,-4.8212,-4.8904,0.0,-5.0674,-5.216,-5.3185,-5.3185,-5.3185,-5.3185,-5.3185,-5.3185,-5.3185,-5.3185,-5.3082,-5.2999,-5.2999,-5.2882,-5.2755,-5.2613,-5.2595,-5.2568,-5.2498,-5.1909,-5.1619,-5.1619,-5.1008,-5.1008,-5.1601,-5.1008,-5.1337,-5.2434,-5.126,-5.0697,-5.0643,-4.9509,-4.9001,-4.9001,-4.9001,-4.8562,-4.7872,-4.7872,-4.7889,-4.7973,-4.8731,-4.9001,-4.9001,-4.9001,-4.9001,-4.9001,-4.9001,-4.8925,-4.8818,-4.8818,-4.8658,-4.8452,-4.826,-4.8195,-4.8163,-4.8033,-4.8001,-4.8001,-4.8001,-4.8001,-4.8001,-4.8001,-4.8001,-4.8001,-4.8001,-4.8597,-4.9342,-5.0088,-5.08,-5.1564,-5.231,-5.2409,-5.2409,-5.2409,-5.2409,-5.2409,-5.2409,-5.2409,-5.2409,-5.2409,-5.2409,-5.2409,-5.2409,-5.2409,-5.2409,-5.2409,-5.2409,-5.2409,-5.2409,-5.2409,-5.2409,-5.2409,-5.2409,-5.2409,-5.2409,-5.2409,-5.2409,-3.6309,-3.6979,0.0,-3.9786,0.0,0.0,0.0,-4.812,0.0,0.0,-5.1721,-5.0963,-5.0602,-5.0952,0.0,-5.161,-5.2527,-5.3185,-5.3185,-5.3185,-5.3185,-5.3185,-5.3185,-5.3164,-5.3082,-5.302,-5.2955,-5.2868,-5.2743,-5.264,-5.259,-5.2559,-5.2526,-5.2498,-5.234,-5.2233,-5.2233,-5.2048,-5.2048,-5.2228,-5.1626,-5.1525,-5.1835,-5.1061,-5.048,-5.0113,-4.9774,-4.9394,-4.8968,-4.8443,-4.78,-4.7124,-4.7124,-4.7445,-4.7922,-4.8156,-4.8562,-4.9001,-4.9001,-4.9001,-4.9001,-4.9001,-4.897,-4.8956,-4.8956,-4.8832,-4.8675,-4.8452,-4.8324,-4.8163,-4.8033,-4.8001,-4.8001,-4.8001,-4.8001,-4.8001,-4.8001,-4.8001,-4.8001,-4.8001,-4.8597,-4.9342,-5.0088,-5.08,-5.1564,-5.231,-5.2409,-5.2409,-5.2409,-5.2409,-5.2409,-5.2409,-5.2409,-5.2409,-5.2409,-5.2409,-5.2409,-5.2409,-5.2409,-5.2409,-5.2409,-5.2409,-5.2409,-5.2409,-5.2409,-5.2409,-5.2409,-5.2409,-5.2409,-5.2409,-5.2409,-5.2409,-3.6798,-3.7902,0.0,-4.147,-4.424,-4.6975,-4.8814,0.0,0.0,0.0,-5.2211,-5.1706,-5.1667,-5.1852,0.0,-5.1995,-5.2674,-5.3185,-5.3185,-5.3185,-5.3185,-5.3143,-5.3124,-5.3082,-5.2915,-5.2872,-5.2806,-5.2739,-5.2627,-5.2559,-5.2559,-5.2526,-5.2498,-5.2498,-5.2275,-5.2024,-5.1793,-5.1569,-5.1467,-5.1467,-5.0858,-5.0678,-5.0911,-5.057,-5.0226,-4.989,-4.9644,-4.9163,-4.8528,-4.7784,-4.7039,-4.6363,-4.6363,-4.6633,-4.7094,-4.7669,-4.8189,-4.8612,-4.89,-4.9001,-4.9001,-4.9001,-4.9001,-4.9001,-4.9001,-4.894,-4.8832,-4.8578,-4.842,-4.826,-4.8066,-4.8001,-4.8001,-4.8001,-4.8001,-4.8001,-4.8001,-4.8001,-4.8001,-4.8001,-4.8845,-4.969,-5.0137,-5.1048,-5.1895,-5.2307,-5.2409,-5.2409,-5.2409,-5.2409,-5.2409,-5.2409,-5.2409,-5.2409,-5.2409,-5.2409,-5.2409,-5.2409,-5.2409,-5.2409,-5.2409,-5.2409,-5.2409,-5.2409,-5.2409,-5.2409,-5.2409,-5.2409,-5.2409,-5.2409,-5.2409,-5.2409,-3.81,-3.9423,0.0,-4.3697,-4.5635,0.0,-5.0875,-5.1502,-5.1661,-5.2593,0.0,-5.1733,-5.1877,-5.2004,-5.2105,-5.2105,-5.2729,-5.3185,-5.3185,-5.3185,-5.3124,-5.2999,-5.2977,-5.2915,-5.2783,-5.2676,-5.259,-5.259,-5.2531,-5.2498,-5.2498,-5.2498,-5.2498,-5.2498,-5.1909,-5.1355,-5.0858,-5.0265,-4.9988,-5.0045,-4.9394,-4.9364,-4.989,-4.9832,-4.9832,-4.9774,-4.926,-4.8545,-4.7767,-4.7073,-4.6329,-4.5602,-4.5602,-4.5652,-4.5872,-4.7225,-4.777,-4.799,-4.868,-4.8951,-4.9001,-4.9001,-4.9001,-4.9001,-4.9001,-4.9001,-4.894,-4.861,-4.8515,-4.842,-4.8082,-4.8001,-4.8001,-4.8001,-4.8001,-4.8001,-4.8001,-4.8001,-4.8001,-4.8001,-4.9193,-5.022,-5.022,-5.1413,-5.2409,-5.2409,-5.2409,-5.2409,-5.2409,-5.2409,-5.2409,-5.2409,-5.2409,-5.2409,-5.2409,-5.2409,-5.2409,-5.2409,-5.2409,-5.2409,-5.2409,-5.2409,-5.2409,-5.2409,-5.2409,-5.2409,-5.2409,-5.2409,-5.2409,-5.2409,-5.2409,-5.2409,-3.8933,-4.0274,0.0,0.0,-4.8134,-5.0615,-5.1982,-5.2268,-5.2327,-5.2595,-5.2593,-5.255,-5.2572,-5.2782,-5.2949,-5.2949,-5.3096,-5.3164,-5.306,-5.3042,-5.2999,-5.285,-5.2828,-5.2783,-5.2654,-5.2631,-5.2586,-5.2526,-5.2521,-5.2498,-5.2498,-5.2498,-5.2498,-5.2498,-5.1909,-5.1768,-5.2096,-5.1078,-5.0769,-5.1226,-5.0215,-4.9774,-4.989,-4.9424,-4.9199,-4.9199,-4.9063,-4.8257,-4.7022,-4.6853,-4.6007,-4.4852,-4.4852,-4.5179,-4.5737,-4.6075,-4.6921,-4.7906,-4.8075,-4.8528,-4.9001,-4.9001,-4.9001,-4.9001,-4.9001,-4.9001,-4.897,-4.8801,-4.8627,-4.8452,-4.8227,-4.8082,-4.8001,-4.8001,-4.8001,-4.8001,-4.8001,-4.8001,-4.8001,-4.8001,-4.9193,-5.022,-5.022,-5.1413,-5.2409,-5.2409,-5.2409,-5.2409,-5.2409,-5.2409,-5.2409,-5.2409,-5.2409,-5.2409,-5.2409,-5.2409,-5.2409,-5.2409,-5.2409,-5.2409,-5.2409,-5.2409,-5.2409,-5.2409,-5.2409,-5.2409,-5.2409,-5.2409,-5.2409,-5.2409,-5.2409,-5.2409,-3.9405,0.0,0.0,-4.7228,0.0,-5.1973,-5.2389,-5.2498,-5.2503,-5.2554,-5.2672,-5.2846,-5.2955,-5.3121,-5.3185,-5.3185,-5.3185,-5.3146,-5.302,-5.2999,-5.2915,-5.2739,-5.2698,-5.2654,-5.2559,-5.2536,-5.2531,-5.2498,-5.2498,-5.2498,-5.2498,-5.2498,-5.2498,-5.2498,-5.2186,-5.1909,-5.1651,-5.1286,-5.0867,-5.0366,-5.0045,-4.9744,-4.9466,-4.9138,-4.9001,-4.9001,-4.9001,-4.8156,-4.6786,-4.6786,-4.5923,-4.4615,-4.4615,-4.4852,-4.5213,-4.5568,-4.6413,-4.7428,-4.78,-4.8392,-4.9001,-4.9001,-4.9001,-4.9001,-4.9001,-4.9001,-4.9032,-4.9135,-4.8858,-4.853,-4.8623,-4.8307,-4.8001,-4.8001,-4.8001,-4.8001,-4.8001,-4.8001,-4.81,-4.8465,-4.9442,-5.032,-5.0667,-5.1645,-5.2409,-5.2409,-5.2409,-5.2409,-5.2409,-5.2409,-5.2409,-5.2409,-5.2409,-5.2409,-5.2409,-5.2409,-5.2409,-5.2409,-5.2409,-5.2409,-5.2409,-5.2409,-5.2409,-5.2409,-5.2409,-5.2409,-5.2409,-5.2409,-5.2409,-5.2409,-5.2409,-5.2556,-3.9515,0.0,-4.4747,-4.9043,-5.1303,0.0,-5.2498,-5.2498,-5.2498,-5.2503,-5.2667,-5.2868,-5.3082,-5.3164,-5.3185,-5.3185,-5.3185,-5.3146,-5.302,-5.2977,-5.2872,-5.2613,-5.2586,-5.2559,-5.2521,-5.2498,-5.2498,-5.2498,-5.2498,-5.2498,-5.2498,-5.2498,-5.2498,-5.2498,-5.241,-5.1933,-5.1034,-5.1226,-5.0696,-4.9436,-4.9744,-4.9644,-4.9168,-4.9168,-4.9077,-4.9001,-4.9001,-4.8156,-4.6786,-4.6786,-4.5923,-4.4615,-4.4615,-4.4615,-4.4682,-4.528,-4.5974,-4.6718,-4.7462,-4.8206,-4.8832,-4.8968,-4.9001,-4.9032,-4.9107,-4.9077,-4.9107,-4.9534,-4.9101,-4.8593,-4.89,-4.8513,-4.8001,-4.8001,-4.8001,-4.8001,-4.8001,-4.81,-4.8382,-4.8978,-4.9806,-5.0618,-5.1382,-5.2011,-5.2409,-5.2409,-5.2409,-5.2409,-5.2409,-5.2409,-5.2409,-5.2409,-5.2409,-5.2409,-5.2409,-5.2409,-5.2409,-5.2409,-5.2409,-5.2409,-5.2409,-5.2409,-5.2409,-5.2409,-5.2409,-5.2409,-5.2409,-5.2409,-5.2409,-5.2409,-5.2409,-5.279,0.0,0.0,-4.7554,0.0,-5.1303,-5.2498,0.0,0.0,-5.2503,0.0,-5.2717,-5.2806,-5.2846,-5.3039,-5.3185,-5.3185,-5.3185,-5.3146,-5.302,-5.2893,-5.2783,-5.2613,-5.2554,-5.2503,-5.2498,-5.2498,-5.2498,-5.2498,-5.2498,-5.2498,-5.2498,-5.2498,-5.2498,-5.2498,-5.2,-5.1884,-5.2275,-5.0831,-5.0505,-5.1226,-5.031,-4.9861,-4.9774,-4.9774,-4.9496,-4.9001,-4.9001,-4.8156,-4.6786,-4.6786,-4.5923,-4.4615,-4.4615,-4.4615,-4.4615,-4.4716,-4.5196,-4.5957,-4.6684,-4.7428,-4.8142,-4.8798,-4.9001,-4.9077,-4.9615,-4.9406,-4.9107,-4.9686,-4.9209,-4.8515,-4.8562,-4.8292,-4.8001,-4.8001,-4.8001,-4.8001,-4.8001,-4.8514,-4.8995,-4.9094,-5.0204,-5.1398,-5.2144,-5.2307,-5.2409,-5.2409,-5.2409,-5.2409,-5.2409,-5.2409,-5.2409,-5.2409,-5.2409,-5.2409,-5.2409,-5.2409,-5.2409,-5.2409,-5.2409,-5.2409,-5.2409,-5.2409,-5.2409,-5.2409,-5.2409,-5.2409,-5.2409,-5.2409,-5.2409,-5.2409,-5.2535,-5.2971,-3.9767,-4.3788,-4.7518,0.0,-5.0637,-5.1375,-5.2281,0.0,-5.196,-5.244,-5.2627,-5.2721,-5.2872,-5.2999,-5.3103,-5.3185,-5.3185,-5.3146,-5.302,-5.2872,-5.2761,-5.2631,-5.2531,-5.2498,-5.2498,-5.2498,-5.2498,-5.2498,-5.2498,-5.2498,-5.2498,-5.2498,-5.2498,-5.2498,-5.2233,-5.2072,-5.2,-5.1569,-5.1424,-5.1576,-5.076,-5.0331,-5.0331,-5.0331,-4.9855,-4.9032,-4.9669,-4.9009,-4.7424,-4.7295,-4.6453,-4.5179,-4.4767,-4.4615,-4.4615,-4.4615,-4.506,-4.5754,-4.6075,-4.6955,-4.7939,-4.8261,-4.8889,-4.9555,-4.9832,-4.9913,-5.0067,-5.0678,-4.9953,-4.907,-4.9381,-4.8731,-4.8001,-4.8001,-4.8001,-4.8117,-4.8531,-4.8879,-4.9342,-5.0154,-5.1181,-5.2028,-5.2359,-5.2409,-5.2409,-5.2409,-5.2409,-5.2409,-5.2409,-5.2409,-5.2409,-5.2409,-5.2409,-5.2409,-5.2409,-5.2409,-5.2409,-5.2409,-5.2409,-5.2409,-5.2409,-5.2409,-5.2409,-5.2409,-5.2409,-5.2409,-5.2409,-5.2409,-5.2409,-5.2409,-5.2535,-5.3204,0.0,0.0,-4.616,-4.8568,-4.9659,-5.042,0.0,0.0,-5.1719,0.0,-5.2386,-5.2631,-5.285,-5.2915,-5.2977,-5.3082,-5.31,-5.306,-5.2955,-5.2828,-5.2698,-5.2613,-5.2531,-5.2498,-5.2498,-5.2498,-5.2498,-5.2498,-5.2498,-5.2498,-5.2498,-5.2498,-5.2498,-5.2498,-5.2498,-5.2275,-5.1835,-5.2275,-5.2204,-5.1576,-5.1139,-5.0929,-5.0929,-5.0929,-5.0387,-4.9479,-5.0314,-4.9785,-4.8304,-4.818,-4.7238,-4.583,-4.5297,-4.489,-4.4615,-4.4615,-4.4942,-4.5478,-4.579,-4.6748,-4.7882,-4.8187,-4.9125,-5.0142,-5.03,-5.0497,-5.0805,-5.1235,-5.0442,-4.9504,-4.9775,-4.8992,-4.8115,-4.8049,-4.8199,-4.853,-4.9226,-4.9541,-5.0038,-5.1348,-5.2028,-5.2409,-5.2409,-5.2409,-5.2409,-5.2409,-5.2409,-5.2409,-5.2409,-5.2409,-5.2409,-5.2409,-5.2409,-5.2409,-5.2409,-5.2409,-5.2409,-5.2409,-5.2409,-5.2409,-5.2409,-5.2409,-5.2409,-5.2409,-5.2409,-5.2409,-5.2409,-5.2409,-5.2409,-5.2445,-5.2605,-5.3378,0.0,-4.127,0.0,-4.6087,-4.8405,0.0,0.0,0.0,-5.2226,-5.1502,-5.1978,-5.2526,-5.2608,-5.2721,-5.2806,-5.2806,-5.2806,-5.2806,-5.2806,-5.2698,-5.2613,-5.259,-5.2531,-5.2498,-5.2498,-5.2498,-5.2498,-5.2498,-5.2498,-5.2498,-5.2498,-5.2498,-5.2498,-5.2498,-5.2498,-5.2498,-5.2457,-5.2498,-5.2204,-5.1601,-5.1576,-5.1551,-5.1551,-5.1551,-5.1209,-5.0599,-5.0653,-5.0259,-4.9504,-4.9495,-4.8311,-4.6441,-4.6406,-4.5668,-4.4615,-4.4615,-4.4632,-4.4834,-4.6042,-4.6955,-4.7817,-4.9036,-4.9976,-5.0778,-5.1329,-5.1131,-5.0724,-5.0751,-5.0202,-4.9487,-4.8984,-4.869,-4.842,-4.8227,-4.8711,-4.9393,-5.0022,-5.0684,-5.1431,-5.221,-5.2393,-5.2409,-5.2409,-5.2409,-5.2409,-5.2409,-5.2409,-5.2409,-5.2409,-5.2409,-5.2409,-5.2409,-5.2409,-5.2409,-5.2409,-5.2409,-5.2409,-5.2409,-5.2409,-5.2409,-5.2409,-5.2409,-5.2409,-5.2409,-5.2409,-5.2409,-5.2409,-5.2409,-5.248,-5.2589,-5.2799,-5.3391,0.0,0.0,0.0,-4.4367,-4.5997,-4.7554,-4.9641,-5.0144,-5.0397,-5.114,-5.152,-5.1742,-5.1769,-5.2241,-5.2698,-5.2783,-5.2806,-5.2806,-5.2806,-5.2676,-5.259,-5.259,-5.2531,-5.2498,-5.2498,-5.2498,-5.2498,-5.2498,-5.2498,-5.2498,-5.2498,-5.2498,-5.2498,-5.2498,-5.2498,-5.2498,-5.2498,-5.2498,-5.2387,-5.2186,-5.2186,-5.2186,-5.2186,-5.2186,-5.2048,-5.1842,-5.1842,-5.1272,-5.0259,-4.9652,-4.8555,-4.7116,-4.6123,-4.5275,-4.4626,-4.4944,-4.5062,-4.5177,-4.5987,-4.7056,-4.819,-4.8653,-4.9915,-5.1329,-5.1525,-5.1719,-5.1768,-5.1381,-5.0742,-5.005,-4.9474,-4.892,-4.8569,-4.8826,-4.9843,-5.0741,-5.0868,-5.1498,-5.2094,-5.2359,-5.2409,-5.2409,-5.2409,-5.2409,-5.226,-5.1779,-5.2111,-5.2243,-5.1763,-5.2127,-5.2409,-5.2409,-5.2409,-5.2409,-5.2409,-5.2409,-5.2409,-5.2409,-5.2409,-5.2409,-5.2409,-5.2409,-5.2409,-5.2409,-5.2409,-5.2409,-5.2409,-5.2409,-5.2409,-5.248,-5.264,-5.32,-3.6109,0.0,0.0,0.0,0.0,-4.5019,-4.8496,0.0,-4.918,-5.0271,-5.0923,-5.1212,-5.0963,-5.1352,-5.1968,-5.2599,-5.269,-5.269,-5.269,-5.2627,-5.2581,-5.2581,-5.2526,-5.2389,-5.2118,-5.2113,-5.1981,-5.1701,-5.1697,-5.1697,-5.1683,-5.1683,-5.181,-5.2082,-5.21,-5.2226,-5.2498,-5.2498,-5.2498,-5.2498,-5.2498,-5.2498,-5.2498,-5.2498,-5.2498,-5.2498,-5.2498,-5.2048,-5.1231,-5.0337,-4.9266,-4.8041,-4.6741,-4.578,-4.5159,-4.5433,-4.5588,-4.57,-4.6488,-4.7618,-4.8781,-4.9238,-5.053,-5.1884,-5.1884,-5.2186,-5.2322,-5.1508,-5.0947,-5.0442,-4.9867,-4.9543,-4.9461,-4.969,-5.0744,-5.1678,-5.1684,-5.2061,-5.2409,-5.2409,-5.2409,-5.2409,-5.2409,-5.2409,-5.2243,-5.1746,-5.2111,-5.2243,-5.1746,-5.2111,-5.2409,-5.2409,-5.2409,-5.2409,-5.2409,-5.2409,-5.2409,-5.2409,-5.2409,-5.2409,-5.2409,-5.2409,-5.2409,-5.2409,-5.2409,-5.2409,-5.2409,-5.2409,-5.2445,-5.257,-5.2676,-5.3101,0.0,0.0,0.0,0.0,0.0,0.0,-4.6646,0.0,-4.8728,-4.8873,-5.0126,-5.0981,-5.0257,-5.013,-5.0655,-5.2172,-5.2426,-5.2426,-5.2426,-5.2426,-5.2426,-5.2426,-5.2426,-5.2118,-5.1339,-5.1266,-5.0936,-5.0162,-5.0095,-5.0091,-5.009,-5.0112,-5.0474,-5.123,-5.1249,-5.1629,-5.2426,-5.2444,-5.2462,-5.2462,-5.248,-5.2498,-5.2498,-5.2498,-5.2498,-5.2498,-5.2498,-5.248,-5.2389,-5.1593,-5.0474,-4.9168,-4.8377,-4.7263,-4.6098,-4.6123,-4.614,-4.6354,-4.7678,-4.8668,-4.9573,-5.0877,-5.1828,-5.2498,-5.2498,-5.2498,-5.2233,-5.1061,-5.0724,-5.0589,-5.0062,-5.0576,-5.1154,-5.0838,-5.1396,-5.2101,-5.235,-5.2426,-5.2409,-5.2409,-5.2409,-5.2409,-5.2409,-5.2409,-5.2373,-5.2393,-5.2409,-5.2409,-5.2393,-5.2409,-5.2409,-5.2409,-5.2409,-5.2409,-5.2409,-5.2409,-5.2409,-5.2409,-5.2409,-5.2409,-5.2426,-5.2426,-5.2409,-5.2409,-5.2409,-5.2409,-5.2409,-5.2409,-5.257,-5.2903,-5.2903,-5.3109,-3.4645,0.0,0.0,0.0,0.0,0.0,0.0,0.0,-4.4673,-4.8167,-4.8804,-4.8985,-4.9949,-5.0583,-5.0927,-5.0778,-5.0741,-5.0741,-5.0741,-5.0741,-5.0741,-5.0741,-5.0741,-5.0691,-5.0456,-5.042,-5.0351,-5.013,-5.0097,-5.0097,-5.0112,-5.0112,-5.0202,-5.0416,-5.0438,-5.0546,-5.0741,-5.1339,-5.1629,-5.1629,-5.2208,-5.2498,-5.2498,-5.2498,-5.2498,-5.2498,-5.2498,-5.2172,-5.1556,-5.0741,-4.964,-4.8359,-4.7551,-4.6785,-4.6165,-4.6543,-4.7056,-4.7666,-4.8434,-4.9582,-5.08,-5.119,-5.1828,-5.2498,-5.2498,-5.2498,-5.2322,-5.1576,-5.1355,-5.1246,-5.0807,-5.1269,-5.1829,-5.1712,-5.2303,-5.2807,-5.259,-5.2535,-5.2499,-5.2409,-5.2409,-5.2409,-5.2409,-5.2409,-5.2227,-5.1696,-5.2078,-5.2227,-5.168,-5.2078,-5.2409,-5.2409,-5.2409,-5.2409,-5.2409,-5.2409,-5.2409,-5.2409,-5.2409,-5.2445,-5.2535,-5.2535,-5.2605,-5.2781,-5.2781,-5.2781,-5.2781,-5.2605,-5.2589,-5.2711,-5.2834,-5.3344,-3.4787,-3.5439,-3.6562,-3.772,0.0,0.0,-4.2448,-4.2774,-4.3281,0.0,-4.8058,-4.8387,-4.8985,-4.9764,-5.0035,-4.922,-4.9383,-4.9709,-5.0057,-5.0112,-5.0112,-5.0112,-5.0112,-4.9963,-4.9619,-4.9586,-4.9463,-4.9112,-4.91,-4.91,-4.9094,-4.9094,-4.9238,-4.9582,-4.9601,-4.9764,-5.0112,-5.0583,-5.0981,-5.1303,-5.1774,-5.2172,-5.2498,-5.2498,-5.2498,-5.248,-5.2136,-5.1538,-5.0723,-4.9927,-4.9139,-4.8349,-4.7541,-4.7022,-4.6817,-4.7107,-4.7738,-4.8538,-4.9187,-5.0234,-5.1357,-5.1683,-5.2118,-5.2498,-5.2498,-5.2498,-5.2387,-5.1768,-5.1601,-5.1576,-5.142,-5.2033,-5.2651,-5.2518,-5.2941,-5.3281,-5.2834,-5.2729,-5.2676,-5.2445,-5.2409,-5.2409,-5.2409,-5.2409,-5.2224,-5.1829,-5.2127,-5.226,-5.1829,-5.2144,-5.2409,-5.2409,-5.2409,-5.2409,-5.2409,-5.2409,-5.2409,-5.248,-5.2464,-5.257,-5.2729,-5.2729,-5.2764,-5.2903,-5.2903,-5.2938,-5.3007,-5.2834,-5.2764,-5.285,-5.3058,-5.3431,-3.5238,-3.5838,-3.723,-3.8752,-3.7522,0.0,-4.2303,-4.2901,-4.31,0.0,-4.7246,-4.8079,-4.7536,-4.8098,-4.8366,-4.7572,-4.8094,-4.8912,-4.9709,-4.984,-4.984,-4.984,-4.984,-4.9546,-4.8837,-4.8761,-4.8471,-4.7751,-4.7717,-4.7717,-4.7717,-4.7717,-4.8022,-4.8728,-4.8764,-4.9112,-4.984,-4.9908,-5.0325,-5.1031,-5.1235,-5.1688,-5.2371,-5.2467,-5.2521,-5.2462,-5.1647,-5.0832,-5.0057,-4.9238,-4.8837,-4.8692,-4.7968,-4.7717,-4.7717,-4.7717,-4.8279,-4.9148,-4.9836,-5.0691,-5.1538,-5.2263,-5.2498,-5.2498,-5.2498,-5.2498,-5.2387,-5.186,-5.1694,-5.179,-5.2041,-5.2762,-5.338,-5.3211,-5.3417,-5.3551,-5.3041,-5.2938,-5.285,-5.248,-5.2409,-5.2409,-5.2409,-5.2409,-5.2409,-5.2409,-5.2409,-5.2409,-5.2409,-5.2409,-5.2409,-5.2409,-5.2409,-5.2409,-5.2409,-5.2445,-5.2516,-5.264,-5.2624,-5.2729,-5.2903,-5.2938,-5.2938,-5.2989,-5.2989,-5.3041,-5.323,-5.3041,-5.3058,-5.323,-5.3382,-5.3467,-3.6449,-3.629,-3.6272,-3.723,-3.7122,0.0,-3.897,-3.9241,-3.9984,0.0,-4.3842,-4.4421,-4.5562,-4.6432,-4.6703,-4.5906,-4.645,-4.7265,-4.8061,-4.817,-4.817,-4.817,-4.817,-4.8116,-4.7953,-4.7932,-4.7859,-4.7696,-4.7717,-4.7717,-4.7717,-4.7717,-4.7772,-4.7913,-4.7913,-4.8025,-4.817,-4.8822,-4.922,-4.9401,-5.0794,-5.1484,-5.1556,-5.2268,-5.2536,-5.2462,-5.1647,-5.0832,-5.0057,-4.9238,-4.8511,-4.7935,-4.7751,-4.7717,-4.7717,-4.7717,-4.8623,-4.9872,-5.0057,-5.1049,-5.2281,-5.2444,-5.2498,-5.2498,-5.2498,-5.2498,-5.2475,-5.2364,-5.2322,-5.2528,-5.3306,-5.3305,-5.3276,-5.3963,-5.3844,-5.345,-5.3195,-5.3144,-5.3007,-5.264,-5.257,-5.257,-5.257,-5.248,-5.2409,-5.2409,-5.2409,-5.2409,-5.2409,-5.2409,-5.2409,-5.2409,-5.2516,-5.257,-5.257,-5.2711,-5.2799,-5.2834,-5.2834,-5.2938,-5.3144,-5.3144,-5.323,-5.3399,-5.3399,-5.3382,-5.3433,-5.323,-5.323,-5.3433,-5.3314,-5.3348,-3.7076,-3.7011,-3.7196,-3.8009,-3.7593,0.0,0.0,-3.9061,-3.946,-4.1814,-4.2611,-4.3155,-4.3951,-4.4765,-4.5164,-4.4765,-4.5707,-4.6504,-4.6504,-4.7192,-4.7717,-4.7717,-4.7717,-4.7717,-4.7717,-4.7717,-4.7717,-4.7717,-4.7717,-4.7717,-4.7717,-4.7717,-4.7717,-4.7717,-4.7717,-4.7717,-4.7717,-4.8094,-4.8493,-4.8909,-4.9836,-5.0635,-5.1325,-5.1801,-5.196,-5.1846,-5.1049,-5.0234,-4.9438,-4.8619,-4.8058,-4.7717,-4.7717,-4.7717,-4.7717,-4.7717,-4.8713,-5.0112,-5.0112,-5.114,-5.2498,-5.2498,-5.2498,-5.2498,-5.2498,-5.2498,-5.2498,-5.2498,-5.2498,-5.2772,-5.4076,-5.393,-5.3773,-5.5039,-5.4905,-5.4411,-5.433,-5.4042,-5.3748,-5.355,-5.3179,-5.2799,-5.2535,-5.2445,-5.2409,-5.2499,-5.2499,-5.2535,-5.264,-5.264,-5.264,-5.264,-5.2711,-5.2729,-5.2729,-5.2834,-5.2938,-5.3041,-5.3041,-5.3127,-5.3348,-5.3348,-5.3382,-5.3501,-5.3501,-5.3501,-5.3501,-5.3382,-5.3382,-5.3501,-5.3382,-5.3551,-3.7994,-3.8221,-3.8753,-3.926,-3.8535,-3.8083,0.0,0.0,0.0,0.0,0.0,0.0,0.0,0.0,0.0,-4.3407,0.0,0.0,0.0,-4.6214,0.0,-4.7464,-4.7732,-4.788,-4.7735,-4.7572,-4.7536,-4.7678,-4.7572,-4.7554,-4.7678,-4.7717,-4.7717,-4.7717,-4.7717,-4.7717,-4.7717,-4.7717,-4.8022,-4.8656,-4.8971,-4.9807,-5.109,-5.1351,-5.1423,-5.1249,-5.0496,-4.9677,-4.8837,-4.8022,-4.7717,-4.7717,-4.7717,-4.7717,-4.7717,-4.7717,-4.8713,-5.0112,-5.0112,-5.114,-5.2498,-5.2498,-5.2498,-5.2498,-5.2498,-5.2498,-5.2498,-5.2498,-5.2498,-5.286,-5.449,-5.4396,-5.4322,-5.5909,-5.5848,-5.5385,-5.5385,-5.4857,-5.4391,-5.4359,-5.3715,-5.3041,-5.2622,-5.2516,-5.2535,-5.2624,-5.2659,-5.2711,-5.2868,-5.2903,-5.2903,-5.2903,-5.2938,-5.2972,-5.2972,-5.2972,-5.3076,-5.3264,-5.3264,-5.3348,-5.3501,-5.3501,-5.3501,-5.3501,-5.3501,-5.3501,-5.3501,-5.3618,-5.3618,-5.3501,-5.3618,-5.3946,-4.034,-4.0273,-4.0111,-3.9532,-3.9749,-3.9822,-3.8699,0.0,-3.9242,-3.8699,0.0,0.0,0.0,0.0,0.0,0.0,0.0,0.0,-4.3191,-4.4548,-4.5834,-4.6558,-4.7916,-4.8475,-4.7772,-4.7065,-4.6939,-4.7663,-4.7047,-4.6957,-4.7663,-4.7717,-4.7717,-4.7717,-4.7717,-4.7717,-4.7717,-4.7717,-4.7753,-4.7862,-4.8761,-4.9562,-5.0275,-5.1289,-5.1595,-5.1271,-5.0562,-4.9742,-4.8837,-4.8022,-4.7717,-4.7717,-4.7717,-4.7717,-4.7717,-4.7717,-4.8713,-5.0112,-5.0112,-5.114,-5.2498,-5.2498,-5.2498,-5.2498,-5.2498,-5.2498,-5.2498,-5.2498,-5.2498,-5.286,-5.449,-5.4396,-5.4322,-5.5909,-5.5848,-5.5385,-5.5385,-5.4857,-5.4359,-5.4183,-5.3616,-5.3179,-5.311,-5.2938,-5.2834,-5.2868,-5.2868,-5.2868,-5.2903,-5.2903,-5.2903,-5.2903,-5.3041,-5.3161,-5.3161,-5.3348,-5.3433,-5.3467,-5.3467,-5.3467,-5.3501,-5.3501,-5.3501,-5.3501,-5.3501,-5.3501,-5.3501,-5.4027,-5.4027,-5.3501,-5.4059,-5.4328,-4.0647,-4.1186,-4.1348,-4.0291,-4.0482,-4.056,-3.9201,-3.8807,-3.8625,-3.8281,0.0,0.0,0.0,0.0,0.0,0.0,-4.08,0.0,0.0,0.0,-4.4385,-4.5653,0.0,-4.6178,-4.6287,-4.6432,-4.6649,-4.6993,-4.6703,-4.6649,-4.6993,-4.7464,-4.7717,-4.7717,-4.7717,-4.7717,-4.7717,-4.7717,-4.7717,-4.7717,-4.8208,-4.8813,-4.9549,-5.0022,-5.0147,-5.0,-4.9651,-4.901,-4.8167,-4.7823,-4.7717,-4.7717,-4.7717,-4.7717,-4.7717,-4.7717,-4.8713,-5.0112,-5.0112,-5.114,-5.2498,-5.2498,-5.2498,-5.2498,-5.2498,-5.2498,-5.2498,-5.2498,-5.2498,-5.2752,-5.3911,-5.4338,-5.4759,-5.5857,-5.6294,-5.6348,-5.5989,-5.5443,-5.4826,-5.4391,-5.3782,-5.3382,-5.3382,-5.3127,-5.2938,-5.3041,-5.3365,-5.3533,-5.3264,-5.3896,-5.4074,-5.3332,-5.365,-5.3732,-5.3399,-5.3467,-5.3651,-5.4011,-5.4379,-5.46,-5.46,-5.46,-5.46,-5.46,-5.46,-5.46,-5.46,-5.4844,-5.4844,-5.46,-5.4874,-5.5159,-4.1557,-4.2333,-4.2677,-4.0977,-4.0804,-4.071,-3.9381,-3.8952,-3.8771,-3.8554,-3.8862,0.0,0.0,0.0,-3.8952,-3.9333,0.0,-4.042,0.0,-4.1379,0.0,0.0,0.0,-4.4729,-4.5544,-4.5761,-4.6033,-4.6468,-4.6087,-4.6142,-4.6794,-4.7174,-4.7461,-4.7678,-4.7717,-4.7717,-4.7717,-4.7717,-4.7717,-4.7717,-4.8058,-4.8626,-4.9389,-4.9692,-4.9653,-4.9368,-4.9328,-4.8705,-4.7717,-4.7717,-4.7717,-4.7717,-4.7717,-4.7717,-4.7735,-4.7953,-4.8912,-5.013,-5.0365,-5.1339,-5.2498,-5.2498,-5.2498,-5.2498,-5.2498,-5.2498,-5.2498,-5.2498,-5.2498,-5.2733,-5.3766,-5.4472,-5.5142,-5.6102,-5.6772,-5.7087,-5.6635,-5.6073,-5.5484,-5.5022,-5.4425,-5.3996,-5.3996,-5.3617,-5.3382,-5.3517,-5.3895,-5.4089,-5.3766,-5.4411,-5.4506,-5.3601,-5.4027,-5.4218,-5.3783,-5.3898,-5.4188,-5.4641,-5.5147,-5.5385,-5.5385,-5.5385,-5.5385,-5.5385,-5.5385,-5.5385,-5.5385,-5.556,-5.5647,-5.5647,-5.5647,-5.5876,-4.3998,-4.4239,-4.4162,-4.1373,-4.0705,-4.027,-3.8624,-3.9369,-4.022,-3.9514,-4.0564,-4.1343,-4.0564,-4.042,-4.0184,-3.9514,-4.0021,0.0,0.0,0.0,0.0,0.0,0.0,0.0,-4.6377,-4.5073,-4.482,-4.6377,-4.5055,-4.52,-4.7554,-4.6957,-4.6902,-4.7681,-4.7717,-4.7717,-4.7717,-4.7717,-4.7717,-4.7717,-4.8641,-4.9422,-5.0115,-5.1201,-5.1107,-5.0075,-5.0277,-4.9343,-4.7717,-4.7717,-4.7717,-4.7717,-4.7717,-4.7717,-4.7787,-4.8565,-4.9383,-5.022,-5.0977,-5.181,-5.2498,-5.2498,-5.2498,-5.2498,-5.2498,-5.2498,-5.2498,-5.2498,-5.2498,-5.286,-5.4454,-5.4888,-5.5287,-5.679,-5.717,-5.7188,-5.7163,-5.6706,-5.6257,-5.6257,-5.5762,-5.5343,-5.5343,-5.4795,-5.4359,-5.4359,-5.4391,-5.4391,-5.4359,-5.3898,-5.3534,-5.3501,-5.4027,-5.4391,-5.4359,-5.4913,-5.5273,-5.5355,-5.5385,-5.5385,-5.5385,-5.5385,-5.5385,-5.5385,-5.5385,-5.5385,-5.5385,-5.6007,-5.6284,-5.6284,-5.6284,-5.6284,-4.5585,-4.6529,-4.6533,-4.3404,-4.2825,-4.2316,-3.9595,-3.9786,-4.042,-4.0184,-4.0963,-4.1614,-4.1343,-4.0854,-4.0274,-3.9514,-4.0021,-3.9876,0.0,0.0,0.0,0.0,0.0,0.0,0.0,-4.3788,-4.4095,-4.4114,-4.4095,-4.4458,-4.5273,-4.6069,-4.6631,-4.6902,-4.7428,-4.7717,-4.7717,-4.7717,-4.7989,-4.8493,-4.8829,-4.9376,-5.0181,-5.0537,-5.0479,-5.0127,-4.9618,-4.9049,-4.8438,-4.7935,-4.7717,-4.7717,-4.7717,-4.7717,-4.7735,-4.8004,-4.8949,-5.0293,-5.1629,-5.2263,-5.2498,-5.2498,-5.2498,-5.2498,-5.2498,-5.2498,-5.2498,-5.2498,-5.2498,-5.2752,-5.3838,-5.4508,-5.516,-5.6156,-5.6808,-5.7087,-5.6706,-5.6447,-5.6174,-5.5791,-5.5531,-5.5385,-5.5385,-5.5543,-5.5513,-5.5099,-5.5039,-5.4887,-5.4454,-5.4596,-5.4582,-5.4156,-5.4689,-5.5039,-5.5039,-5.5612,-5.5971,-5.5989,-5.6375,-5.6608,-5.6608,-5.6608,-5.6608,-5.6608,-5.6608,-5.6608,-5.6608,-5.6811,-5.6889,-5.6889,-5.6889,-5.6889,-4.6826,-4.7767,-4.7861,-4.5019,-4.4505,-4.3957,-4.1117,-4.15,-4.2303,-4.1719,-4.2341,-4.3067,-4.3392,-4.2067,-4.0926,-4.09,-4.0452,-3.9478,0.0,-3.8118,0.0,0.0,0.0,0.0,0.0,-4.2556,-4.2955,-4.3299,-4.3009,-4.3317,-4.4458,-4.5508,-4.6196,-4.6504,-4.7283,-4.7717,-4.7717,-4.7717,-4.8094,-4.8891,-4.9202,-4.9771,-5.0598,-5.0867,-5.0685,-5.0145,-4.9612,-4.9043,-4.842,-4.7895,-4.7717,-4.7717,-4.7717,-4.7717,-4.7772,-4.8351,-4.9564,-5.1086,-5.2136,-5.2498,-5.2498,-5.2498,-5.2498,-5.2498,-5.2498,-5.2498,-5.2498,-5.2498,-5.2498,-5.2752,-5.3838,-5.4508,-5.516,-5.6174,-5.6808,-5.7087,-5.6688,-5.6608,-5.6501,-5.6128,-5.6045,-5.6045,-5.6045,-5.6348,-5.642,-5.5819,-5.5705,-5.5543,-5.5142,-5.5266,-5.5236,-5.4795,-5.5337,-5.5819,-5.6017,-5.6393,-5.6608,-5.6608,-5.6966,-5.7188,-5.7188,-5.7188,-5.7188,-5.7188,-5.7188,-5.7188,-5.7188,-5.7188,-5.7188,-5.7188,-5.7188,-5.7188]},{"header":{"parameterUnit":"m.s-1","parameterCategory":1,"la1":30.6,"la2":29.2853,"lo1":-89.7004,"lo2":-87.6739,"dy":0.0162,"dx":0.0183,"nx":112,"ny":82,"refTime":"2026-02-18T12:00:00:Z","depth":0,"parameterNumber":3,"parameterNumberName":"V-component_of_WINDS"},"data":[0.0,0.0,0.0,0.0,0.0,0.0,0.0,0.0,0.0,0.0,0.0,0.0,0.0,0.0,0.0,0.0,0.0,0.0,0.0,0.0,0.0,0.0,0.0,0.0,0.0,0.0,0.0,0.0,0.0,0.0,0.0,0.0,0.0,0.0,0.0,0.0,0.0,0.0,0.0,0.0,0.0,0.0,0.0,0.0,0.0,0.0,0.0,0.0,0.0,0.0,0.0,0.0,0.0,0.0,0.0,0.0,0.0,0.0,0.0,0.0,0.0,0.0,0.0,0.0,0.0,0.0,0.0,0.0,0.0,0.0,0.0,0.0,0.0,0.0,0.0,0.0,0.0,0.0,0.0,0.0,0.0,0.0,0.0,0.0,0.0,0.0,0.0,0.0,0.0,0.0,-2.3567,-2.3601,-2.4721,-2.552,-2.5605,-2.5405,-2.4848,-2.3878,0.0,0.0,0.0,0.0,0.0,0.0,0.0,0.0,0.0,0.0,0.0,0.0,0.0,0.0,0.0,0.0,0.0,0.0,0.0,0.0,0.0,0.0,0.0,0.0,0.0,0.0,0.0,0.0,0.0,0.0,0.0,0.0,0.0,0.0,0.0,0.0,0.0,0.0,0.0,0.0,0.0,0.0,0.0,0.0,0.0,0.0,0.0,0.0,0.0,0.0,0.0,0.0,0.0,0.0,0.0,0.0,0.0,0.0,0.0,0.0,0.0,0.0,0.0,0.0,0.0,0.0,0.0,0.0,0.0,0.0,0.0,0.0,0.0,0.0,0.0,0.0,0.0,0.0,0.0,0.0,0.0,0.0,0.0,0.0,0.0,0.0,0.0,0.0,0.0,0.0,0.0,0.0,0.0,0.0,0.0,0.0,0.0,0.0,0.0,0.0,0.0,0.0,0.0,0.0,-2.2422,-2.3873,-2.4897,-2.5439,-2.5213,-2.4812,-2.4349,-2.3814,0.0,0.0,0.0,0.0,0.0,0.0,0.0,0.0,0.0,0.0,0.0,0.0,0.0,0.0,0.0,0.0,0.0,0.0,0.0,0.0,0.0,0.0,0.0,0.0,0.0,0.0,0.0,0.0,0.0,0.0,0.0,0.0,0.0,0.0,0.0,0.0,0.0,0.0,0.0,0.0,0.0,0.0,0.0,0.0,0.0,0.0,0.0,0.0,0.0,0.0,0.0,0.0,0.0,0.0,0.0,0.0,0.0,0.0,0.0,0.0,0.0,0.0,0.0,0.0,0.0,0.0,0.0,0.0,0.0,0.0,0.0,0.0,0.0,0.0,0.0,0.0,0.0,0.0,0.0,0.0,0.0,0.0,0.0,0.0,0.0,0.0,0.0,0.0,0.0,0.0,0.0,0.0,0.0,0.0,0.0,0.0,0.0,0.0,0.0,0.0,0.0,0.0,0.0,-2.1666,-2.2149,-2.393,-2.4368,-2.4709,-2.5077,-2.4545,-2.4113,-2.3837,-2.3505,0.0,0.0,0.0,0.0,0.0,0.0,0.0,0.0,0.0,0.0,0.0,0.0,0.0,0.0,0.0,0.0,0.0,0.0,0.0,0.0,0.0,0.0,0.0,0.0,0.0,0.0,0.0,0.0,0.0,0.0,0.0,0.0,0.0,0.0,0.0,0.0,0.0,0.0,0.0,0.0,0.0,0.0,0.0,0.0,0.0,0.0,0.0,0.0,0.0,0.0,0.0,0.0,0.0,0.0,0.0,0.0,0.0,0.0,0.0,0.0,0.0,0.0,0.0,0.0,0.0,0.0,0.0,0.0,0.0,0.0,0.0,0.0,0.0,0.0,0.0,0.0,0.0,0.0,0.0,0.0,0.0,0.0,0.0,0.0,0.0,0.0,0.0,0.0,0.0,0.0,0.0,0.0,0.0,0.0,0.0,0.0,0.0,0.0,0.0,0.0,0.0,0.0,-2.2311,-2.2709,-2.39,-2.3879,-2.4102,-2.4853,-2.4303,-2.385,-2.3817,-2.3189,0.0,0.0,0.0,0.0,0.0,0.0,0.0,0.0,0.0,0.0,0.0,0.0,0.0,0.0,0.0,0.0,0.0,0.0,0.0,0.0,0.0,0.0,0.0,0.0,0.0,0.0,0.0,0.0,0.0,0.0,0.0,0.0,0.0,0.0,0.0,0.0,0.0,0.0,0.0,0.0,0.0,0.0,0.0,0.0,0.0,0.0,0.0,0.0,0.0,0.0,0.0,0.0,0.0,0.0,0.0,0.0,0.0,0.0,0.0,0.0,0.0,0.0,0.0,0.0,0.0,0.0,0.0,0.0,0.0,0.0,0.0,0.0,0.0,0.0,0.0,0.0,0.0,0.0,0.0,0.0,0.0,0.0,0.0,0.0,0.0,0.0,0.0,0.0,0.0,0.0,0.0,0.0,0.0,0.0,0.0,0.0,0.0,0.0,0.0,0.0,0.0,0.0,-2.335,-2.4399,-2.3865,-2.3789,-2.3975,-2.4424,-2.3736,-2.3412,-2.3797,-2.2428,0.0,0.0,0.0,0.0,0.0,0.0,0.0,0.0,0.0,0.0,0.0,0.0,0.0,0.0,0.0,0.0,0.0,0.0,0.0,0.0,0.0,0.0,0.0,0.0,0.0,0.0,0.0,0.0,0.0,0.0,0.0,0.0,0.0,0.0,0.0,0.0,0.0,0.0,0.0,0.0,0.0,0.0,0.0,0.0,0.0,0.0,0.0,0.0,0.0,0.0,0.0,0.0,0.0,0.0,0.0,0.0,0.0,0.0,0.0,0.0,0.0,0.0,0.0,0.0,0.0,0.0,0.0,0.0,0.0,0.0,0.0,0.0,0.0,0.0,0.0,0.0,0.0,0.0,0.0,0.0,0.0,0.0,0.0,0.0,0.0,0.0,0.0,0.0,0.0,0.0,0.0,0.0,0.0,0.0,0.0,0.0,0.0,0.0,0.0,0.0,0.0,0.0,-2.2287,-2.3185,0.0,-2.3545,-2.3555,-2.3984,-2.3486,-2.3201,-2.3353,0.0,0.0,0.0,0.0,0.0,0.0,0.0,0.0,0.0,0.0,0.0,0.0,0.0,0.0,0.0,0.0,0.0,0.0,0.0,0.0,0.0,0.0,0.0,0.0,0.0,0.0,0.0,0.0,0.0,0.0,0.0,0.0,0.0,0.0,0.0,0.0,0.0,0.0,0.0,0.0,0.0,0.0,0.0,0.0,0.0,0.0,0.0,0.0,0.0,0.0,0.0,0.0,0.0,0.0,0.0,0.0,0.0,0.0,0.0,0.0,0.0,0.0,0.0,0.0,0.0,0.0,0.0,0.0,0.0,0.0,0.0,0.0,0.0,0.0,0.0,0.0,0.0,0.0,0.0,0.0,0.0,0.0,0.0,0.0,0.0,0.0,0.0,0.0,0.0,0.0,0.0,0.0,0.0,0.0,0.0,0.0,0.0,0.0,0.0,0.0,0.0,0.0,-2.131,-2.2172,-2.3107,0.0,-2.3564,-2.3325,-2.3945,-2.334,-2.2883,-2.2902,0.0,0.0,0.0,0.0,0.0,0.0,0.0,0.0,0.0,0.0,0.0,0.0,0.0,0.0,0.0,0.0,0.0,0.0,0.0,0.0,0.0,0.0,0.0,0.0,0.0,0.0,0.0,0.0,0.0,0.0,0.0,0.0,0.0,0.0,0.0,0.0,0.0,0.0,0.0,0.0,0.0,0.0,0.0,0.0,0.0,0.0,0.0,0.0,0.0,0.0,0.0,0.0,0.0,0.0,0.0,0.0,0.0,0.0,0.0,0.0,0.0,0.0,0.0,0.0,0.0,0.0,0.0,0.0,0.0,0.0,0.0,0.0,0.0,0.0,0.0,0.0,0.0,0.0,0.0,0.0,0.0,0.0,0.0,0.0,0.0,0.0,0.0,0.0,0.0,0.0,0.0,0.0,0.0,0.0,0.0,0.0,0.0,0.0,0.0,0.0,0.0,0.0,-2.1873,-2.3414,-2.4632,-2.5063,-2.3906,-2.3442,-2.4326,-2.3242,-2.2483,0.0,0.0,0.0,0.0,0.0,0.0,0.0,0.0,0.0,0.0,0.0,0.0,0.0,0.0,0.0,0.0,0.0,0.0,0.0,0.0,0.0,0.0,0.0,0.0,0.0,0.0,0.0,0.0,0.0,0.0,0.0,0.0,0.0,0.0,0.0,0.0,0.0,0.0,0.0,0.0,0.0,0.0,0.0,0.0,0.0,0.0,0.0,0.0,0.0,0.0,0.0,0.0,0.0,0.0,0.0,0.0,0.0,0.0,0.0,0.0,0.0,0.0,0.0,0.0,0.0,0.0,0.0,0.0,0.0,0.0,0.0,0.0,0.0,0.0,0.0,0.0,0.0,0.0,0.0,0.0,0.0,0.0,0.0,0.0,0.0,0.0,0.0,0.0,0.0,0.0,0.0,0.0,0.0,0.0,0.0,0.0,0.0,0.0,0.0,0.0,0.0,0.0,0.0,-2.176,-2.314,-2.4162,-2.4578,-2.4004,-2.3574,-2.3481,-2.303,-2.248,-2.201,0.0,0.0,0.0,0.0,0.0,0.0,0.0,0.0,0.0,0.0,0.0,0.0,0.0,0.0,0.0,0.0,0.0,0.0,0.0,0.0,0.0,0.0,0.0,0.0,0.0,0.0,0.0,0.0,0.0,0.0,0.0,0.0,0.0,0.0,0.0,0.0,0.0,0.0,0.0,0.0,0.0,0.0,0.0,0.0,0.0,0.0,0.0,0.0,0.0,0.0,0.0,0.0,0.0,0.0,0.0,0.0,0.0,0.0,0.0,0.0,0.0,0.0,0.0,0.0,0.0,0.0,0.0,0.0,0.0,0.0,0.0,0.0,0.0,0.0,0.0,0.0,0.0,0.0,0.0,0.0,0.0,0.0,0.0,0.0,0.0,0.0,0.0,0.0,0.0,0.0,0.0,0.0,0.0,0.0,0.0,0.0,0.0,0.0,0.0,0.0,0.0,0.0,-2.1455,-2.2891,-2.3945,-2.4375,-2.4043,-2.3682,-2.3418,-2.3497,-2.3134,-2.2,0.0,0.0,0.0,0.0,0.0,0.0,0.0,0.0,0.0,0.0,0.0,0.0,0.0,0.0,0.0,0.0,0.0,0.0,0.0,0.0,0.0,0.0,0.0,0.0,0.0,0.0,0.0,0.0,0.0,0.0,0.0,0.0,0.0,0.0,0.0,0.0,0.0,0.0,0.0,0.0,0.0,0.0,0.0,0.0,0.0,0.0,0.0,0.0,0.0,0.0,0.0,0.0,0.0,0.0,0.0,0.0,0.0,0.0,0.0,0.0,0.0,0.0,0.0,0.0,0.0,0.0,0.0,0.0,0.0,0.0,0.0,0.0,0.0,0.0,0.0,0.0,0.0,0.0,0.0,0.0,0.0,0.0,0.0,0.0,0.0,0.0,0.0,0.0,0.0,0.0,0.0,0.0,0.0,0.0,0.0,0.0,0.0,0.0,0.0,0.0,0.0,0.0,-2.1083,-2.2754,-2.3945,-2.4375,-2.4043,-2.3769,-2.373,-2.4372,-2.402,-2.2275,0.0,0.0,0.0,0.0,0.0,0.0,0.0,0.0,0.0,0.0,0.0,0.0,0.0,0.0,0.0,0.0,0.0,0.0,0.0,0.0,0.0,0.0,0.0,0.0,0.0,0.0,0.0,0.0,0.0,0.0,0.0,0.0,0.0,0.0,0.0,0.0,0.0,0.0,0.0,0.0,0.0,0.0,0.0,0.0,0.0,0.0,0.0,0.0,0.0,0.0,0.0,0.0,0.0,0.0,0.0,0.0,0.0,0.0,0.0,0.0,-1.9559,-1.9298,0.0,0.0,0.0,0.0,0.0,0.0,0.0,0.0,0.0,0.0,0.0,0.0,0.0,0.0,0.0,0.0,0.0,0.0,0.0,0.0,0.0,0.0,0.0,0.0,0.0,0.0,0.0,0.0,0.0,0.0,0.0,0.0,0.0,0.0,0.0,0.0,0.0,0.0,0.0,0.0,-2.1533,-2.2939,-2.3945,-2.4375,-2.4043,-2.3652,-2.3257,-2.389,-2.3893,-2.2882,-2.3228,0.0,0.0,0.0,0.0,0.0,0.0,0.0,0.0,0.0,0.0,0.0,0.0,0.0,0.0,0.0,0.0,0.0,0.0,0.0,0.0,0.0,0.0,0.0,0.0,0.0,0.0,0.0,0.0,0.0,0.0,0.0,0.0,0.0,0.0,0.0,0.0,0.0,0.0,0.0,0.0,0.0,0.0,0.0,0.0,0.0,0.0,0.0,0.0,0.0,0.0,0.0,0.0,0.0,0.0,0.0,0.0,0.0,0.0,0.0,-2.0768,-2.0548,0.0,0.0,0.0,0.0,0.0,0.0,0.0,0.0,0.0,0.0,0.0,0.0,0.0,0.0,0.0,0.0,0.0,0.0,0.0,0.0,0.0,0.0,0.0,0.0,0.0,0.0,0.0,0.0,0.0,0.0,0.0,0.0,0.0,0.0,0.0,0.0,0.0,0.0,0.0,0.0,-2.1153,-2.2734,-2.3789,-2.3799,-2.3799,-2.3613,-2.313,-2.4058,-2.4433,-2.3916,-2.4051,0.0,0.0,0.0,0.0,0.0,0.0,0.0,0.0,0.0,0.0,0.0,0.0,0.0,0.0,0.0,0.0,0.0,0.0,0.0,0.0,0.0,0.0,0.0,0.0,0.0,0.0,0.0,0.0,0.0,0.0,0.0,0.0,0.0,0.0,0.0,0.0,0.0,0.0,0.0,0.0,0.0,0.0,0.0,0.0,0.0,0.0,0.0,0.0,0.0,0.0,0.0,0.0,0.0,-1.9935,-2.0329,-2.046,-2.1025,-2.1499,-2.1926,-2.2293,-2.2272,-2.1839,-2.102,0.0,0.0,0.0,0.0,0.0,0.0,0.0,0.0,0.0,0.0,0.0,0.0,0.0,0.0,0.0,0.0,0.0,0.0,0.0,0.0,0.0,0.0,-2.1569,-2.1243,-2.152,-2.157,-2.0514,0.0,0.0,0.0,0.0,0.0,0.0,0.0,0.0,0.0,0.0,0.0,-2.0762,-2.248,-2.3564,-2.3237,-2.355,-2.358,-2.3218,-2.4349,-2.5013,-2.4818,-2.492,-2.4737,0.0,0.0,0.0,0.0,0.0,0.0,0.0,0.0,0.0,0.0,0.0,0.0,0.0,0.0,0.0,0.0,0.0,0.0,0.0,0.0,0.0,0.0,0.0,0.0,0.0,0.0,0.0,0.0,0.0,0.0,0.0,0.0,-1.5777,-1.5536,0.0,0.0,0.0,0.0,0.0,0.0,0.0,0.0,0.0,0.0,0.0,0.0,0.0,-1.5978,-1.6454,-1.8778,-2.0011,-2.025,-2.2626,-2.3744,-2.3753,-2.3869,-2.3934,-2.4042,-2.4456,0.0,-2.1873,-2.1336,0.0,0.0,0.0,0.0,0.0,0.0,0.0,0.0,0.0,0.0,0.0,0.0,0.0,0.0,0.0,0.0,0.0,0.0,0.0,0.0,0.0,0.0,-2.3313,-2.2671,-2.2876,-2.3054,-2.2291,-2.0732,-1.9389,-1.9187,-1.8502,-1.7807,0.0,0.0,0.0,0.0,0.0,0.0,-2.1553,-2.2598,-2.3305,-2.3672,-2.3595,-2.3519,-2.346,-2.4519,-2.5029,-2.4719,-2.4631,-2.4705,-2.4929,-2.3135,0.0,0.0,0.0,0.0,0.0,0.0,0.0,0.0,0.0,0.0,0.0,0.0,0.0,0.0,0.0,0.0,0.0,0.0,0.0,0.0,0.0,0.0,0.0,0.0,0.0,0.0,0.0,0.0,0.0,-1.5293,-1.5796,-1.5425,-1.584,-1.5804,0.0,0.0,0.0,0.0,0.0,0.0,0.0,0.0,0.0,-1.6425,-1.6621,-1.7263,-1.8508,-2.0359,-2.1665,-2.2369,-2.4241,-2.5109,-2.5109,-2.5109,-2.5109,-2.5118,-2.5361,-2.4927,-2.3926,-2.2749,-2.188,-2.1186,0.0,0.0,0.0,0.0,-2.1183,-2.1665,-2.2398,-2.2582,-2.246,-2.2166,0.0,0.0,0.0,0.0,0.0,0.0,0.0,-2.1995,-2.2498,-2.3242,-2.3782,-2.3698,-2.3855,-2.3875,-2.332,-2.2305,-2.1212,-2.0233,-1.9734,-1.9082,-1.793,-1.793,0.0,0.0,0.0,-2.0957,-2.1777,-2.2617,-2.3169,-2.3364,-2.335,-2.3319,-2.3503,-2.4046,-2.4628,-2.511,-2.4909,-2.5038,-2.5564,-2.4417,-2.3547,0.0,0.0,0.0,0.0,0.0,0.0,0.0,0.0,0.0,0.0,0.0,0.0,0.0,0.0,0.0,0.0,0.0,0.0,0.0,0.0,0.0,0.0,0.0,0.0,0.0,0.0,0.0,0.0,-1.5511,-1.6024,-1.5455,-1.5958,-1.6038,0.0,0.0,0.0,0.0,0.0,0.0,-1.588,-1.5972,-1.6412,-1.7271,-1.7541,-1.8456,-1.9972,-2.1119,-2.2154,-2.3035,-2.4214,-2.4775,-2.4775,-2.4873,-2.4873,-2.4873,-2.5177,-2.5274,-2.5207,-2.3966,-2.3159,-2.2649,-2.1105,-2.082,-2.1318,-2.1592,-2.2095,-2.277,-2.3641,-2.3887,-2.3721,-2.3301,-2.3018,-2.2637,-2.1553,0.0,0.0,0.0,0.0,-2.2588,-2.3545,-2.3955,-2.4199,-2.4512,-2.458,-2.4502,-2.4189,-2.3701,-2.2924,-2.1398,-2.1016,-2.0459,-1.9072,-1.9056,0.0,-1.927,-2.0459,-2.1562,-2.1992,-2.2685,-2.3091,-2.3091,-2.3232,-2.3363,-2.3547,-2.3841,-2.4348,-2.521,-2.4898,-2.5123,-2.6042,-2.5276,-2.4542,-2.3985,0.0,0.0,0.0,0.0,0.0,0.0,0.0,0.0,0.0,0.0,0.0,0.0,0.0,0.0,0.0,0.0,0.0,0.0,0.0,0.0,0.0,0.0,0.0,0.0,0.0,0.0,0.0,0.0,0.0,-1.5535,-1.6739,0.0,0.0,0.0,0.0,-1.6333,-1.66,-1.6819,-1.6931,-1.7225,-1.768,-1.831,-1.8665,-1.8993,-1.9338,-2.0423,-2.0883,-2.0688,-2.1785,-2.2291,-2.2291,-2.2534,-2.2634,-2.2743,-2.3741,-2.4187,-2.4181,-2.4287,-2.4012,-2.3441,-2.2538,-2.1892,-2.16,-2.2561,-2.2944,-2.3094,-2.4033,-2.4121,-2.3916,-2.4687,-2.4385,-2.3633,-2.311,-2.2734,0.0,0.0,-2.3066,-2.3711,-2.3769,-2.4394,-2.5057,-2.5077,-2.5077,-2.5077,-2.5057,-2.4346,-2.3496,-2.2588,-2.209,-2.166,-2.1112,0.0,-2.1064,-2.1064,-2.1533,-2.2002,-2.2432,-2.2818,-2.3091,-2.3091,-2.3493,-2.3754,-2.3797,-2.4186,-2.4497,-2.454,-2.4157,-2.4641,-2.6205,-2.4837,-2.4767,-2.6289,-2.4217,0.0,0.0,0.0,0.0,0.0,0.0,0.0,0.0,0.0,0.0,0.0,0.0,0.0,0.0,0.0,0.0,0.0,0.0,0.0,0.0,0.0,0.0,0.0,0.0,0.0,0.0,0.0,0.0,-1.6404,-1.7216,0.0,-1.6627,-1.6843,-1.6979,-1.6802,-1.7093,-1.741,-1.7619,-1.7974,-1.8243,-1.8457,-1.873,-1.8946,-1.9052,-2.0189,-2.0693,-2.0525,-2.1661,-2.2154,-2.2089,-2.219,-2.2341,-2.2534,-2.2885,-2.3085,-2.3067,-2.314,-2.3855,-2.489,-2.4297,-2.3975,-2.3861,-2.4202,-2.4354,-2.4439,-2.5023,-2.5118,-2.5049,-2.5059,-2.4668,-2.416,-2.4014,-2.3857,-2.3799,-2.4082,-2.4375,-2.4678,-2.4971,-2.5273,-2.5498,-2.5498,-2.5498,-2.542,-2.5174,-2.4609,-2.4023,-2.3447,-2.2773,-2.206,-2.1317,-2.1465,-2.165,-2.165,-2.2021,-2.2441,-2.2818,-2.3003,-2.3091,-2.3091,-2.3406,-2.3667,-2.3797,-2.411,-2.4368,-2.4497,-2.4872,-2.5306,-2.5789,-2.58,-2.5841,-2.5925,-2.5121,-2.4061,0.0,0.0,0.0,0.0,0.0,0.0,0.0,0.0,0.0,0.0,0.0,0.0,0.0,0.0,0.0,0.0,0.0,0.0,0.0,0.0,0.0,0.0,0.0,0.0,0.0,0.0,-1.735,-1.724,-1.7845,-1.8078,-1.7575,-1.7746,-1.781,-1.7654,-1.7747,-1.7898,-1.815,-1.8354,-1.8517,-1.8517,-1.8781,-1.8834,-1.8784,-1.9558,-1.9864,-1.9655,-2.0481,-2.0781,-2.0716,-2.0928,-2.1132,-2.1336,-2.1735,-2.1937,-2.1988,-2.2333,-2.3352,-2.459,-2.4358,-2.4438,-2.4785,-2.4785,-2.4986,-2.5332,-2.5586,-2.5693,-2.5635,-2.5391,-2.5098,-2.4816,-2.4816,-2.4816,-2.4922,-2.5215,-2.5293,-2.5361,-2.5615,-2.5693,-2.5693,-2.5693,-2.5693,-2.5606,-2.5361,-2.4834,-2.4336,-2.4053,-2.331,-2.2496,-2.1931,-2.2119,-2.2305,-2.2305,-2.2676,-2.3047,-2.3276,-2.3359,-2.3359,-2.3359,-2.3495,-2.3677,-2.3797,-2.3978,-2.4152,-2.427,-2.4681,-2.4984,-2.5166,-2.5539,-2.5642,-2.5395,-2.5084,-2.4424,-2.3396,0.0,0.0,0.0,0.0,0.0,0.0,0.0,0.0,0.0,0.0,0.0,0.0,0.0,0.0,0.0,0.0,0.0,0.0,0.0,0.0,0.0,0.0,0.0,-1.6455,-1.7508,-1.8203,-1.7848,-1.8716,-1.9197,-1.8838,-1.8779,-1.8823,-1.8871,-1.8598,-1.8455,-1.8477,-1.8497,-1.8497,-1.8477,-1.8747,-1.8762,-1.8461,-1.8461,-1.8311,-1.7964,-1.7964,-1.7964,-1.8016,-1.8608,-1.8876,-1.8974,-2.0285,-2.0834,-2.0936,-2.1988,-2.2391,-2.2391,-2.2484,-2.3135,-2.4088,-2.4088,-2.4756,-2.5693,-2.5693,-2.5693,-2.5693,-2.5693,-2.5693,-2.5693,-2.5693,-2.5693,-2.5693,-2.5693,-2.5693,-2.5693,-2.5693,-2.5693,-2.5693,-2.5693,-2.5693,-2.5693,-2.5693,-2.5039,-2.4414,-2.4414,-2.3686,-2.3091,-2.3091,-2.311,-2.311,-2.311,-2.3525,0.0,-2.3809,-2.3809,-2.3809,-2.3789,-2.3805,-2.3817,-2.3797,-2.3873,-2.3919,-2.3919,-2.3484,-2.3596,-2.4456,-2.4007,-2.4136,-2.4952,-2.4105,-2.3745,-2.3985,0.0,0.0,0.0,0.0,0.0,0.0,0.0,0.0,0.0,0.0,0.0,0.0,0.0,0.0,0.0,0.0,0.0,0.0,0.0,0.0,0.0,-1.6843,-1.7421,-1.7421,-1.813,-1.8607,-1.8549,-1.9211,-1.9441,-1.8938,-1.8891,-1.8796,-1.8636,-1.8715,-1.868,-1.8497,-1.8691,-1.8611,-1.8129,-1.8218,-1.8124,-1.7868,-1.7868,-1.7828,-1.7694,-1.7694,-1.7799,-1.8016,-1.8174,-1.8331,-1.8586,-1.9168,-1.9428,-1.948,-1.9983,-2.0181,-2.0328,-2.1887,-2.3135,-2.4088,-2.4088,-2.4756,-2.5693,-2.5693,-2.5693,-2.5693,-2.5693,-2.5693,-2.5693,-2.5693,-2.5693,-2.5693,-2.5693,-2.5693,-2.5693,-2.5693,-2.5693,-2.5693,-2.5693,-2.5693,-2.5693,-2.5693,-2.5039,-2.4414,-2.4414,-2.3686,-2.3091,-2.3091,-2.3398,-2.3613,-2.3613,-2.3975,-2.4248,-2.4248,-2.4248,-2.4121,-2.3828,-2.4083,-2.4149,-2.3827,-2.3873,-2.3919,-2.3919,-2.4062,-2.41,-2.3935,-2.4404,-2.4568,-2.4338,-2.4283,-2.4059,0.0,0.0,0.0,0.0,0.0,0.0,0.0,0.0,0.0,0.0,0.0,0.0,0.0,0.0,0.0,0.0,0.0,0.0,0.0,0.0,0.0,0.0,-1.7794,-1.8474,-1.8613,-1.8957,-1.9262,-1.9406,-1.9785,-1.9835,-1.9338,-1.9296,-1.9129,-1.8684,-1.8831,-1.8798,-1.8504,-1.8651,-1.8531,-1.8009,-1.7995,-1.7896,-1.7589,-1.7582,-1.7582,-1.7582,-1.7582,-1.7687,-1.7852,-1.7964,-1.8069,-1.8272,-1.8705,-1.8921,-1.8921,-1.9175,-1.9279,-1.9428,0.0,0.0,0.0,0.0,-2.4756,-2.5693,-2.5693,-2.5693,-2.5693,-2.5693,-2.5693,-2.5693,-2.5693,-2.5693,-2.5693,-2.5693,-2.5693,-2.5693,-2.5693,-2.5693,-2.5693,-2.5693,-2.5693,-2.5693,-2.5693,-2.5185,-2.4639,-2.4453,-2.3867,0.0,-2.3408,-2.3623,-2.3789,-2.3789,-2.4398,-2.4837,-2.4687,-2.4874,-2.4878,-2.4539,-2.4601,-2.4547,-2.4284,-2.4028,0.0,0.0,0.0,-2.3431,-2.2922,-2.3394,0.0,0.0,0.0,0.0,0.0,0.0,0.0,0.0,-2.5586,-2.5686,0.0,0.0,0.0,0.0,0.0,0.0,0.0,0.0,0.0,0.0,0.0,0.0,0.0,0.0,0.0,0.0,-1.8716,-1.9455,-1.982,-1.9872,-1.9921,-2.0215,-2.0259,-2.0104,-1.9788,-1.9758,-1.9533,-1.8991,-1.8945,-1.8798,-1.8504,-1.8457,0.0,0.0,0.0,-1.7862,-1.7589,-1.7582,-1.7582,-1.7582,-1.7582,-1.7582,-1.7635,-1.7859,-1.7964,-1.8016,-1.8608,-1.8869,-1.8921,-1.9175,-1.9279,-1.9324,-1.9583,-2.0233,-2.1336,-2.3493,-2.4864,-2.5693,-2.5693,0.0,0.0,-2.5693,-2.5693,-2.5693,-2.5693,-2.5693,-2.5693,-2.5693,-2.5693,-2.5693,-2.5693,-2.5693,-2.5693,-2.5693,-2.5693,-2.5693,-2.5693,-2.5381,-2.4998,-2.456,-2.415,-2.3857,-2.3902,-2.3902,-2.3877,-2.3926,-2.4861,-2.5478,-2.5241,-2.562,-2.5789,-2.556,-2.5229,0.0,-2.489,-2.4318,-2.3753,-2.3298,-2.2832,-2.2387,-2.1983,-2.1963,-2.2506,-2.3688,-2.3804,-2.4795,-2.6678,-2.7334,-2.8125,-2.8874,-2.6947,-2.6904,0.0,0.0,0.0,0.0,0.0,0.0,0.0,0.0,0.0,0.0,0.0,0.0,0.0,0.0,0.0,-1.8482,-1.9199,-1.9818,-2.0132,-2.0219,-2.0143,-1.9914,-1.9925,-1.9811,-1.9475,-1.9482,-1.9455,-1.9285,-1.9058,-1.8798,-1.8504,-1.8263,-1.7989,-1.7682,-1.7669,-1.7642,-1.7582,-1.7582,-1.7582,-1.7582,-1.7582,0.0,-1.7582,-1.7635,-1.7799,-1.8016,-1.8325,-1.8646,-1.8921,-1.9175,-1.9279,-1.948,-2.1183,-2.1988,-2.2442,-2.4618,-2.5528,-2.5693,-2.5693,-2.5693,-2.5693,-2.5693,-2.5693,-2.5693,-2.5693,-2.5693,0.0,-2.5693,-2.5693,-2.5693,-2.5693,-2.5693,-2.5693,-2.5693,-2.5693,-2.5693,-2.5693,-2.5381,-2.5086,-2.4998,-2.459,-2.4343,-2.4582,-2.4444,-2.4414,-2.4812,-2.5502,-2.5972,-2.5924,-2.6174,-2.6177,-2.5779,-2.5878,-2.5666,-2.4941,-2.4596,-2.4219,-2.3774,-2.3308,-2.3008,-2.2925,-2.2915,-2.3213,-2.3834,-2.4454,-2.5146,-2.5916,-2.7427,-2.8459,-2.9068,-2.902,-2.939,0.0,0.0,0.0,0.0,0.0,0.0,0.0,0.0,0.0,0.0,0.0,-1.6484,-1.6791,0.0,-1.8518,-1.9169,-1.9721,-2.0094,-2.0299,-2.0132,-1.9996,-1.9818,-1.9777,-1.97,-1.9424,-1.9424,-1.9305,-1.9158,-1.8871,-1.8577,-1.8283,-1.7976,-1.7742,-1.7589,-1.7582,-1.7582,-1.7582,-1.7582,-1.7582,-1.7582,-1.7582,-1.7582,-1.7582,-1.7582,-1.7687,-1.7799,-1.8213,-1.8482,-1.8698,-1.9116,-1.9279,-1.9524,-2.1633,-2.2484,-2.2643,-2.371,-2.4775,-2.5693,-2.5693,-2.5693,-2.5693,-2.5693,-2.5693,-2.5693,-2.5693,-2.5693,-2.5693,-2.5693,-2.5693,-2.5693,-2.5693,-2.5693,-2.5693,-2.5693,-2.5693,-2.5693,-2.5693,-2.5557,-2.5332,-2.5165,-2.4893,-2.4839,-2.5082,-2.5036,-2.5058,-2.5417,-2.5919,-2.6294,-2.6294,-2.663,-2.6751,-2.6384,-2.6396,-2.6208,-2.5801,-2.5197,-2.4745,-2.4571,-2.4126,-2.3867,-2.3867,-2.3867,-2.4084,-2.455,-2.4903,-2.5541,-2.6433,-2.7597,-2.8924,-3.038,-3.0857,-3.1356,0.0,0.0,0.0,0.0,0.0,0.0,0.0,0.0,-1.6257,-1.5839,-1.6565,-1.7358,-1.7567,-1.8357,-1.9169,-1.9762,-2.0127,-2.0308,-2.0309,-2.0009,-1.9758,-1.97,-1.97,-1.9649,-1.9424,-1.9424,-1.9265,-1.9025,-1.8738,-1.8444,-1.8095,-1.7842,-1.7642,-1.7589,-1.7582,-1.7582,-1.7582,-1.7582,-1.7582,-1.7582,-1.7582,-1.7582,-1.7582,-1.7582,-1.7635,-1.7793,-1.8318,-1.8579,-1.8639,-1.9116,-1.9428,-1.9783,-2.1532,-2.2433,-2.2835,-2.3044,-2.4214,-2.5693,-2.5693,-2.5693,-2.5693,-2.5693,-2.5693,-2.5693,-2.5693,-2.5693,-2.5693,-2.5693,-2.5693,-2.5693,-2.5693,-2.5693,-2.5693,-2.5693,-2.5693,-2.5693,-2.5693,-2.5693,-2.5586,-2.5273,-2.5243,-2.5385,-2.5632,-2.568,-2.5727,-2.5906,-2.6313,-2.6602,-2.6602,-2.7023,-2.7214,-2.6986,-2.6837,-2.6718,-2.6625,-2.5823,-2.5357,-2.5357,-2.4962,-2.4755,-2.4755,-2.4755,-2.4972,-2.5482,-2.5492,-2.6057,-2.7209,-2.7911,-2.9285,-3.1201,-3.2031,-3.2779,-1.7096,-1.7013,-1.6873,-1.7194,-1.7081,-1.6907,0.0,0.0,-1.7582,-1.7167,-1.7896,-1.8584,-1.8621,-1.9191,-1.9769,-2.0128,-2.0217,-2.0323,-2.0301,-2.0019,-1.97,-1.9482,-1.9424,-1.9424,-1.9424,-1.9424,-1.9352,-1.9377,-1.9045,-1.8744,-1.8457,-1.8102,-1.7869,-1.7589,-1.7582,-1.7582,-1.7582,-1.7582,-1.7582,-1.7582,-1.7582,-1.7582,-1.7582,-1.7582,-1.7845,-1.8318,-1.8952,-1.922,-1.922,-1.9272,-1.9879,-2.0731,-2.0987,-2.224,-2.4048,-2.4971,-2.5489,-2.5693,-2.5693,-2.5693,-2.5693,-2.5693,-2.5693,-2.5693,-2.5693,-2.5693,-2.5693,-2.5693,-2.5693,-2.5693,-2.5693,-2.5693,-2.5693,-2.5693,-2.5693,-2.5693,-2.5693,-2.5693,-2.5674,-2.5625,-2.5838,-2.6079,-2.632,-2.6378,-2.6426,-2.6426,-2.6668,-2.6853,-2.6853,-2.7129,-2.7309,-2.7262,-2.7268,-2.7061,-2.6656,-2.6103,-2.5802,-2.5802,-2.5761,-2.573,-2.573,-2.573,-2.5947,-2.6413,-2.6423,-2.6734,-2.7285,-2.8591,-2.9361,-2.9675,-3.1547,-3.3149,-1.722,-1.7425,-1.7577,0.0,-1.789,-1.7612,-1.7827,-1.8,-1.8097,-1.7896,-1.8525,-1.9074,-1.9074,-1.9601,-2.0142,0.0,-2.0505,-2.0466,-2.0314,-1.9989,-1.9639,-1.9182,-1.9259,-1.9424,-1.9424,-1.9424,-1.9424,-1.9424,-1.9092,-1.8798,-1.8504,-1.8155,-1.7903,-1.7595,-1.7582,-1.7582,-1.7582,-1.7582,-1.7582,-1.7582,-1.7582,-1.7582,-1.7582,-1.7582,-1.7898,-1.8422,-1.8855,-1.9175,-1.9279,-1.9279,-1.9931,-2.0987,-2.1591,-2.2735,-2.4137,-2.4599,-2.5167,-2.5693,-2.5693,-2.5693,-2.5693,-2.5693,-2.5693,-2.5693,-2.5693,-2.5693,-2.5693,-2.5693,-2.5693,-2.5693,-2.5693,-2.5693,-2.5693,-2.5693,-2.5693,-2.5693,-2.5693,-2.5693,-2.5693,-2.5693,-2.5917,-2.6197,-2.6448,-2.6651,-2.6794,-2.6928,-2.6938,-2.6948,-2.7129,-2.7214,-2.7309,-2.7309,-2.7309,-2.7226,-2.704,-2.6843,-2.6729,-2.6729,-2.6729,-2.6729,-2.6729,-2.6729,-2.6822,-2.7009,-2.7019,-2.7237,-2.7645,-2.8267,-2.9149,-3.0275,-3.1162,-3.2672,-1.7072,-1.76,0.0,-1.8643,-1.8497,-1.8243,-1.8393,-1.8516,-1.8547,-1.846,-1.8884,-1.9279,-1.9279,-1.9725,-2.0208,-2.0537,-2.0507,-2.0394,-2.0321,-1.9862,-1.9381,-1.8951,-1.9045,-1.9125,-1.9125,-1.9272,-1.9424,-1.9424,-1.9165,-1.8918,-1.8624,-1.833,-1.8029,-1.7722,-1.7629,-1.7582,-1.7582,-1.7582,-1.7582,-1.7582,-1.7582,-1.7582,-1.7635,-1.774,-1.8055,-1.8422,-1.881,-1.9123,-1.9279,-1.9279,-1.9931,-2.0987,-2.2089,-2.3135,-2.4137,-2.4442,-2.502,-2.5693,-2.5693,-2.5693,-2.5693,-2.5693,-2.5693,-2.5693,-2.5693,-2.5693,-2.5693,-2.5693,-2.5693,-2.5693,-2.5693,-2.5693,-2.5693,-2.5693,-2.5693,-2.5693,-2.5693,-2.5693,-2.5732,-2.5781,-2.6014,-2.6294,-2.6544,-2.6842,-2.7081,-2.7262,-2.7119,-2.703,-2.7086,-2.7123,-2.7123,-2.7123,-2.7226,-2.7309,-2.7309,-2.7309,-2.7309,-2.7309,-2.7309,-2.7309,-2.7309,-2.7309,-2.7372,-2.7438,-2.7486,-2.7665,-2.811,-2.8245,-2.9027,-3.0464,-3.0604,-3.184,-1.6608,0.0,-1.7895,-1.8384,-1.8663,-1.8715,-1.8357,-1.8789,-1.9162,-1.884,-1.9038,-1.9279,-1.9279,-1.9603,-1.9879,-2.0146,-2.0016,-1.9927,-2.0286,-1.9512,-1.8931,-1.8925,-1.8684,-1.8517,0.0,-1.9032,-1.9424,-1.9424,-1.9417,-1.9225,-1.8925,-1.8637,-1.8337,-1.7989,-1.7742,-1.7582,-1.7582,-1.7582,-1.7582,-1.7582,-1.7582,-1.7582,-1.7635,-1.816,-1.837,-1.8422,-1.9011,-1.9272,-1.9279,-1.9279,-1.9931,-2.0987,-2.2089,-2.3135,-2.4245,-2.5274,-2.5684,-2.5693,-2.5693,-2.5693,-2.5693,-2.5693,-2.5693,-2.5693,-2.5693,-2.5693,-2.5693,-2.5693,-2.5693,-2.5693,-2.5693,-2.5693,-2.5693,-2.5693,-2.5693,-2.5693,-2.5693,-2.5693,-2.5781,-2.6052,-2.6294,-2.6544,-2.6853,-2.7129,-2.7309,-2.7309,-2.7309,-2.7143,-2.6698,-2.6635,-2.6635,-2.6635,-2.704,-2.7309,-2.7309,-2.7309,-2.7309,-2.7309,-2.7309,-2.7309,-2.7309,-2.7309,-2.7458,-2.7893,-2.7903,-2.8131,-2.8597,-2.9042,-2.927,-2.9362,-2.9818,-3.063,-1.7076,0.0,-1.8745,-1.909,-1.9143,-1.9081,-1.8972,-1.9118,-1.9294,-1.9133,-1.903,-1.9023,-1.9235,-1.9367,-1.9616,-2.0095,-2.0287,-2.0301,-2.0005,-1.9882,-1.9446,-1.841,-1.8597,0.0,0.0,0.0,0.0,-1.9058,-1.9072,-1.9032,-1.8925,-1.8651,-1.8357,-1.8002,-1.7742,-1.7582,-1.7582,-1.7582,-1.7582,-1.7582,-1.7582,-1.7582,-1.7635,-1.816,-1.8422,-1.8422,-1.9063,-1.9279,-1.9279,-1.9279,-1.9931,-2.0987,-2.2089,-2.3135,-2.4245,-2.5323,-2.5693,-2.5693,-2.5693,-2.5693,-2.5693,-2.5693,-2.5693,-2.5693,-2.5693,-2.5693,-2.5693,-2.5693,-2.5693,-2.5693,-2.5693,-2.5693,-2.5693,-2.5693,-2.5693,-2.5693,-2.5693,-2.583,-2.6004,-2.6091,-2.6448,-2.6794,-2.69,-2.7129,-2.7309,-2.7309,-2.704,-2.6791,-2.6635,-2.6345,-2.6159,-2.6159,-2.6293,-2.6387,-2.6387,-2.6387,-2.6387,-2.6387,-2.6677,-2.6853,-2.6853,-2.7376,-2.7769,-2.7924,-2.8224,-2.8607,-2.9073,-2.9228,-2.9466,-2.9766,-2.9922,-3.095,-1.7224,-1.8122,-1.9011,-1.9363,-1.9376,-1.9279,-1.9279,-1.9279,-1.9279,-1.9279,-1.8921,-1.8716,-1.9038,-1.8913,-1.9001,-1.9769,-1.9939,-1.9952,-1.9829,-1.9722,-1.9282,-1.8325,-1.8343,-1.8297,0.0,0.0,0.0,-1.8885,-1.8925,-1.8971,-1.9078,-1.8704,-1.8404,-1.8217,-1.7796,-1.7582,-1.7582,-1.7582,-1.7582,-1.7582,-1.7582,-1.7582,-1.7635,-1.816,-1.8422,-1.8422,-1.9063,-1.9279,-1.9279,-1.9279,-1.9931,-2.0987,-2.2089,-2.3135,-2.4245,-2.5323,-2.5693,-2.5693,-2.5693,-2.5693,-2.5693,-2.5693,-2.5693,-2.5693,-2.5693,-2.5693,-2.5693,-2.5693,-2.5693,-2.5693,-2.5693,-2.5693,-2.5693,-2.5693,-2.5693,-2.5732,-2.583,-2.5955,-2.6149,-2.6352,-2.6651,-2.6999,-2.7201,-2.7404,-2.7486,-2.733,-2.6915,-2.6615,-2.6615,-2.6356,-2.6169,-2.6169,-2.6324,-2.6418,-2.6418,-2.6517,-2.661,-2.661,-2.7044,-2.7303,-2.7303,-2.7862,-2.8245,-2.8411,-2.8711,-2.9094,-2.9549,-2.9549,-2.9704,-2.9994,-2.9994,-3.094,-1.7232,-1.801,-1.8775,-1.9177,-1.9286,-1.9294,-1.9279,-1.9279,-1.9324,-1.9257,-1.8745,-1.8386,0.0,0.0,-1.8145,-1.9074,-1.9045,-1.9054,-1.9696,-1.9076,-1.8524,0.0,0.0,0.0,0.0,0.0,0.0,-1.8858,0.0,-1.9038,-1.941,-1.8824,-1.8504,-1.849,-1.7916,-1.7602,-1.7582,-1.7582,-1.7582,-1.7582,-1.7582,-1.7635,-1.7635,-1.816,-1.8422,-1.8475,-1.9063,-1.9279,-1.9279,-1.9376,-1.9983,-2.103,-2.2139,-2.3185,-2.4245,-2.5323,-2.5693,-2.5693,-2.5693,-2.5693,-2.5693,-2.5693,-2.5693,-2.5693,-2.5693,-2.5693,-2.5693,-2.5713,-2.5703,-2.5693,-2.5713,-2.5752,-2.5732,-2.5732,-2.5732,-2.583,-2.6052,-2.6139,-2.6294,-2.6805,-2.69,-2.7129,-2.7772,-2.7883,-2.7759,-2.7403,-2.6967,-2.6667,-2.6625,-2.6594,-2.6594,-2.6615,-2.7009,-2.7278,-2.7309,-2.7645,-2.7883,-2.7883,-2.8328,-2.8576,-2.8576,-2.8628,-2.8856,-2.9301,-2.9332,-2.9559,-2.9994,-2.9994,-2.9994,-2.9994,-2.9994,-3.0588,-1.8552,-1.9213,-1.9732,-1.9398,-1.9514,-1.9632,-1.9382,-1.9279,-1.9206,-1.8964,-1.8584,-1.8182,0.0,0.0,0.0,-1.8511,-1.9117,0.0,-1.9506,-1.9463,0.0,-1.8599,0.0,-1.8497,-1.8277,-1.8257,0.0,0.0,-1.8724,-1.8824,-1.9339,-1.9011,-1.8718,-1.8497,-1.8123,-1.7816,-1.7589,-1.7582,-1.7582,-1.7582,-1.7582,-1.7687,-1.7911,-1.8272,-1.8534,-1.881,-1.9175,-1.9279,-1.9376,-2.0181,-2.0629,-2.1089,-2.2935,-2.384,-2.4245,-2.5323,-2.5693,-2.5693,-2.5693,-2.5693,-2.5693,-2.5693,-2.5693,-2.5693,-2.5693,-2.5693,-2.5752,-2.6133,-2.5986,-2.5762,-2.6143,-2.6114,-2.6004,-2.6004,-2.6159,-2.6304,-2.64,-2.6544,-2.6747,-2.6853,-2.7081,-2.7256,-2.7407,-2.7427,-2.75,-2.7728,-2.7655,-2.7334,-2.6698,-2.6314,-2.6231,-2.6573,-2.6718,-2.6926,-2.7278,-2.7413,-2.7427,-2.7427,-2.7852,-2.81,-2.81,-2.8763,-2.9187,-2.9301,-2.9642,-2.988,-2.9994,-2.9994,-2.9994,-2.9994,-2.9994,-3.0991,-1.9383,-1.9843,-2.0101,-1.9625,-1.9683,-1.9654,-1.8986,-1.8847,-1.8716,-1.8247,-1.7889,0.0,-1.7186,-1.753,0.0,0.0,0.0,0.0,-1.9366,-1.9263,-1.9068,0.0,-1.8711,0.0,-1.8504,-1.849,-1.8611,0.0,-1.8771,-1.8878,-1.9339,-1.9085,-1.8844,-1.8684,-1.8397,-1.8096,-1.7789,-1.7789,-1.7716,-1.7582,-1.7747,-1.7859,-1.8016,-1.8436,-1.8705,-1.8921,-1.9175,-1.9583,-2.0034,-2.0629,-2.143,-2.245,-2.3849,-2.4569,-2.4883,-2.5692,-2.6025,-2.6025,-2.6025,-2.6143,-2.6191,-2.581,-2.5693,-2.5693,-2.5693,-2.582,-2.6074,-2.6318,-2.6348,-2.6309,-2.6507,-2.6478,-2.6387,-2.6295,-2.64,-2.6544,-2.6651,-2.6794,-2.6948,-2.7034,-2.7332,-2.7489,-2.734,-2.7475,-2.7572,-2.7624,-2.7634,-2.7448,-2.6988,-2.6993,-2.7179,-2.7438,-2.7469,-2.7572,-2.7831,-2.8038,-2.8162,-2.8162,-2.8576,-2.8835,-2.8835,-2.9332,-2.9611,-2.9611,-2.986,-2.9994,-2.9994,-2.9994,-2.9994,-2.9994,-2.9994,-3.1146,-1.9885,-2.0062,-2.0216,-1.9857,-1.9852,-1.9557,-1.8533,-1.8299,-1.8101,-1.7406,0.0,-1.6888,-1.6844,-1.7084,-1.7388,-1.7765,0.0,-1.8586,-1.9201,-1.8898,-1.8657,-1.8945,-1.8758,-1.8611,-1.8611,-1.8611,-1.8711,-1.8965,-1.8985,-1.9092,-1.9352,-1.9125,-1.8965,-1.8925,-1.8644,-1.8364,-1.8055,-1.8009,-1.7856,-1.7642,-1.792,-1.8058,-1.8069,-1.8738,-1.9022,-1.9038,-1.9293,-1.9999,-2.0948,-2.1054,-2.2316,-2.4257,-2.4738,-2.5291,-2.582,-2.625,-2.6387,-2.6396,-2.6455,-2.6709,-2.6885,-2.6084,-2.581,-2.5849,-2.5791,-2.6084,-2.6396,-2.6455,-2.665,-2.6818,-2.6725,-2.6755,-2.6724,-2.6597,-2.6592,-2.6688,-2.69,-2.6948,-2.7034,-2.7262,-2.7572,-2.7717,-2.7372,-2.7583,-2.7728,-2.7396,-2.7392,-2.7413,-2.7475,-2.8017,-2.8483,-2.8597,-2.8618,-2.8659,-2.8794,-2.9166,-2.9373,-2.9311,-2.9684,-2.988,-2.9818,-2.987,-2.9901,-2.9901,-2.9963,-2.9994,-2.9994,-2.9994,-2.9994,-2.9994,-3.0141,-3.13,-1.9996,-2.0391,-2.0501,-1.9962,-1.9959,-1.9828,-1.8584,-1.8299,0.0,0.0,-1.6939,-1.6822,-1.6551,-1.693,-1.7388,-1.7765,-1.8124,-1.8586,-1.9201,-1.902,-1.8958,0.0,-1.9245,-1.9212,-1.9212,-1.9212,0.0,0.0,-1.9292,-1.9312,-1.9424,-1.9319,-1.9178,-1.8931,-1.8644,-1.8464,-1.841,-1.8115,-1.7962,-1.7909,-1.8232,-1.8362,-1.8338,-1.9223,-1.9646,-1.9628,-1.9681,-2.0295,-2.135,-2.1961,-2.3186,-2.4753,-2.5307,-2.5819,-2.6279,-2.6357,-2.6387,-2.6435,-2.6787,-2.6953,-2.6934,-2.6435,-2.6514,-2.6728,-2.6377,-2.6328,-2.6465,-2.6807,-2.6445,-2.6074,-2.6636,-2.6693,-2.6597,-2.6777,-2.6986,-2.7167,-2.7214,-2.7214,-2.7262,-2.7309,-2.7372,-2.7392,-2.732,-2.7372,-2.7469,-2.7769,-2.781,-2.7945,-2.8328,-2.7862,-2.7779,-2.8535,-2.8618,-2.8918,-2.9684,-2.9829,-2.9715,-2.9332,-2.9384,-2.9259,-2.8866,-2.9228,-2.9425,-2.9425,-2.9798,-2.9994,-2.9994,-2.9994,-2.9994,-3.0047,-3.0888,-3.1993,-2.0355,-2.0728,-2.0823,-2.0172,-2.012,-1.9752,-1.8167,0.0,0.0,0.0,-1.625,-1.6265,-1.5935,-1.6409,0.0,-1.6892,-1.7111,-1.7585,-1.8317,-1.8306,0.0,-1.9065,-1.9272,-1.9424,-1.9424,-1.9424,-1.9424,-1.9424,-1.9424,-1.9424,-1.9424,-1.9424,-1.9299,-1.9158,-1.9018,-1.8871,-1.8718,-1.8571,-1.8375,-1.8277,-1.8762,-1.8944,-1.8973,-1.9704,-1.9986,-2.0011,-2.0011,-2.0635,-2.1663,-2.2684,-2.3857,-2.5126,-2.6314,-2.6728,-2.6709,-2.6709,-2.6865,-2.7051,-2.7021,-2.7305,-2.7607,-2.7187,-2.7031,-2.6973,-2.6777,-2.6875,-2.71,-2.7295,-2.732,-2.7326,-2.7601,-2.7693,-2.7731,-2.7793,-2.7878,-2.7966,-2.7966,-2.7966,-2.7966,-2.7966,-2.7769,-2.7676,-2.7924,-2.7769,-2.7676,-2.7893,-2.7924,-2.7924,-2.7914,-2.7579,-2.7614,-2.8514,-2.8618,-2.8794,-2.9239,-2.928,-2.9177,-2.8959,-2.8949,-2.8845,-2.8618,-2.8825,-2.8949,-2.8949,-2.9166,-2.9394,-2.9642,-2.988,-3.0118,-3.0409,-3.1759,-3.2942,-2.0792,-2.1011,-2.1114,-2.0398,-2.0183,-1.9672,-1.7724,-1.7279,0.0,0.0,-1.5593,-1.571,-1.5528,0.0,-1.6263,0.0,-1.6185,-1.6574,-1.75,-1.7671,-1.7989,0.0,-1.9185,0.0,-1.9424,-1.9424,0.0,-1.9424,-1.9424,-1.9424,-1.9424,-1.9424,-1.9424,-1.9424,-1.9424,-1.9259,-1.9018,-1.8958,-1.8804,-1.8584,-1.9181,-1.9471,-1.9408,-2.0101,-2.0406,-2.0285,-2.0285,-2.1084,-2.2344,-2.3216,-2.4447,-2.5871,-2.7091,-2.7373,-2.7148,-2.7051,-2.7236,-2.748,-2.7139,-2.7519,-2.8105,-2.7826,-2.749,-2.7275,-2.7178,-2.7444,-2.777,-2.777,-2.8157,-2.8528,-2.8428,-2.8604,-2.8717,-2.86,-2.8618,-2.8618,-2.8618,-2.8618,-2.8618,-2.8618,-2.8317,-2.8183,-2.8556,-2.8307,-2.8069,-2.8069,-2.7937,-2.7831,-2.7631,-2.7506,-2.7676,-2.839,-2.8462,-2.8504,-2.8607,-2.87,-2.8721,-2.8618,-2.8711,-2.8711,-2.8618,-2.8711,-2.8804,-2.8907,-2.9011,-2.929,-2.9746,-3.0118,-3.0481,-3.0897,-3.264,-3.3896,-2.1062,-2.135,-2.1398,-2.0454,-2.0183,-1.9672,-1.7724,0.0,-1.6921,-1.5652,-1.5411,-1.5513,-1.5783,0.0,0.0,0.0,0.0,-1.6539,-1.7449,-1.7807,-1.8182,-1.8851,0.0,0.0,-1.9424,-1.9424,-1.9424,-1.9424,-1.9424,-1.9424,-1.9424,-1.9424,-1.9424,-1.9424,-1.9424,-1.941,-1.9325,-1.9058,-1.8911,-1.8885,-1.9492,-1.9619,-1.9429,-2.0563,-2.0955,-2.0676,-2.0676,-2.186,-2.3877,-2.3698,-2.5151,-2.7454,-2.7165,-2.7295,-2.7559,-2.7168,-2.7041,-2.707,-2.7021,-2.7324,-2.7767,-2.7728,-2.79,-2.8105,-2.7777,-2.7835,-2.8053,-2.8053,-2.8021,-2.7995,-2.8177,-2.8258,-2.8298,-2.8568,-2.8618,-2.8618,-2.8618,-2.8618,-2.8618,-2.8618,-2.8587,-2.8566,-2.8607,-2.8576,-2.8556,-2.8556,-2.8193,-2.8059,-2.8442,-2.8121,-2.7893,-2.7976,-2.7937,-2.8152,-2.8576,-2.9001,-2.9063,-2.8638,-2.9011,-2.9052,-2.8628,-2.9021,-2.9435,-2.986,-3.0284,-3.0729,-3.1184,-3.1226,-3.1267,-3.1363,-3.3579,-3.4618,-2.0984,-2.1131,-2.0977,-2.0347,-2.0091,-1.9491,-1.7728,0.0,-1.6921,-1.5652,-1.5389,-1.5425,-1.5557,-1.5318,0.0,0.0,0.0,0.0,-1.617,-1.6656,-1.7328,-1.8229,-1.8811,0.0,0.0,0.0,-1.9424,-1.9424,-1.9424,-1.9424,-1.9424,-1.9424,-1.9424,-1.9424,-1.9424,-1.9424,-1.9424,-1.9252,-1.9192,-1.9192,-1.9809,-2.0025,-1.997,-2.0801,-2.1137,-2.1013,-2.1013,-2.1951,-2.3466,-2.4023,-2.5307,-2.704,-2.7578,-2.7891,-2.7959,-2.7275,-2.7178,-2.7373,-2.7109,-2.7305,-2.7757,-2.7959,-2.827,-2.8538,-2.837,-2.8512,-2.8713,-2.8713,-2.8802,-2.893,-2.9013,-2.9168,-2.9332,-2.9394,-2.9446,-2.9446,-2.9446,-2.9446,-2.9446,-2.9446,-2.9218,-2.9114,-2.9394,-2.9218,-2.9032,-2.9032,-2.8866,-2.8721,-2.8628,-2.8452,-2.8338,-2.8338,-2.8338,-2.8297,-2.8204,-2.8618,-2.8804,-2.8628,-2.8794,-2.8804,-2.8618,-2.9063,-2.9394,-2.958,-3.0036,-3.0501,-3.0967,-3.1236,-3.1516,-3.184,-3.3704,-3.4588,-2.0733,-2.0795,-2.0634,-2.0289,-1.985,-1.9118,0.0,-1.7252,-1.6733,-1.5608,-1.5389,-1.5389,-1.5389,-1.5041,-1.4692,0.0,0.0,-1.4596,-1.5297,-1.5979,-1.674,0.0,0.0,-1.8784,0.0,-1.9323,-1.9424,-1.9424,-1.9424,-1.9424,-1.9424,-1.9424,-1.9424,-1.9424,-1.9424,-1.9424,-1.9424,-1.9424,-1.9424,-1.954,-2.0046,-2.0328,-2.0443,-2.0974,-2.1211,-2.1211,-2.1211,-2.2093,-2.3584,-2.4339,-2.5617,-2.7133,-2.796,-2.8291,-2.8203,-2.748,-2.7324,-2.7432,-2.7119,-2.7217,-2.7549,-2.7969,-2.8459,-2.8834,-2.8834,-2.9036,-2.9237,-2.9237,-2.9501,-2.9722,-2.9722,-2.9879,-2.9994,-2.9994,-2.9994,-2.9994,-2.9994,-2.9994,-2.9994,-2.9994,-2.9735,-2.9611,-2.9942,-2.9725,-2.9508,-2.9508,-2.9394,-2.9239,-2.9052,-2.8897,-2.8825,-2.8825,-2.8938,-2.8783,-2.8183,-2.8556,-2.8825,-2.8825,-2.8949,-2.9083,-2.9228,-2.9539,-2.9839,-3.0108,-3.0429,-3.0833,-3.1288,-3.1619,-3.194,-3.225,-3.377,-3.448,-2.0204,-2.0427,-2.0619,-2.0292,-1.9513,-1.8628,-1.7962,-1.7069,-1.6242,-1.5562,-1.5389,-1.5389,-1.5389,-1.5041,-1.4692,-1.4692,0.0,0.0,-1.5351,-1.6152,-1.6814,0.0,0.0,-1.8115,-1.847,-1.9025,-1.9424,-1.9424,-1.9424,0.0,-1.9424,-1.9424,-1.9424,-1.9424,-1.9424,-1.9424,-1.9424,-1.9424,-1.9533,-1.9815,-2.0155,-2.0443,-2.0716,-2.1024,-2.1211,-2.1211,-2.1211,-2.2531,-2.4671,-2.4727,-2.6109,-2.8291,-2.8291,-2.8291,-2.8242,-2.7812,-2.7393,-2.7021,-2.7012,-2.7021,-2.709,-2.7529,-2.8318,-2.9079,-2.9079,-2.9343,-2.9606,-2.9606,-2.9774,-2.9994,-2.9994,-2.9994,-2.9994,-2.9994,-2.9994,-2.9994,-2.9994,-2.9994,-2.9994,-2.9994,-2.9994,-2.9984,-2.9994,-2.9994,-2.9984,-2.9984,-2.9601,-2.9466,-2.9922,-2.958,-2.9301,-2.9301,-2.9704,-2.9611,-2.868,-2.9032,-2.9301,-2.9301,-2.9725,-3.018,-3.0646,-3.0667,-3.1091,-3.1946,-3.1957,-3.2194,-3.2659,-3.2659,-3.2659,-3.2727,-3.3931,-3.448,-1.9162,-1.9324,-1.9406,-1.925,-1.8679,-1.7955,-1.7311,-1.6793,-1.6191,-1.5562,-1.5389,-1.5389,-1.5389,-1.5041,-1.4831,-1.525,0.0,0.0,0.0,0.0,0.0,-1.7388,-1.8337,-1.8985,0.0,0.0,-1.9424,-1.9424,-1.9424,-1.9424,-1.9424,-1.9424,-1.9424,-1.9424,-1.9424,-1.9424,-1.9424,-1.9424,-1.9533,-1.9815,-2.0155,-2.0443,-2.0716,-2.1024,-2.1653,-2.2425,-2.2425,-2.3751,-2.5908,-2.5908,-2.6853,-2.8291,-2.8291,-2.8291,-2.8242,-2.7875,-2.763,-2.7461,-2.7461,-2.7461,-2.7529,-2.7959,-2.8459,-2.8834,-2.8834,-2.93,-2.9879,-2.9879,-2.9942,-2.9994,-2.9994,-2.9994,-2.9994,-2.9994,-2.9994,-2.9994,-2.9994,-2.9994,-2.9994,-2.9994,-2.9994,-2.9994,-2.9994,-2.9994,-2.9994,-2.9994,-2.987,-2.9829,-2.9973,-2.987,-2.9777,-2.9777,-2.9911,-2.9746,-2.9135,-2.9508,-2.9777,-2.9777,-2.9911,-3.0201,-3.0667,-3.0988,-3.1433,-3.1977,-3.2297,-3.2525,-3.2669,-3.2669,-3.2514,-3.2261,-3.2958,-3.3535,-1.8116,-1.824,-1.8262,-1.8394,-1.7845,-1.7194,-1.6961,-1.6418,-1.5899,-1.5469,-1.5389,-1.5389,-1.5389,-1.5041,-1.4817,-1.5201,-1.512,0.0,0.0,0.0,0.0,-1.7675,0.0,0.0,0.0,-1.9299,-1.9424,-1.9424,-1.9424,-1.9424,-1.9424,-1.9424,-1.9424,-1.954,-1.9424,-1.9424,-1.954,-1.9533,-1.9989,-2.0831,-2.106,-2.1502,-2.2225,-2.241,-2.2918,-2.3631,-2.3631,-2.4744,0.0,-2.6527,-2.7187,-2.8291,-2.8291,-2.8291,-2.8262,-2.7998,-2.7855,-2.7738,-2.7851,-2.7855,-2.7787,-2.8154,-2.8558,-2.8877,-2.8993,-2.9406,-2.9879,-2.9994,-2.9994,-2.9994,-2.9994,-2.9994,-2.9994,-2.9994,-2.9994,-2.9994,-2.9994,-2.9994,-2.9994,-2.9994,-2.9994,-2.9994,-2.9994,-2.9994,-2.9994,-2.9994,-2.9994,-2.9994,-2.9994,-2.9994,-2.9994,-2.9994,-2.9994,-2.988,-2.9591,-2.9829,-2.9994,-2.9994,-3.016,-3.046,-3.0926,-3.1381,-3.1836,-3.2235,-3.2359,-3.2411,-3.2411,-3.2302,-3.2157,-3.1988,-3.2277,-3.279,0.0,-1.7184,-1.7333,-1.764,-1.7018,-1.6463,-1.6763,-1.6082,0.0,-1.5389,-1.5389,-1.5389,-1.5389,-1.5041,-1.4706,-1.4748,0.0,0.0,0.0,-1.6199,0.0,0.0,-1.837,0.0,-1.8925,-1.9205,-1.9424,-1.9424,-1.9424,-1.9424,-1.9424,-1.9424,-1.9533,-1.9815,-1.9591,-1.9591,-1.9815,-1.9815,-2.0716,-2.2523,-2.2523,-2.3287,-2.4727,-2.4727,-2.4727,-2.4837,-2.4837,-2.5507,-2.6636,-2.6636,-2.7295,-2.8291,-2.8291,-2.8291,-2.8291,-2.8291,-2.8047,-2.7826,-2.8154,-2.8037,-2.7826,-2.8164,-2.8654,-2.9132,-2.9448,-2.9606,-2.9659,-2.9942,-2.9994,-2.9994,-2.9994,-2.9994,-2.9994,-2.9994,-2.9994,-2.9994,-2.9994,-2.9994,-2.9994,-2.9994,-2.9994,-2.9994,-2.9994,-2.9994,-2.9994,-2.9994,-2.9994,-2.9994,-2.9994,-2.9994,-2.9994,-2.9994,-2.9994,-2.9994,-2.9994,-2.9994,-2.9994,-2.9994,-3.0398,-3.0843,-3.1309,-3.1723,-3.2101,-3.2623,-3.2153,-3.1957,-3.1988,-3.1619,-3.164,-3.1988,-3.2019,-3.2302,-1.579,0.0,-1.6616,-1.6689,-1.6367,-1.6045,0.0,-1.5767,-1.5389,-1.5389,-1.5389,-1.5389,-1.5389,-1.5041,-1.4845,-1.532,0.0,0.0,-1.5718,0.0,0.0,-1.8555,-1.8978,-1.9185,-1.9259,-1.9325,-1.9424,-1.9424,-1.9424,-1.9424,-1.9424,-1.9591,-1.9758,-1.9815,-1.9989,-2.0104,-2.0155,-2.0155,-2.0945,-2.2523,-2.2523,-2.3287,-2.4727,-2.4727,-2.5177,-2.6073,-2.6073,-2.6735,-2.7906,-2.7906,-2.8014,-2.8291,-2.8291,-2.8291,-2.8291,-2.8291,-2.8232,-2.8164,-2.8262,-2.8232,-2.8164,-2.8262,-2.8514,-2.8834,-2.9132,-2.9564,-2.9942,-2.9994,-2.9994,-2.9994,-2.9994,-2.9994,-2.9994,-2.9994,-2.9994,-2.9994,-2.9994,-2.9994,-2.9994,-2.9994,-2.9994,-2.9994,-2.9994,-2.9994,-2.9994,-2.9994,-2.9994,-2.9994,-2.9994,-2.9994,-2.9994,-2.9994,-2.9994,-2.9994,-2.9994,-2.9994,-2.9994,-2.9994,-3.0098,-3.0367,-3.0833,-3.0946,-3.1226,-3.1681,-3.1588,-3.1702,-3.1988,-3.1884,-3.1884,-3.1988,-3.2349,-3.2924,-1.5389,-1.5789,-1.6162,-1.6162,-1.6038,-1.5913,-1.5913,-1.5622,-1.5389,0.0,0.0,0.0,0.0,0.0,0.0,0.0,-1.5493,0.0,0.0,0.0,-1.8277,-1.9038,-1.9265,-1.9424,0.0,-1.9424,-1.9424,-1.9424,-1.9424,-1.9424,-1.9424,-1.9642,-1.9873,-2.004,-2.0328,-2.0493,-2.0493,-2.0493,-2.1224,-2.2749,-2.3239,-2.4236,-2.5562,-2.6118,-2.6735,-2.7359,-2.7359,-2.7682,-2.8291,-2.8291,-2.8291,-2.8291,-2.8291,-2.8291,-2.8291,-2.8291,-2.8291,-2.8291,-2.8291,-2.8291,-2.8291,-2.8291,-2.8461,-2.8737,-2.8877,-2.9353,-2.9827,-2.9994,-2.9994,-2.9994,-2.9994,-2.9994,-2.9994,-2.9994,-2.9994,-2.9994,-2.9994,-2.9994,-2.9994,-2.9994,-2.9994,-2.9994,-2.9994,-2.9994,-2.9994,-2.9994,-2.9994,-2.9994,-2.9994,-2.9994,-2.9994,-2.9994,-2.9994,-2.9994,-2.9994,-2.9994,-2.9994,-2.9994,-3.0191,-3.0429,-3.0677,-3.1081,-3.1433,-3.1681,-3.1681,-3.1702,-3.1733,-3.1733,-3.1836,-3.1988,-3.2246,-3.2713,-1.5447,-1.5738,-1.5965,-1.587,-1.5877,-1.5906,-1.5855,0.0,0.0,0.0,0.0,0.0,0.0,-1.533,0.0,0.0,0.0,0.0,-1.7608,-1.819,-1.8711,-1.9357,-1.9424,0.0,-1.9424,-1.9424,-1.9424,-1.9424,-1.9424,-1.9424,-1.9482,-1.97,-2.0046,-2.0328,-2.0608,-2.078,-2.078,-2.078,-2.1623,-2.3255,-2.4228,-2.5452,-2.6808,-2.7843,-2.8291,-2.8291,-2.8291,-2.8291,-2.8291,-2.8291,-2.8291,-2.8291,-2.8291,-2.8291,-2.8291,-2.8291,-2.8291,-2.8291,-2.8291,-2.8291,-2.8291,-2.8354,-2.8568,-2.8781,-2.8834,-2.9195,-2.9722,-2.9942,-2.9994,-2.9994,-2.9994,-2.9994,-2.9994,-2.9994,-2.9994,-2.9994,-2.9994,-2.9994,-2.9994,-2.9994,-2.9994,-2.9994,-2.9994,-2.9994,-2.9994,-2.9994,-2.9994,-2.9994,-2.9994,-2.9994,-2.9994,-2.9994,-3.0056,-3.0098,-3.0098,-3.016,-3.0212,-3.0212,-3.0512,-3.0719,-3.0791,-3.1536,-3.1884,-3.1884,-3.1884,-3.1785,-3.1474,-3.1474,-3.1712,-3.2091,-3.2091,-3.2297,-1.5767,-1.6067,-1.617,-1.5635,-1.5673,-1.584,-1.5528,0.0,0.0,0.0,0.0,0.0,0.0,-1.5654,-1.57,0.0,0.0,-1.7313,0.0,0.0,-1.8711,-1.9357,0.0,-1.9424,-1.9424,-1.9424,-1.9424,-1.9424,-1.9424,-1.9482,-1.97,-2.004,-2.0328,-2.0601,-2.0967,-2.1146,-2.1146,-2.1146,-2.2248,-2.445,-2.4616,-2.5891,-2.8014,-2.8237,-2.8291,-2.8291,-2.8291,-2.8291,-2.8291,-2.8291,-2.8291,-2.8291,-2.8291,-2.8291,-2.8291,-2.8291,-2.8291,-2.8291,-2.8291,-2.8291,-2.8344,-2.8568,-2.8824,-2.9079,-2.9396,-2.9669,-2.9942,-2.9994,-2.9994,-2.9994,-2.9994,-2.9994,-2.9994,-2.9994,-2.9994,-2.9994,-2.9994,-2.9994,-2.9994,-2.9994,-2.9994,-2.9994,-2.9994,-2.9994,-2.9994,-2.9994,-2.9994,-2.9994,-2.9994,-2.9994,-2.9994,-2.9994,-3.0346,-3.0584,-3.0584,-3.0936,-3.1164,-3.1164,-3.0864,-3.0864,-3.1257,-3.1402,-3.1474,-3.1474,-3.1474,-3.1629,-3.1884,-3.1884,-3.2122,-3.2566,-3.2566,-3.2607,-1.5571,-1.5884,-1.6096,-1.5965,-1.6184,-1.6389,-1.6235,-1.606,0.0,0.0,0.0,0.0,0.0,0.0,-1.656,-1.7204,0.0,-1.7883,-1.8591,-1.8711,-1.8885,0.0,0.0,-1.9424,-1.9424,-1.9424,-1.9424,-1.9424,-1.9424,-1.9424,-1.9591,-2.0046,-2.0385,-2.0493,-2.0967,-2.1211,-2.1211,-2.1211,-2.2093,-2.3799,-2.4394,-2.5617,-2.7359,-2.8014,-2.8291,-2.8291,-2.8291,-2.8291,-2.8291,-2.8291,-2.8291,-2.8291,-2.8291,-2.8291,-2.8291,-2.8291,-2.8291,-2.8291,-2.8291,-2.8291,-2.8344,-2.8621,-2.8781,-2.893,-2.9237,-2.9554,-2.9774,-2.9774,-2.9889,-2.9994,-2.9994,-2.9994,-2.9994,-2.9994,-2.9994,-2.9994,-2.9994,-2.9994,-2.9994,-2.9994,-2.9994,-2.9994,-2.9994,-2.9994,-3.0087,-3.0325,-3.0367,-3.046,-3.0708,-3.0739,-3.0739,-3.0739,-3.0936,-3.106,-3.106,-3.1257,-3.1381,-3.1381,-3.1174,-3.1267,-3.1712,-3.1733,-3.1847,-3.2106,-3.2106,-3.2209,-3.2359,-3.2359,-3.2463,-3.2669,-3.2669,-3.2669,-1.5462,-1.5672,-1.5891,-1.6316,0.0,-1.6756,-1.7057,-1.6815,0.0,0.0,0.0,0.0,0.0,-1.6929,0.0,-1.8001,-1.8232,-1.8437,-1.8664,-1.8885,-1.9112,-1.9339,-1.9424,-1.9424,-1.9424,-1.9424,-1.9424,-1.9424,-1.9424,-1.9482,-1.9591,-2.0046,-2.0385,-2.0507,-2.0974,-2.1211,-2.1211,-2.1211,-2.1824,-2.303,-2.3902,-2.4956,-2.6127,-2.7349,-2.7906,-2.7906,-2.8184,-2.8291,-2.8291,-2.8291,-2.8291,-2.8291,-2.8291,-2.8291,-2.8291,-2.8291,-2.8291,-2.8291,-2.8291,-2.8291,-2.8344,-2.8621,-2.8727,-2.8834,-2.9132,-2.9448,-2.9711,-2.9711,-2.9827,-2.9994,-2.9994,-2.9994,-2.9994,-2.9994,-2.9994,-2.9994,-2.9994,-2.9994,-2.9994,-2.9994,-2.9994,-3.0025,-3.0139,-3.016,-3.0315,-3.0781,-3.0853,-3.0977,-3.1329,-3.1381,-3.1381,-3.1381,-3.1464,-3.1578,-3.1681,-3.1692,-3.1692,-3.1692,-3.1588,-3.1733,-3.2132,-3.2142,-3.2308,-3.2669,-3.2669,-3.2669,-3.2669,-3.2669,-3.2669,-3.2669,-3.2669,-3.2669,-1.5673,-1.5637,-1.5606,-1.6265,-1.6177,0.0,-1.7479,-1.7267,0.0,-1.7588,0.0,0.0,0.0,-1.7486,-1.8046,-1.8406,-1.8948,-1.9336,-1.9299,0.0,-1.9345,-1.9424,-1.9424,-1.9424,-1.9424,-1.9424,-1.9424,-1.9424,-1.9424,-1.9649,-2.022,-2.027,-2.0565,-2.1096,-2.1153,-2.1211,-2.1211,-2.1211,-2.1824,-2.2974,-2.3087,-2.3743,-2.4893,-2.6073,-2.6636,-2.669,-2.7789,-2.8291,-2.8291,-2.8291,-2.8291,-2.8291,-2.8291,-2.8291,-2.8291,-2.8291,-2.8291,-2.8291,-2.8291,-2.8291,-2.8344,-2.8621,-2.8877,-2.9132,-2.9448,-2.9774,-2.9994,-2.9994,-2.9994,-2.9994,-2.9994,-2.9994,-2.9994,-2.9994,-2.9994,-2.9994,-2.9994,-2.9994,-2.9994,-2.9994,-2.9994,-3.0129,-3.0563,-3.0636,-3.0791,-3.1257,-3.1329,-3.134,-3.1371,-3.1381,-3.1381,-3.1381,-3.1743,-3.2112,-3.2592,-3.2633,-3.2633,-3.2633,-3.2173,-3.2142,-3.2607,-3.2628,-3.2638,-3.2669,-3.2669,-3.2669,-3.2669,-3.2669,-3.2669,-3.2669,-3.2669,-3.2669,-1.5199,-1.533,-1.5577,-1.6206,-1.6477,0.0,0.0,-1.7642,-1.7636,-1.8296,-1.8195,0.0,0.0,0.0,-1.8441,-1.8993,-1.927,-1.9424,-1.9424,-1.9424,-1.9424,-1.9424,-1.9424,-1.9424,-1.9424,-1.9424,-1.9424,-1.9424,-1.9533,-1.9758,-1.9989,-2.0328,-2.0666,-2.0902,-2.1089,-2.1211,-2.1211,-2.1211,-2.1432,-2.1873,-2.2644,-2.3575,-2.4718,-2.5177,-2.579,-2.6527,-2.6971,-2.7628,-2.8291,-2.8291,-2.8291,-2.8291,-2.8291,-2.8291,-2.8291,-2.8291,-2.8291,-2.8291,-2.8291,-2.8291,-2.8344,-2.8621,-2.8781,-2.893,-2.9185,-2.9501,-2.9774,-2.9774,-2.9879,-2.9994,-2.9994,-2.9994,-2.9994,-2.9994,-2.9994,-2.9994,-2.9994,-2.9994,-2.9994,-2.9994,-2.9994,-3.0139,-3.0605,-3.0688,-3.0936,-3.1671,-3.1785,-3.1899,-3.2178,-3.2219,-3.2219,-3.2219,-3.2308,-3.2483,-3.2659,-3.2669,-3.2669,-3.2669,-3.2514,-3.2494,-3.2669,-3.2669,-3.2669,-3.2669,-3.2669,-3.2669,-3.2669,-3.2669,-3.2669,-3.2669,-3.2669,-3.2669,-1.49,-1.5061,-1.5389,-1.6067,0.0,0.0,-1.7933,-1.8123,-1.8316,-1.9102,-1.8823,-1.8505,-1.8776,0.0,0.0,0.0,-1.9283,-1.9424,-1.9424,-1.9424,-1.9424,-1.9424,-1.9424,-1.9424,-1.9424,-1.9482,-1.954,-1.954,-1.9751,-1.9917,-2.0097,-2.0429,-2.0716,-2.0845,-2.1474,-2.1767,-2.1767,-2.215,-2.215,-2.1759,-2.2974,-2.3575,-2.3631,-2.4339,-2.5177,-2.5963,-2.6744,-2.752,-2.8291,-2.8291,-2.8213,-2.8096,-2.8096,-2.8096,-2.8115,-2.8242,-2.8291,-2.8291,-2.8291,-2.8291,-2.8344,-2.8514,-2.8621,-2.8727,-2.893,-2.9185,-2.9448,-2.9554,-2.9711,-2.9879,-2.9994,-2.9994,-2.9994,-2.9994,-2.9994,-2.9994,-2.9994,-2.9994,-2.9994,-2.9994,-3.0118,-3.0356,-3.0822,-3.1019,-3.1371,-3.2091,-3.2204,-3.2318,-3.2638,-3.2669,-3.2669,-3.2669,-3.2669,-3.2669,-3.2669,-3.2669,-3.2669,-3.2669,-3.2669,-3.2669,-3.2669,-3.2669,-3.2669,-3.2669,-3.2669,-3.2669,-3.2669,-3.2669,-3.2669,-3.2669,-3.2669,-3.2669,-1.49,-1.49,-1.5061,0.0,0.0,0.0,-1.8496,-1.8788,-1.9081,-2.0093,-1.9346,-1.8493,-1.8447,-1.8163,0.0,-1.8444,-1.8985,-1.9424,-1.9424,-1.9424,-1.9424,-1.9424,-1.9424,-1.9424,-1.9424,-1.9649,-1.9815,-1.9815,-1.9903,-2.0185,-2.0658,-2.0651,-2.0773,-2.1211,-2.2369,-2.2982,-2.2982,-2.4125,-2.4125,-2.2974,-2.4125,-2.3463,-2.1318,-2.3631,-2.4727,-2.4837,-2.7232,-2.8291,-2.8291,-2.8291,-2.8037,-2.7708,-2.7708,-2.7718,-2.7767,-2.8135,-2.8291,-2.8291,-2.8291,-2.8291,-2.8291,-2.8291,-2.8461,-2.8684,-2.8684,-2.8877,-2.9185,-2.9501,-2.9606,-2.9659,-2.9942,-2.9994,-2.9994,-2.9994,-2.9994,-2.9994,-2.9994,-2.9994,-2.9994,-2.9994,-3.0367,-3.0833,-3.1298,-3.1743,-3.2142,-3.2607,-3.2669,-3.2669,-3.2669,-3.2669,-3.2669,-3.2669,-3.2669,-3.2669,-3.2669,-3.2669,-3.2669,-3.2669,-3.2669,-3.2669,-3.2669,-3.2669,-3.2669,-3.2669,-3.2669,-3.2669,-3.2669,-3.2669,-3.2669,-3.2669,-3.2669,-3.2669,-1.467,-1.494,0.0,-1.6074,0.0,0.0,0.0,-1.8955,0.0,0.0,-1.966,-1.9181,-1.9361,-1.8987,0.0,-1.8784,-1.9118,-1.9424,-1.9424,-1.9424,-1.9424,-1.9424,-1.9424,-1.9482,-1.9649,-1.9758,-1.9931,-2.0162,-2.0378,-2.0537,-2.0716,-2.0902,-2.1089,-2.1211,-2.1546,-2.1702,-2.1702,-2.2093,-2.2093,-2.1767,-2.2918,-2.3143,-2.2539,-2.4014,-2.5168,-2.6018,-2.6744,-2.752,-2.8271,-2.7969,-2.7598,-2.7207,-2.7207,-2.7393,-2.7738,-2.7803,-2.8037,-2.8291,-2.8291,-2.8291,-2.8291,-2.8291,-2.8344,-2.8408,-2.8408,-2.8621,-2.8887,-2.9185,-2.9396,-2.9659,-2.9942,-2.9994,-2.9994,-2.9994,-2.9994,-2.9994,-2.9994,-2.9994,-2.9994,-2.9994,-3.0367,-3.0833,-3.1298,-3.1743,-3.2142,-3.2607,-3.2669,-3.2669,-3.2669,-3.2669,-3.2669,-3.2669,-3.2669,-3.2669,-3.2669,-3.2669,-3.2669,-3.2669,-3.2669,-3.2669,-3.2669,-3.2669,-3.2669,-3.2669,-3.2669,-3.2669,-3.2669,-3.2669,-3.2669,-3.2669,-3.2669,-3.2669,-1.4867,-1.5313,0.0,-1.6755,-1.7874,-1.8979,-1.9536,0.0,0.0,0.0,-1.9911,-1.959,-1.9639,-1.9258,0.0,-1.8925,-1.9172,-1.9424,-1.9424,-1.9424,-1.9424,-1.954,-1.9533,-1.9649,-1.9982,-2.0097,-2.027,-2.0443,-2.073,-2.0902,-2.0902,-2.1089,-2.1211,-2.1211,-2.1653,-2.215,-2.2587,-2.3095,-2.332,-2.332,-2.4531,-2.4855,-2.442,-2.5075,-2.5799,-2.6527,-2.7025,-2.7533,-2.8018,-2.7588,-2.7158,-2.6768,-2.6768,-2.6924,-2.7258,-2.7591,-2.7822,-2.8066,-2.8232,-2.8291,-2.8291,-2.8291,-2.8291,-2.8291,-2.8291,-2.8398,-2.8621,-2.8973,-2.9237,-2.9501,-2.9889,-2.9994,-2.9994,-2.9994,-2.9994,-2.9994,-2.9994,-2.9994,-2.9994,-2.9994,-3.0522,-3.105,-3.1329,-3.1899,-3.2349,-3.2685,-3.2669,-3.2669,-3.2669,-3.2669,-3.2669,-3.2669,-3.2669,-3.2669,-3.2669,-3.2669,-3.2669,-3.2669,-3.2669,-3.2669,-3.2669,-3.2669,-3.2669,-3.2669,-3.2669,-3.2669,-3.2669,-3.2669,-3.2669,-3.2669,-3.2669,-3.2669,-1.5345,-1.5928,0.0,-1.7655,-1.8438,0.0,-2.0168,-2.0547,-2.0676,-2.0386,0.0,-1.9794,-1.9525,-1.9185,-1.8965,-1.8965,-1.9192,-1.9424,-1.9424,-1.9424,-1.9533,-1.9815,-1.9873,-1.9982,-2.0328,-2.0551,-2.0716,-2.0716,-2.1024,-2.1211,-2.1211,-2.1211,-2.1211,-2.1211,-2.2369,-2.3472,-2.4394,-2.568,-2.63,-2.6191,-2.752,-2.7574,-2.6527,-2.6636,-2.6636,-2.6744,-2.7799,-2.8027,-2.7578,-2.7178,-2.6748,-2.6328,-2.6328,-2.6357,-2.6484,-2.7266,-2.765,-2.7777,-2.8105,-2.8262,-2.8291,-2.8291,-2.8291,-2.8291,-2.8291,-2.8291,-2.8398,-2.892,-2.9079,-2.9237,-2.9827,-2.9994,-2.9994,-2.9994,-2.9994,-2.9994,-2.9994,-2.9994,-2.9994,-2.9994,-3.0739,-3.1381,-3.1381,-3.2126,-3.2669,-3.2669,-3.2669,-3.2669,-3.2669,-3.2669,-3.2669,-3.2669,-3.2669,-3.2669,-3.2669,-3.2669,-3.2669,-3.2669,-3.2669,-3.2669,-3.2669,-3.2669,-3.2669,-3.2669,-3.2669,-3.2669,-3.2669,-3.2669,-3.2669,-3.2669,-3.2669,-3.2669,-1.5681,-1.6272,0.0,0.0,-1.9447,-2.045,-2.087,-2.1051,-2.1009,-2.0651,-2.0386,-2.0172,-2.0115,-1.9669,-1.9272,-1.9272,-1.9325,-1.9482,-1.9707,-1.97,-1.9815,-2.0155,-2.0213,-2.0328,-2.0608,-2.0666,-2.078,-2.1089,-2.1153,-2.1211,-2.1211,-2.1211,-2.1211,-2.1211,-2.2369,-2.2644,-2.1979,-2.4022,-2.4625,-2.3751,-2.5863,-2.6744,-2.6527,-2.7466,-2.7906,-2.7906,-2.8184,-2.7861,-2.7148,-2.7051,-2.6562,-2.583,-2.583,-2.6084,-2.6406,-2.6602,-2.709,-2.7728,-2.7826,-2.8018,-2.8291,-2.8291,-2.8291,-2.8291,-2.8291,-2.8291,-2.8344,-2.8674,-2.893,-2.9185,-2.9554,-2.9827,-2.9994,-2.9994,-2.9994,-2.9994,-2.9994,-2.9994,-2.9994,-2.9994,-3.0739,-3.1381,-3.1381,-3.2126,-3.2669,-3.2669,-3.2669,-3.2669,-3.2669,-3.2669,-3.2669,-3.2669,-3.2669,-3.2669,-3.2669,-3.2669,-3.2669,-3.2669,-3.2669,-3.2669,-3.2669,-3.2669,-3.2669,-3.2669,-3.2669,-3.2669,-3.2669,-3.2669,-3.2669,-3.2669,-3.2669,-3.2669,-1.5921,0.0,0.0,-1.9081,0.0,-2.0998,-2.1167,-2.1211,-2.1146,-2.0967,-2.0615,-2.022,-1.9931,-1.9597,-1.9424,-1.9424,-1.9424,-1.9475,-1.9758,-1.9815,-1.9982,-2.0443,-2.0493,-2.0608,-2.0902,-2.096,-2.1024,-2.1211,-2.1211,-2.1211,-2.1211,-2.1211,-2.1211,-2.1211,-2.1816,-2.2369,-2.2862,-2.3575,-2.4467,-2.5525,-2.6191,-2.6799,-2.7349,-2.8014,-2.8291,-2.8291,-2.8291,-2.7803,-2.7012,-2.7012,-2.6514,-2.5693,-2.5693,-2.583,-2.6103,-2.6309,-2.6797,-2.7383,-2.7598,-2.7939,-2.8291,-2.8291,-2.8291,-2.8291,-2.8291,-2.8291,-2.8237,-2.7941,-2.8422,-2.9016,-2.8784,-2.9386,-2.9994,-2.9994,-2.9994,-2.9994,-2.9994,-2.9994,-3.0056,-3.0284,-3.0895,-3.1443,-3.1661,-3.2271,-3.2669,-3.2669,-3.2669,-3.2669,-3.2669,-3.2669,-3.2669,-3.2669,-3.2669,-3.2669,-3.2669,-3.2669,-3.2669,-3.2669,-3.2669,-3.2669,-3.2669,-3.2669,-3.2669,-3.2669,-3.2669,-3.2669,-3.2669,-3.2669,-3.2669,-3.2669,-3.2669,-3.284,-1.6015,0.0,-1.8079,-1.9752,-2.0728,0.0,-2.1211,-2.1211,-2.1211,-2.1146,-2.068,-2.0162,-1.9649,-1.9482,-1.9424,-1.9424,-1.9424,-1.9475,-1.9758,-1.9873,-2.0097,-2.0658,-2.078,-2.0902,-2.1153,-2.1211,-2.1211,-2.1211,-2.1211,-2.1211,-2.1211,-2.1211,-2.1211,-2.1211,-2.1375,-2.2312,-2.4069,-2.3751,-2.4863,-2.7403,-2.6799,-2.7025,-2.796,-2.796,-2.8121,-2.8291,-2.8291,-2.7803,-2.7012,-2.7012,-2.6514,-2.5693,-2.5693,-2.5693,-2.5732,-2.6143,-2.6543,-2.6973,-2.7402,-2.7832,-2.8193,-2.8271,-2.8291,-2.8237,-2.8067,-2.8121,-2.8067,-2.7105,-2.7921,-2.891,-2.8232,-2.9006,-2.9994,-2.9994,-2.9994,-2.9994,-2.9994,-3.0056,-3.0232,-3.0605,-3.1122,-3.1629,-3.2029,-3.2421,-3.2669,-3.2669,-3.2669,-3.2669,-3.2669,-3.2669,-3.2669,-3.2669,-3.2669,-3.2669,-3.2669,-3.2669,-3.2669,-3.2669,-3.2669,-3.2669,-3.2669,-3.2669,-3.2669,-3.2669,-3.2669,-3.2669,-3.2669,-3.2669,-3.2669,-3.2669,-3.2669,-3.2907,0.0,0.0,-1.9213,0.0,-2.0728,-2.1211,0.0,0.0,-2.1146,0.0,-2.05,-2.027,-2.022,-1.9764,-1.9424,-1.9424,-1.9424,-1.9475,-1.9758,-2.004,-2.0328,-2.0658,-2.0967,-2.1146,-2.1211,-2.1211,-2.1211,-2.1211,-2.1211,-2.1211,-2.1211,-2.1211,-2.1211,-2.1211,-2.2207,-2.2425,-2.1653,-2.4586,-2.525,-2.3751,-2.5634,-2.6581,-2.6744,-2.6744,-2.7295,-2.8291,-2.8291,-2.7803,-2.7012,-2.7012,-2.6514,-2.5693,-2.5693,-2.5693,-2.5693,-2.5752,-2.6094,-2.6533,-2.6953,-2.7383,-2.7865,-2.8174,-2.8291,-2.8121,-2.7079,-2.7457,-2.8067,-2.6907,-2.777,-2.9079,-2.8963,-2.9448,-2.9994,-2.9994,-2.9994,-2.9994,-2.9994,-3.0315,-3.0615,-3.0677,-3.1371,-3.2039,-3.2504,-3.2685,-3.2669,-3.2669,-3.2669,-3.2669,-3.2669,-3.2669,-3.2669,-3.2669,-3.2669,-3.2669,-3.2669,-3.2669,-3.2669,-3.2669,-3.2669,-3.2669,-3.2669,-3.2669,-3.2669,-3.2669,-3.2669,-3.2669,-3.2669,-3.2669,-3.2669,-3.2669,-3.243,-3.254,-1.6067,-1.7691,-1.9199,0.0,-2.0394,-2.0757,-2.1123,0.0,-2.0927,-2.0988,-2.073,-2.0436,-2.0097,-1.9815,-1.9591,-1.9424,-1.9424,-1.9475,-1.9758,-2.0097,-2.0385,-2.0666,-2.1024,-2.1211,-2.1211,-2.1211,-2.1211,-2.1211,-2.1211,-2.1211,-2.1211,-2.1211,-2.1211,-2.1211,-2.1702,-2.2036,-2.2207,-2.3095,-2.3368,-2.303,-2.4689,-2.5507,-2.5507,-2.5507,-2.6509,-2.8237,-2.6898,-2.6679,-2.7312,-2.6351,-2.6015,-2.6084,-2.5781,-2.5693,-2.5693,-2.5693,-2.6016,-2.6416,-2.6602,-2.7109,-2.7748,-2.7933,-2.766,-2.7187,-2.6636,-2.64,-2.6063,-2.4855,-2.6282,-2.7975,-2.7302,-2.8562,-2.9994,-2.9994,-2.9994,-3.0067,-3.0325,-3.0543,-3.0833,-3.134,-3.1981,-3.2432,-3.2638,-3.2669,-3.2669,-3.2669,-3.2669,-3.2669,-3.2669,-3.2669,-3.2669,-3.2669,-3.2669,-3.2669,-3.2669,-3.2669,-3.2669,-3.2669,-3.2669,-3.2669,-3.2669,-3.2669,-3.2669,-3.2669,-3.2669,-3.2669,-3.2669,-3.2669,-3.2669,-3.2669,-3.243,-3.2684,0.0,0.0,-1.865,-1.9623,-2.0,-2.0307,0.0,0.0,-2.0896,0.0,-2.0966,-2.0666,-2.0155,-1.9982,-1.9873,-1.9649,-1.9655,-1.9707,-1.9931,-2.0213,-2.0493,-2.0658,-2.1024,-2.1211,-2.1211,-2.1211,-2.1211,-2.1211,-2.1211,-2.1211,-2.1211,-2.1211,-2.1211,-2.1211,-2.1211,-2.1653,-2.2539,-2.1653,-2.1824,-2.303,-2.3847,-2.4292,-2.4292,-2.4292,-2.5397,-2.7286,-2.5498,-2.5504,-2.6706,-2.5416,-2.5315,-2.5929,-2.5562,-2.5527,-2.5693,-2.5693,-2.5947,-2.6191,-2.6039,-2.6448,-2.7021,-2.6917,-2.6465,-2.5963,-2.5698,-2.5177,-2.4505,-2.3687,-2.5287,-2.7159,-2.6535,-2.8072,-2.9774,-2.9879,-2.9972,-3.0178,-3.076,-3.0957,-3.1267,-3.2008,-3.2432,-3.2669,-3.2669,-3.2669,-3.2669,-3.2669,-3.2669,-3.2669,-3.2669,-3.2669,-3.2669,-3.2669,-3.2669,-3.2669,-3.2669,-3.2669,-3.2669,-3.2669,-3.2669,-3.2669,-3.2669,-3.2669,-3.2669,-3.2669,-3.2669,-3.2669,-3.2669,-3.2669,-3.2669,-3.2612,-3.2315,-3.255,0.0,-1.6674,0.0,-1.8621,-1.9557,0.0,0.0,0.0,-2.1101,-2.0808,-2.0934,-2.1089,-2.0723,-2.0436,-2.027,-2.027,-2.027,-2.027,-2.027,-2.0493,-2.0658,-2.0716,-2.1024,-2.1211,-2.1211,-2.1211,-2.1211,-2.1211,-2.1211,-2.1211,-2.1211,-2.1211,-2.1211,-2.1211,-2.1211,-2.1211,-2.1261,-2.1211,-2.1824,-2.2974,-2.303,-2.3087,-2.3087,-2.3087,-2.3743,-2.4884,-2.4774,-2.4513,-2.4278,-2.4207,-2.4351,-2.4693,-2.4675,-2.5055,-2.5693,-2.5693,-2.5703,-2.5625,-2.5064,-2.5098,-2.5224,-2.4649,-2.4645,-2.4561,-2.3528,-2.3911,-2.4671,-2.4616,-2.5717,-2.7149,-2.8281,-2.8824,-2.9237,-2.9554,-2.9923,-3.0417,-3.1182,-3.1671,-3.206,-3.2545,-3.2659,-3.2669,-3.2669,-3.2669,-3.2669,-3.2669,-3.2669,-3.2669,-3.2669,-3.2669,-3.2669,-3.2669,-3.2669,-3.2669,-3.2669,-3.2669,-3.2669,-3.2669,-3.2669,-3.2669,-3.2669,-3.2669,-3.2669,-3.2669,-3.2669,-3.2669,-3.2669,-3.2669,-3.2555,-3.2305,-3.196,-3.1923,0.0,0.0,0.0,-1.7925,-1.8584,-1.9213,-1.9993,-2.0259,-2.0362,-2.0662,-2.0815,-2.084,-2.0719,-2.0644,-2.0493,-2.0328,-2.027,-2.027,-2.027,-2.0551,-2.0716,-2.0716,-2.1024,-2.1211,-2.1211,-2.1211,-2.1211,-2.1211,-2.1211,-2.1211,-2.1211,-2.1211,-2.1211,-2.1211,-2.1211,-2.1211,-2.1211,-2.1211,-2.1432,-2.1816,-2.1816,-2.1816,-2.1816,-2.1816,-2.2093,-2.2474,-2.2474,-2.3231,-2.4377,-2.3153,-2.3551,-2.492,-2.4459,-2.4839,-2.5635,-2.4913,-2.4658,-2.4529,-2.3622,-2.3718,-2.4158,-2.3927,-2.3741,-2.3528,-2.3143,-2.2757,-2.2644,-2.3416,-2.468,-2.6054,-2.7213,-2.8315,-2.9255,-2.9847,-3.0544,-3.1246,-3.1709,-3.2101,-3.2473,-3.2638,-3.2669,-3.2669,-3.2669,-3.2669,-3.2576,-3.2277,-3.2483,-3.2566,-3.2266,-3.2494,-3.2669,-3.2669,-3.2669,-3.2669,-3.2669,-3.2669,-3.2669,-3.2669,-3.2669,-3.2669,-3.2669,-3.2669,-3.2669,-3.2669,-3.2669,-3.2669,-3.2669,-3.2669,-3.2669,-3.2555,-3.2258,-3.2203,-1.4589,0.0,0.0,0.0,0.0,-1.8189,-1.9594,0.0,-1.9933,-2.0311,-2.0574,-2.0691,-2.0526,-2.0552,-2.0536,-2.0587,-2.0622,-2.0622,-2.0622,-2.073,-2.0845,-2.0845,-2.1089,-2.1167,-2.1057,-2.1121,-2.1134,-2.0889,-2.0952,-2.0952,-2.0881,-2.0881,-2.0933,-2.1042,-2.105,-2.1101,-2.1211,-2.1211,-2.1211,-2.1211,-2.1211,-2.1211,-2.1211,-2.1211,-2.1211,-2.1211,-2.1211,-2.2093,-2.3415,-2.2018,-2.2452,-2.4018,-2.3431,-2.3768,-2.452,-2.384,-2.3543,-2.3411,-2.2486,-2.2522,-2.2941,-2.2699,-2.2498,-2.2425,-2.2425,-2.1816,-2.1539,-2.3135,-2.43,-2.5287,-2.6445,-2.7533,-2.8628,-3.0005,-3.0792,-3.1436,-3.2061,-3.2452,-3.2669,-3.2669,-3.2669,-3.2669,-3.2669,-3.2669,-3.2566,-3.2256,-3.2483,-3.2566,-3.2256,-3.2483,-3.2669,-3.2669,-3.2669,-3.2669,-3.2669,-3.2669,-3.2669,-3.2669,-3.2669,-3.2669,-3.2669,-3.2669,-3.2669,-3.2669,-3.2669,-3.2669,-3.2669,-3.2669,-3.2612,-3.2373,-3.2201,-3.2064,0.0,0.0,0.0,0.0,0.0,0.0,-1.8906,0.0,-1.9749,-1.9808,-2.0252,-2.0533,-2.0241,-2.019,-2.0402,-2.1079,-2.1181,-2.1181,-2.1181,-2.1181,-2.1181,-2.1181,-2.1181,-2.1057,-2.0742,-2.0974,-2.0903,-2.0267,-2.0431,-2.0493,-2.0237,-2.0183,-2.0329,-2.0698,-2.0706,-2.0859,-2.1181,-2.1189,-2.1196,-2.1196,-2.1203,-2.1211,-2.1211,-2.1211,-2.1211,-2.1211,-2.1211,-2.1203,-2.1167,-2.0845,-2.1101,-2.1763,-2.1476,-2.1851,-2.2484,-2.2433,-2.2442,-2.2359,-2.1603,-2.1541,-2.1619,-2.0944,-2.094,-2.1211,-2.1211,-2.1211,-2.1702,-2.4014,-2.4671,-2.4948,-2.62,-2.6609,-2.727,-2.9871,-3.0578,-3.0997,-3.2395,-3.268,-3.2669,-3.2669,-3.2669,-3.2669,-3.2669,-3.2669,-3.2727,-3.2659,-3.2669,-3.2669,-3.2659,-3.2669,-3.2669,-3.2669,-3.2669,-3.2669,-3.2669,-3.2669,-3.2669,-3.2669,-3.2669,-3.2669,-3.268,-3.268,-3.2669,-3.2669,-3.2669,-3.2669,-3.2669,-3.2669,-3.2373,-3.1787,-3.1787,-3.1518,-1.4042,0.0,0.0,0.0,0.0,0.0,0.0,0.0,-1.8106,-1.9522,-1.9718,-1.9791,-2.0117,-2.0373,-2.0511,-2.0516,-2.0501,-2.0501,-2.0501,-2.0501,-2.0501,-2.0501,-2.0501,-2.0416,-2.0321,-2.0307,-2.0215,-2.019,-2.0114,-2.0114,-2.0183,-2.0183,-2.0219,-2.0369,-2.0314,-2.0358,-2.0501,-2.0742,-2.0859,-2.0859,-2.1094,-2.1211,-2.1211,-2.1211,-2.1211,-2.1211,-2.1211,-2.1079,-2.083,-2.0501,-2.0816,-2.1468,-2.1171,-2.163,-2.2391,-2.1641,-2.1507,-2.1534,-2.0559,-2.0601,-2.0977,-2.0747,-2.094,-2.1211,-2.1211,-2.1211,-2.1539,-2.303,-2.3472,-2.4033,-2.6378,-2.726,-2.7995,-3.0157,-3.0886,-3.1339,-3.2227,-3.243,-3.2487,-3.2669,-3.2669,-3.2669,-3.2669,-3.2669,-3.2556,-3.2225,-3.2463,-3.2556,-3.2215,-3.2463,-3.2669,-3.2669,-3.2669,-3.2669,-3.2669,-3.2669,-3.2669,-3.2669,-3.2669,-3.2612,-3.243,-3.243,-3.2315,-3.2028,-3.2028,-3.2028,-3.2028,-3.2315,-3.2305,-3.2143,-3.1903,-3.1736,-1.4055,-1.4318,-1.4772,-1.5192,0.0,0.0,-1.715,-1.7282,-1.7486,0.0,-1.9478,-1.955,-1.9791,-2.0106,-2.0216,-1.9886,-1.9952,-2.0084,-2.0161,-2.0183,-2.0183,-2.0183,-2.0183,-2.0186,-2.0047,-1.9971,-1.9859,-1.9842,-1.9713,-1.9713,-1.9835,-1.9835,-1.9894,-2.0033,-2.004,-2.0106,-2.0183,-2.0373,-2.0533,-2.0728,-2.0918,-2.1079,-2.1211,-2.1211,-2.1211,-2.1203,-2.1064,-2.0823,-2.0494,-2.0172,-2.0291,-2.071,-2.0364,-2.0629,-2.1089,-2.0483,-2.0448,-2.0666,-2.0123,-2.0296,-2.075,-2.0881,-2.1057,-2.1211,-2.1211,-2.1211,-2.1432,-2.2644,-2.2974,-2.3505,-2.5777,-2.6512,-2.719,-2.9336,-3.0412,-3.115,-3.1903,-3.2076,-3.2201,-3.2612,-3.2669,-3.2669,-3.2669,-3.2669,-3.2633,-3.2308,-3.2494,-3.2576,-3.2308,-3.2504,-3.2669,-3.2669,-3.2669,-3.2669,-3.2669,-3.2669,-3.2669,-3.2555,-3.2545,-3.2373,-3.2076,-3.2076,-3.2018,-3.1787,-3.1787,-3.173,-3.1614,-3.1903,-3.2018,-3.1913,-3.1566,-3.1473,-1.4192,-1.4479,-1.4995,-1.5608,-1.516,0.0,-1.7091,-1.7279,-1.7359,0.0,-1.9089,-1.9425,-1.9206,-1.9433,-1.9603,-1.922,-1.9492,-1.9762,-2.0084,-2.0073,-2.0073,-2.0073,-2.0073,-2.0018,-1.9793,-1.9824,-1.9707,-1.9353,-1.9279,-1.9279,-1.9279,-1.9279,-1.9463,-1.9749,-1.9764,-1.9842,-2.0073,-2.0164,-2.0333,-2.0618,-2.0635,-2.0818,-2.1159,-2.1131,-2.1153,-2.1196,-2.0867,-2.0537,-2.0161,-1.9894,-1.9793,-1.9735,-1.9441,-1.9279,-1.9279,-1.9279,-1.9506,-1.9857,-2.0135,-2.0416,-2.0823,-2.1115,-2.1211,-2.1211,-2.1211,-2.1211,-2.1432,-2.2482,-2.2813,-2.3126,-2.4683,-2.5166,-2.5819,-2.8144,-2.9609,-3.0684,-3.1556,-3.173,-3.1913,-3.2555,-3.2669,-3.2669,-3.2669,-3.2669,-3.2669,-3.2669,-3.2669,-3.2669,-3.2669,-3.2669,-3.2669,-3.2669,-3.2669,-3.2669,-3.2669,-3.2612,-3.2498,-3.2258,-3.2248,-3.2076,-3.1787,-3.173,-3.173,-3.1682,-3.1682,-3.1556,-3.1276,-3.1556,-3.1566,-3.1276,-3.1054,-3.0947,-1.4634,-1.4662,-1.4655,-1.4995,-1.4951,0.0,-1.5695,-1.5805,-1.6104,0.0,-1.7713,-1.7947,-1.8408,-1.876,-1.8869,-1.8547,-1.8767,-1.9096,-1.9418,-1.9462,-1.9462,-1.9462,-1.9462,-1.944,-1.9374,-1.9426,-1.9397,-1.9331,-1.9279,-1.9279,-1.9279,-1.9279,-1.9301,-1.9419,-1.9419,-1.9403,-1.9462,-1.9725,-1.9886,-1.9959,-2.0265,-2.054,-2.083,-2.0787,-2.096,-2.1196,-2.0867,-2.0537,-2.0161,-1.9894,-1.9661,-1.9367,-1.9353,-1.9279,-1.9279,-1.9279,-1.9645,-2.015,-2.0161,-2.0625,-2.1123,-2.1189,-2.1211,-2.1211,-2.1211,-2.1211,-2.1268,-2.1489,-2.1539,-2.196,-2.3803,-2.5069,-2.6345,-2.8392,-2.9846,-3.0937,-3.1334,-3.1383,-3.1614,-3.2258,-3.2373,-3.2373,-3.2373,-3.2555,-3.2669,-3.2669,-3.2669,-3.2669,-3.2669,-3.2669,-3.2669,-3.2669,-3.2498,-3.2373,-3.2373,-3.2143,-3.196,-3.1903,-3.1903,-3.173,-3.1383,-3.1383,-3.1276,-3.1064,-3.1064,-3.1054,-3.1005,-3.1276,-3.1276,-3.1005,-3.117,-3.1112,-1.4698,-1.486,-1.5028,-1.5309,-1.5141,0.0,0.0,-1.5782,-1.5943,-1.6894,-1.7216,-1.7381,-1.7757,-1.8086,-1.8247,-1.8086,-1.8467,-1.8789,-1.8789,-1.9067,-1.9279,-1.9279,-1.9279,-1.9279,-1.9279,-1.9279,-1.9279,-1.9279,-1.9279,-1.9279,-1.9279,-1.9279,-1.9279,-1.9279,-1.9279,-1.9279,-1.9279,-1.9492,-1.9654,-1.9823,-1.982,-2.0137,-2.0672,-2.0535,-2.0664,-2.0947,-2.0625,-2.0296,-1.9974,-1.9705,-1.9478,-1.9279,-1.9279,-1.9279,-1.9279,-1.9279,-1.9681,-2.0183,-2.0183,-2.0662,-2.1211,-2.1211,-2.1211,-2.1211,-2.1211,-2.1211,-2.1211,-2.1211,-2.1211,-2.1522,-2.2815,-2.4082,-2.5361,-2.6696,-2.7975,-2.9007,-2.9116,-2.9648,-3.0177,-3.0529,-3.1247,-3.196,-3.243,-3.2612,-3.2669,-3.2487,-3.2487,-3.243,-3.2258,-3.2258,-3.2258,-3.2258,-3.2143,-3.2076,-3.2076,-3.1903,-3.173,-3.1556,-3.1556,-3.145,-3.1112,-3.1112,-3.1054,-3.0889,-3.0889,-3.0889,-3.0889,-3.1054,-3.1054,-3.0889,-3.1054,-3.0684,-1.4871,-1.52,-1.5657,-1.5862,-1.552,-1.5387,0.0,0.0,0.0,0.0,0.0,0.0,0.0,0.0,0.0,-1.7538,0.0,0.0,0.0,-1.8672,0.0,-1.9177,-1.9346,-1.9345,-1.9286,-1.922,-1.9206,-1.9324,-1.922,-1.9213,-1.9324,-1.9279,-1.9279,-1.9279,-1.9279,-1.9279,-1.9279,-1.9279,-1.9463,-1.972,-1.9352,-1.9682,-2.0577,-2.0292,-2.0321,-2.0706,-2.0274,-2.0008,-1.9793,-1.9463,-1.9279,-1.9279,-1.9279,-1.9279,-1.9279,-1.9279,-1.9681,-2.0183,-2.0183,-2.0662,-2.1211,-2.1211,-2.1211,-2.1211,-2.1211,-2.1211,-2.1211,-2.1211,-2.1211,-2.1357,-2.2015,-2.316,-2.4257,-2.4966,-2.6042,-2.7013,-2.7013,-2.8026,-2.892,-2.8979,-3.0236,-3.1556,-3.2326,-3.2498,-3.243,-3.2248,-3.219,-3.2143,-3.1845,-3.1787,-3.1787,-3.1787,-3.173,-3.1672,-3.1672,-3.1672,-3.1498,-3.1218,-3.1218,-3.1112,-3.0889,-3.0889,-3.0889,-3.0889,-3.0889,-3.0889,-3.0889,-3.0645,-3.0645,-3.0889,-3.0645,-2.9903,-1.5789,-1.6067,-1.6206,-1.5972,-1.606,-1.6089,-1.5635,0.0,-1.5855,-1.5635,0.0,0.0,0.0,0.0,0.0,0.0,0.0,0.0,-1.7395,-1.7999,-1.8518,-1.8811,-1.936,-1.9647,-1.9301,-1.9016,-1.8964,-1.9257,-1.9008,-1.8972,-1.9257,-1.9279,-1.9279,-1.9279,-1.9279,-1.9279,-1.9279,-1.9279,-1.9294,-1.9338,-1.9085,-1.9398,-2.0249,-1.9752,-1.9935,-2.065,-2.0108,-1.9845,-1.9793,-1.9463,-1.9279,-1.9279,-1.9279,-1.9279,-1.9279,-1.9279,-1.9681,-2.0183,-2.0183,-2.0662,-2.1211,-2.1211,-2.1211,-2.1211,-2.1211,-2.1211,-2.1211,-2.1211,-2.1211,-2.1357,-2.2015,-2.316,-2.4257,-2.4966,-2.6042,-2.7013,-2.7013,-2.8026,-2.8979,-2.9266,-3.0412,-3.1325,-3.1441,-3.173,-3.1903,-3.1845,-3.1845,-3.1845,-3.1787,-3.1787,-3.1787,-3.1787,-3.1556,-3.1392,-3.1392,-3.1112,-3.1005,-3.0947,-3.0947,-3.0947,-3.0889,-3.0889,-3.0889,-3.0889,-3.0889,-3.0889,-3.0889,-2.9717,-2.9717,-3.0889,-2.9658,-2.9039,-1.5756,-1.5604,-1.5562,-1.6074,-1.5641,-1.5215,-1.559,-1.563,-1.5557,-1.5418,0.0,0.0,0.0,0.0,0.0,0.0,-1.6484,0.0,0.0,0.0,-1.7933,-1.8445,0.0,-1.8657,-1.8701,-1.876,-1.8847,-1.8986,-1.8869,-1.8847,-1.8986,-1.9177,-1.9279,-1.9279,-1.9279,-1.9279,-1.9279,-1.9279,-1.9279,-1.9279,-1.905,-1.9167,-1.9643,-1.9453,-1.9564,-1.9885,-1.9809,-1.9677,-1.9522,-1.9382,-1.9279,-1.9279,-1.9279,-1.9279,-1.9279,-1.9279,-1.9681,-2.0183,-2.0183,-2.0662,-2.1211,-2.1211,-2.1211,-2.1211,-2.1211,-2.1211,-2.1211,-2.1211,-2.1211,-2.1313,-2.1781,-2.2438,-2.3103,-2.3566,-2.4186,-2.4941,-2.5737,-2.6892,-2.8086,-2.892,-3.0197,-3.1054,-3.1054,-3.145,-3.173,-3.1556,-3.0888,-3.0597,-3.1218,-2.9952,-2.9589,-3.1102,-3.0431,-3.0246,-3.0986,-3.0947,-3.0587,-2.9785,-2.9066,-2.865,-2.865,-2.865,-2.865,-2.865,-2.865,-2.865,-2.865,-2.8095,-2.8095,-2.865,-2.8035,-2.7426,-1.528,-1.5147,-1.5113,-1.6038,-1.551,-1.4867,-1.5612,-1.5738,-1.5665,-1.5577,-1.5701,0.0,0.0,0.0,-1.5738,-1.5891,0.0,-1.6382,0.0,-1.6718,0.0,0.0,0.0,-1.8072,-1.8401,-1.8489,-1.8599,-1.8774,-1.8621,-1.8642,-1.8906,-1.906,-1.9236,-1.9324,-1.9279,-1.9279,-1.9279,-1.9279,-1.9279,-1.9279,-1.9112,-1.9216,-1.9517,-1.9387,-1.9434,-1.9571,-1.9618,-1.9493,-1.9279,-1.9279,-1.9279,-1.9279,-1.9279,-1.9279,-1.9286,-1.9374,-1.9762,-2.019,-2.0285,-2.0742,-2.1211,-2.1211,-2.1211,-2.1211,-2.1211,-2.1211,-2.1211,-2.1211,-2.1211,-2.1306,-2.1723,-2.2008,-2.2279,-2.2667,-2.2937,-2.3355,-2.4332,-2.5554,-2.6762,-2.7658,-2.8938,-2.9853,-2.9853,-3.049,-3.0898,-3.0665,-2.9874,-2.9521,-3.0265,-2.9007,-2.8829,-3.0713,-2.9717,-2.9285,-3.0274,-3.003,-2.9422,-2.8444,-2.7495,-2.7013,-2.7013,-2.7013,-2.7013,-2.7013,-2.7013,-2.7013,-2.7013,-2.665,-2.6468,-2.6468,-2.6468,-2.5981,-1.4508,-1.5017,-1.5422,-1.5882,-1.5983,-1.5863,-1.5507,-1.5906,-1.6301,-1.5965,-1.6389,-1.6756,-1.6441,-1.6382,-1.6287,-1.5965,-1.617,0.0,0.0,0.0,0.0,0.0,0.0,0.0,-1.8738,-1.8211,-1.8108,-1.8738,-1.8203,-1.8262,-1.9213,-1.8972,-1.895,-1.9264,-1.9279,-1.9279,-1.9279,-1.9279,-1.9279,-1.9279,-1.9283,-1.9593,-2.0121,-1.9654,-1.9682,-2.0168,-1.9552,-1.9313,-1.9279,-1.9279,-1.9279,-1.9279,-1.9279,-1.9279,-1.9368,-1.9683,-1.9952,-2.0227,-2.0596,-2.0933,-2.1211,-2.1211,-2.1211,-2.1211,-2.1211,-2.1211,-2.1211,-2.1211,-2.1211,-2.1357,-2.2001,-2.2176,-2.2337,-2.2945,-2.3098,-2.3106,-2.3168,-2.4216,-2.5194,-2.5194,-2.6225,-2.7142,-2.7142,-2.8146,-2.8979,-2.8979,-2.892,-2.892,-2.8979,-3.003,-3.083,-3.0889,-2.9717,-2.892,-2.8979,-2.7829,-2.7108,-2.7073,-2.7013,-2.7013,-2.7013,-2.7013,-2.7013,-2.7013,-2.7013,-2.7013,-2.7013,-2.5745,-2.5133,-2.5133,-2.5133,-2.5133,-1.3828,-1.3672,-1.3728,-1.5104,-1.4746,-1.4364,-1.5497,-1.6074,-1.6382,-1.6235,-1.6602,-1.6866,-1.6756,-1.6558,-1.6272,-1.5965,-1.617,-1.6111,0.0,0.0,0.0,0.0,0.0,0.0,0.0,-1.7691,-1.7816,-1.7823,-1.7816,-1.7962,-1.8291,-1.8613,-1.884,-1.895,-1.9162,-1.9279,-1.9279,-1.9279,-1.9389,-1.9654,-1.9604,-1.9761,-1.9957,-1.9907,-1.9948,-1.9935,-1.9733,-1.9631,-1.9632,-1.9367,-1.9279,-1.9279,-1.9279,-1.9279,-1.9286,-1.9456,-1.9777,-2.0256,-2.0859,-2.1115,-2.1211,-2.1211,-2.1211,-2.1211,-2.1211,-2.1211,-2.1211,-2.1211,-2.1211,-2.1313,-2.1752,-2.2023,-2.2286,-2.2689,-2.2952,-2.3355,-2.4216,-2.4764,-2.5378,-2.6164,-2.671,-2.7013,-2.7013,-2.6641,-2.6702,-2.7547,-2.7667,-2.7966,-2.8801,-2.8573,-2.8641,-2.9481,-2.8394,-2.7667,-2.7667,-2.6451,-2.5729,-2.5737,-2.4879,-2.4394,-2.4394,-2.4394,-2.4394,-2.4394,-2.4394,-2.4394,-2.4394,-2.3969,-2.3783,-2.3783,-2.3783,-2.3783,-1.2766,-1.2576,-1.2601,-1.414,-1.3819,-1.3544,-1.5118,-1.5931,-1.6239,-1.6015,-1.6732,-1.7073,-1.6062,-1.6253,-1.638,-1.5751,-1.5985,-1.595,0.0,-1.5352,0.0,0.0,0.0,0.0,0.0,-1.7194,-1.7355,-1.7494,-1.7377,-1.7501,-1.7962,-1.8386,-1.8664,-1.8789,-1.9103,-1.9279,-1.9279,-1.9279,-1.9492,-1.9815,-1.9879,-1.9983,-2.0123,-2.0294,-2.0221,-1.9942,-1.9856,-1.9752,-1.9625,-1.9412,-1.9279,-1.9279,-1.9279,-1.9279,-1.9301,-1.9535,-2.0025,-2.064,-2.1064,-2.1211,-2.1211,-2.1211,-2.1211,-2.1211,-2.1211,-2.1211,-2.1211,-2.1211,-2.1211,-2.1313,-2.1752,-2.2023,-2.2286,-2.2696,-2.2952,-2.3355,-2.4209,-2.4394,-2.4641,-2.5431,-2.5615,-2.5615,-2.5615,-2.4941,-2.4826,-2.6103,-2.6346,-2.6641,-2.7418,-2.7254,-2.7315,-2.8146,-2.7065,-2.6103,-2.5676,-2.4887,-2.4394,-2.4394,-2.3596,-2.3106,-2.3106,-2.3106,-2.3106,-2.3106,-2.3106,-2.3106,-2.3106,-2.3106,-2.3106,-2.3106,-2.3106,-2.3106]}]]